Wetterdaten: Mittwoch, 03.08.2016
Datum Zeit Temp. A. Temp. A. max Feuchte A. Luftdruck Regen Wind Richtung Richtung Sonnenschein ET UV Solar Taupunkt Windben
03.08.2016 00:00 14,1 C 14,1 C 95 % 1018,6 hPa 0,0 mm 1,0 km/h (0 Bft) S 173 0 min 0,000 mm 0,0 UV-I 0 W/m 13,3 C 1,6 km/h (1 Bft)
03.08.2016 00:01 14,1 C 14,1 C 95 % 1018,6 hPa 0,0 mm 0,7 km/h (0 Bft) S 173 0 min 0,000 mm 0,0 UV-I 0 W/m 13,3 C 1,6 km/h (1 Bft)
03.08.2016 00:02 14,1 C 14,1 C 95 % 1018,6 hPa 0,0 mm 0,3 km/h (0 Bft) S 173 0 min 0,000 mm 0,0 UV-I 0 W/m 13,3 C 1,6 km/h (1 Bft)
03.08.2016 00:03 14,1 C 14,1 C 95 % 1018,6 hPa 0,0 mm 0,9 km/h (0 Bft) S 173 0 min 0,000 mm 0,0 UV-I 0 W/m 13,3 C 1,6 km/h (1 Bft)
03.08.2016 00:04 14,1 C 14,1 C 95 % 1018,6 hPa 0,0 mm 1,4 km/h (1 Bft) S 173 0 min 0,000 mm 0,0 UV-I 0 W/m 13,3 C 3,2 km/h (1 Bft)
03.08.2016 00:05 14,1 C 14,1 C 95 % 1018,6 hPa 0,0 mm 1,8 km/h (1 Bft) S 173 0 min 0,000 mm 0,0 UV-I 0 W/m 13,3 C 3,2 km/h (1 Bft)
03.08.2016 00:06 14,1 C 14,1 C 95 % 1018,7 hPa 0,0 mm 0,3 km/h (0 Bft) S 173 0 min 0,000 mm 0,0 UV-I 0 W/m 13,3 C 1,6 km/h (1 Bft)
03.08.2016 00:07 14,1 C 14,1 C 95 % 1018,7 hPa 0,0 mm 0,0 km/h (0 Bft) S 173 0 min 0,000 mm 0,0 UV-I 0 W/m 13,3 C 0,0 km/h (0 Bft)
03.08.2016 00:08 14,1 C 14,1 C 95 % 1018,7 hPa 0,0 mm 0,0 km/h (0 Bft) S 173 0 min 0,000 mm 0,0 UV-I 0 W/m 13,3 C 0,0 km/h (0 Bft)
03.08.2016 00:09 14,1 C 14,1 C 95 % 1018,8 hPa 0,0 mm 0,5 km/h (0 Bft) S 173 0 min 0,000 mm 0,0 UV-I 0 W/m 13,3 C 1,6 km/h (1 Bft)
03.08.2016 00:10 14,1 C 14,1 C 95 % 1018,8 hPa 0,0 mm 0,6 km/h (0 Bft) S 173 0 min 0,000 mm 0,0 UV-I 0 W/m 13,3 C 1,6 km/h (1 Bft)
03.08.2016 00:11 14,1 C 14,1 C 95 % 1018,8 hPa 0,0 mm 0,0 km/h (0 Bft) S 173 0 min 0,000 mm 0,0 UV-I 0 W/m 13,3 C 0,0 km/h (0 Bft)
03.08.2016 00:12 14,1 C 14,1 C 95 % 1018,8 hPa 0,0 mm 0,0 km/h (0 Bft) S 173 0 min 0,000 mm 0,0 UV-I 0 W/m 13,3 C 0,0 km/h (0 Bft)
03.08.2016 00:13 14,1 C 14,1 C 95 % 1018,7 hPa 0,0 mm 0,2 km/h (0 Bft) S-SO 166 0 min 0,000 mm 0,0 UV-I 0 W/m 13,3 C 1,6 km/h (1 Bft)
03.08.2016 00:14 14,1 C 14,1 C 95 % 1018,7 hPa 0,0 mm 3,0 km/h (1 Bft) S-SO 166 0 min 0,000 mm 0,0 UV-I 0 W/m 13,3 C 4,8 km/h (1 Bft)
03.08.2016 00:15 14,1 C 14,1 C 95 % 1018,8 hPa 0,0 mm 4,1 km/h (1 Bft) S-SO 157 0 min 0,000 mm 0,0 UV-I 0 W/m 13,3 C 6,4 km/h (2 Bft)
03.08.2016 00:16 14,1 C 14,1 C 95 % 1018,7 hPa 0,0 mm 1,7 km/h (1 Bft) S-SO 157 0 min 0,000 mm 0,0 UV-I 0 W/m 13,3 C 3,2 km/h (1 Bft)
03.08.2016 00:17 14,1 C 14,1 C 95 % 1018,7 hPa 0,0 mm 0,8 km/h (0 Bft) S-SO 157 0 min 0,000 mm 0,0 UV-I 0 W/m 13,3 C 1,6 km/h (1 Bft)
03.08.2016 00:18 14,1 C 14,1 C 95 % 1018,7 hPa 0,0 mm 2,1 km/h (1 Bft) S-SO 157 0 min 0,000 mm 0,0 UV-I 0 W/m 13,3 C 3,2 km/h (1 Bft)
03.08.2016 00:19 14,1 C 14,1 C 95 % 1018,6 hPa 0,0 mm 3,3 km/h (1 Bft) SO 142 0 min 0,000 mm 0,0 UV-I 0 W/m 13,3 C 4,8 km/h (1 Bft)
03.08.2016 00:20 14,1 C 14,1 C 95 % 1018,7 hPa 0,0 mm 4,3 km/h (1 Bft) SO 135 0 min 0,000 mm 0,0 UV-I 0 W/m 13,3 C 4,8 km/h (1 Bft)
03.08.2016 00:21 14,1 C 14,1 C 95 % 1018,6 hPa 0,0 mm 1,3 km/h (1 Bft) SO 135 0 min 0,000 mm 0,0 UV-I 0 W/m 13,3 C 3,2 km/h (1 Bft)
03.08.2016 00:22 14,1 C 14,1 C 95 % 1018,7 hPa 0,0 mm 1,1 km/h (1 Bft) SO 135 0 min 0,000 mm 0,0 UV-I 0 W/m 13,3 C 1,6 km/h (1 Bft)
03.08.2016 00:23 14,1 C 14,1 C 95 % 1018,7 hPa 0,0 mm 1,1 km/h (1 Bft) SO 135 0 min 0,000 mm 0,0 UV-I 0 W/m 13,3 C 3,2 km/h (1 Bft)
03.08.2016 00:24 14,1 C 14,1 C 95 % 1018,7 hPa 0,0 mm 0,4 km/h (0 Bft) SO 135 0 min 0,000 mm 0,0 UV-I 0 W/m 13,3 C 1,6 km/h (1 Bft)
03.08.2016 00:25 14,1 C 14,1 C 95 % 1018,7 hPa 0,0 mm 1,2 km/h (1 Bft) SO 135 0 min 0,000 mm 0,0 UV-I 0 W/m 13,3 C 1,6 km/h (1 Bft)
03.08.2016 00:26 14,1 C 14,1 C 95 % 1018,7 hPa 0,0 mm 0,3 km/h (0 Bft) SO 135 0 min 0,000 mm 0,0 UV-I 0 W/m 13,3 C 1,6 km/h (1 Bft)
03.08.2016 00:27 14,1 C 14,1 C 95 % 1018,7 hPa 0,0 mm 0,7 km/h (0 Bft) SO 135 0 min 0,000 mm 0,0 UV-I 0 W/m 13,3 C 3,2 km/h (1 Bft)
03.08.2016 00:28 14,1 C 14,1 C 95 % 1018,7 hPa 0,0 mm 1,8 km/h (1 Bft) SO 135 0 min 0,000 mm 0,0 UV-I 0 W/m 13,3 C 3,2 km/h (1 Bft)
03.08.2016 00:29 14,1 C 14,1 C 95 % 1018,7 hPa 0,0 mm 0,8 km/h (0 Bft) SO 135 0 min 0,000 mm 0,0 UV-I 0 W/m 13,3 C 1,6 km/h (1 Bft)
03.08.2016 00:30 14,1 C 14,1 C 95 % 1018,8 hPa 0,0 mm 0,3 km/h (0 Bft) SO 135 0 min 0,000 mm 0,0 UV-I 0 W/m 13,3 C 1,6 km/h (1 Bft)
03.08.2016 00:31 14,1 C 14,1 C 95 % 1018,8 hPa 0,0 mm 0,6 km/h (0 Bft) SO 135 0 min 0,000 mm 0,0 UV-I 0 W/m 13,3 C 1,6 km/h (1 Bft)
03.08.2016 00:32 14,1 C 14,1 C 95 % 1018,8 hPa 0,0 mm 0,2 km/h (0 Bft) SO 135 0 min 0,000 mm 0,0 UV-I 0 W/m 13,3 C 1,6 km/h (1 Bft)
03.08.2016 00:33 14,1 C 14,1 C 95 % 1018,7 hPa 0,0 mm 0,0 km/h (0 Bft) SO 135 0 min 0,000 mm 0,0 UV-I 0 W/m 13,3 C 0,0 km/h (0 Bft)
03.08.2016 00:34 14,1 C 14,1 C 95 % 1018,7 hPa 0,0 mm 0,9 km/h (0 Bft) SO 135 0 min 0,000 mm 0,0 UV-I 0 W/m 13,3 C 1,6 km/h (1 Bft)
03.08.2016 00:35 14,1 C 14,1 C 95 % 1018,7 hPa 0,0 mm 1,1 km/h (1 Bft) SO 135 0 min 0,000 mm 0,0 UV-I 0 W/m 13,3 C 1,6 km/h (1 Bft)
03.08.2016 00:36 14,1 C 14,2 C 95 % 1018,7 hPa 0,0 mm 0,8 km/h (0 Bft) SO 135 0 min 0,000 mm 0,0 UV-I 0 W/m 13,3 C 1,6 km/h (1 Bft)
03.08.2016 00:37 14,2 C 14,2 C 95 % 1018,7 hPa 0,0 mm 0,8 km/h (0 Bft) SO 135 0 min 0,000 mm 0,0 UV-I 0 W/m 13,4 C 1,6 km/h (1 Bft)
03.08.2016 00:38 14,2 C 14,2 C 95 % 1018,7 hPa 0,0 mm 0,1 km/h (0 Bft) SO 135 0 min 0,000 mm 0,0 UV-I 0 W/m 13,4 C 1,6 km/h (1 Bft)
03.08.2016 00:39 14,2 C 14,2 C 95 % 1018,7 hPa 0,0 mm 0,0 km/h (0 Bft) SO 135 0 min 0,000 mm 0,0 UV-I 0 W/m 13,4 C 0,0 km/h (0 Bft)
03.08.2016 00:40 14,1 C 14,2 C 95 % 1018,6 hPa 0,0 mm 2,0 km/h (1 Bft) SO 137 0 min 0,000 mm 0,0 UV-I 0 W/m 13,3 C 3,2 km/h (1 Bft)
03.08.2016 00:41 14,2 C 14,2 C 95 % 1018,7 hPa 0,0 mm 2,1 km/h (1 Bft) SW 225 0 min 0,000 mm 0,0 UV-I 0 W/m 13,4 C 4,8 km/h (1 Bft)
03.08.2016 00:42 14,2 C 14,2 C 95 % 1018,7 hPa 0,0 mm 2,5 km/h (1 Bft) S-SW 201 0 min 0,000 mm 0,0 UV-I 0 W/m 13,4 C 4,8 km/h (1 Bft)
03.08.2016 00:43 14,2 C 14,2 C 95 % 1018,7 hPa 0,0 mm 1,7 km/h (1 Bft) S-SW 201 0 min 0,000 mm 0,0 UV-I 0 W/m 13,4 C 3,2 km/h (1 Bft)
03.08.2016 00:44 14,2 C 14,2 C 95 % 1018,7 hPa 0,0 mm 1,2 km/h (1 Bft) S-SW 201 0 min 0,000 mm 0,0 UV-I 0 W/m 13,4 C 3,2 km/h (1 Bft)
03.08.2016 00:45 14,2 C 14,2 C 95 % 1018,7 hPa 0,0 mm 1,2 km/h (1 Bft) S-SW 201 0 min 0,000 mm 0,0 UV-I 0 W/m 13,4 C 1,6 km/h (1 Bft)
03.08.2016 00:46 14,2 C 14,2 C 95 % 1018,7 hPa 0,0 mm 0,4 km/h (0 Bft) S-SW 201 0 min 0,000 mm 0,0 UV-I 0 W/m 13,4 C 1,6 km/h (1 Bft)
03.08.2016 00:47 14,2 C 14,2 C 95 % 1018,6 hPa 0,0 mm 0,0 km/h (0 Bft) S-SW 201 0 min 0,000 mm 0,0 UV-I 0 W/m 13,4 C 0,0 km/h (0 Bft)
03.08.2016 00:48 14,2 C 14,2 C 95 % 1018,7 hPa 0,0 mm 0,0 km/h (0 Bft) S-SW 201 0 min 0,000 mm 0,0 UV-I 0 W/m 13,4 C 0,0 km/h (0 Bft)
03.08.2016 00:49 14,2 C 14,2 C 95 % 1018,7 hPa 0,0 mm 0,0 km/h (0 Bft) S-SW 201 0 min 0,000 mm 0,0 UV-I 0 W/m 13,4 C 0,0 km/h (0 Bft)
03.08.2016 00:50 14,2 C 14,2 C 95 % 1018,7 hPa 0,0 mm 0,0 km/h (0 Bft) S-SW 201 0 min 0,000 mm 0,0 UV-I 0 W/m 13,4 C 0,0 km/h (0 Bft)
03.08.2016 00:51 14,2 C 14,2 C 95 % 1018,7 hPa 0,0 mm 0,0 km/h (0 Bft) S-SW 201 0 min 0,000 mm 0,0 UV-I 0 W/m 13,4 C 0,0 km/h (0 Bft)
03.08.2016 00:52 14,2 C 14,2 C 95 % 1018,7 hPa 0,0 mm 0,0 km/h (0 Bft) S-SW 201 0 min 0,000 mm 0,0 UV-I 0 W/m 13,4 C 0,0 km/h (0 Bft)
03.08.2016 00:53 14,2 C 14,3 C 95 % 1018,7 hPa 0,0 mm 0,0 km/h (0 Bft) S-SW 201 0 min 0,000 mm 0,0 UV-I 0 W/m 13,4 C 0,0 km/h (0 Bft)
03.08.2016 00:54 14,2 C 14,2 C 95 % 1018,7 hPa 0,0 mm 0,0 km/h (0 Bft) S-SW 201 0 min 0,000 mm 0,0 UV-I 0 W/m 13,4 C 0,0 km/h (0 Bft)
03.08.2016 00:55 14,2 C 14,2 C 95 % 1018,8 hPa 0,0 mm 0,0 km/h (0 Bft) S-SW 201 0 min 0,000 mm 0,0 UV-I 0 W/m 13,4 C 0,0 km/h (0 Bft)
03.08.2016 00:56 14,2 C 14,2 C 95 % 1018,8 hPa 0,0 mm 0,0 km/h (0 Bft) S-SW 200 0 min 0,000 mm 0,0 UV-I 0 W/m 13,4 C 0,0 km/h (0 Bft)
03.08.2016 00:57 14,2 C 14,2 C 95 % 1018,8 hPa 0,0 mm 0,0 km/h (0 Bft) S-SW 200 0 min 0,000 mm 0,0 UV-I 0 W/m 13,4 C 0,0 km/h (0 Bft)
03.08.2016 00:58 14,2 C 14,2 C 95 % 1018,8 hPa 0,0 mm 0,0 km/h (0 Bft) S-SW 200 0 min 0,000 mm 0,0 UV-I 0 W/m 13,4 C 0,0 km/h (0 Bft)
03.08.2016 00:59 14,2 C 14,2 C 95 % 1018,8 hPa 0,0 mm 0,0 km/h (0 Bft) S-SW 200 0 min 0,000 mm 0,0 UV-I 0 W/m 13,4 C 0,0 km/h (0 Bft)
03.08.2016 01:00 14,2 C 14,2 C 95 % 1018,9 hPa 0,0 mm 0,0 km/h (0 Bft) S-SW 200 0 min 0,000 mm 0,0 UV-I 0 W/m 13,4 C 0,0 km/h (0 Bft)
03.08.2016 01:01 14,2 C 14,2 C 95 % 1018,8 hPa 0,0 mm 0,0 km/h (0 Bft) S-SW 200 0 min 0,000 mm 0,0 UV-I 0 W/m 13,4 C 0,0 km/h (0 Bft)
03.08.2016 01:02 14,2 C 14,2 C 95 % 1018,8 hPa 0,0 mm 0,0 km/h (0 Bft) S-SW 200 0 min 0,000 mm 0,0 UV-I 0 W/m 13,4 C 0,0 km/h (0 Bft)
03.08.2016 01:03 14,2 C 14,2 C 95 % 1018,8 hPa 0,0 mm 0,0 km/h (0 Bft) S-SW 200 0 min 0,000 mm 0,0 UV-I 0 W/m 13,4 C 0,0 km/h (0 Bft)
03.08.2016 01:04 14,2 C 14,2 C 95 % 1018,9 hPa 0,0 mm 0,0 km/h (0 Bft) S-SW 200 0 min 0,000 mm 0,0 UV-I 0 W/m 13,4 C 0,0 km/h (0 Bft)
03.08.2016 01:05 14,2 C 14,2 C 95 % 1018,8 hPa 0,0 mm 0,0 km/h (0 Bft) S-SW 200 0 min 0,000 mm 0,0 UV-I 0 W/m 13,4 C 0,0 km/h (0 Bft)
03.08.2016 01:06 14,2 C 14,2 C 95 % 1018,9 hPa 0,0 mm 0,0 km/h (0 Bft) S-SW 200 0 min 0,000 mm 0,0 UV-I 0 W/m 13,4 C 0,0 km/h (0 Bft)
03.08.2016 01:07 14,2 C 14,2 C 95 % 1018,9 hPa 0,0 mm 0,0 km/h (0 Bft) S-SW 200 0 min 0,000 mm 0,0 UV-I 0 W/m 13,4 C 0,0 km/h (0 Bft)
03.08.2016 01:08 14,2 C 14,2 C 95 % 1018,9 hPa 0,0 mm 0,8 km/h (0 Bft) S-SW 199 0 min 0,000 mm 0,0 UV-I 0 W/m 13,4 C 3,2 km/h (1 Bft)
03.08.2016 01:09 14,2 C 14,2 C 95 % 1018,9 hPa 0,0 mm 1,4 km/h (1 Bft) S-SW 197 0 min 0,000 mm 0,0 UV-I 0 W/m 13,4 C 3,2 km/h (1 Bft)
03.08.2016 01:10 14,2 C 14,2 C 95 % 1018,8 hPa 0,0 mm 1,7 km/h (1 Bft) S-SW 197 0 min 0,000 mm 0,0 UV-I 0 W/m 13,4 C 3,2 km/h (1 Bft)
03.08.2016 01:11 14,2 C 14,2 C 95 % 1018,8 hPa 0,0 mm 1,1 km/h (1 Bft) S-SW 197 0 min 0,000 mm 0,0 UV-I 0 W/m 13,4 C 1,6 km/h (1 Bft)
03.08.2016 01:12 14,2 C 14,2 C 95 % 1018,8 hPa 0,0 mm 1,4 km/h (1 Bft) S 189 0 min 0,000 mm 0,0 UV-I 0 W/m 13,4 C 3,2 km/h (1 Bft)
03.08.2016 01:13 14,2 C 14,2 C 95 % 1018,8 hPa 0,0 mm 1,3 km/h (1 Bft) S 189 0 min 0,000 mm 0,0 UV-I 0 W/m 13,4 C 3,2 km/h (1 Bft)
03.08.2016 01:14 14,2 C 14,2 C 95 % 1018,8 hPa 0,0 mm 0,5 km/h (0 Bft) S 189 0 min 0,000 mm 0,0 UV-I 0 W/m 13,4 C 1,6 km/h (1 Bft)
03.08.2016 01:15 14,2 C 14,3 C 95 % 1018,8 hPa 0,0 mm 1,1 km/h (1 Bft) S 189 0 min 0,000 mm 0,0 UV-I 0 W/m 13,4 C 3,2 km/h (1 Bft)
03.08.2016 01:16 14,3 C 14,3 C 95 % 1018,8 hPa 0,0 mm 1,6 km/h (1 Bft) S 189 0 min 0,000 mm 0,0 UV-I 0 W/m 13,5 C 3,2 km/h (1 Bft)
03.08.2016 01:17 14,3 C 14,3 C 95 % 1018,8 hPa 0,0 mm 1,8 km/h (1 Bft) S 184 0 min 0,000 mm 0,0 UV-I 0 W/m 13,5 C 3,2 km/h (1 Bft)
03.08.2016 01:18 14,3 C 14,3 C 94 % 1018,8 hPa 0,0 mm 0,3 km/h (0 Bft) S 184 0 min 0,000 mm 0,0 UV-I 0 W/m 13,3 C 1,6 km/h (1 Bft)
03.08.2016 01:19 14,4 C 14,4 C 94 % 1018,8 hPa 0,0 mm 0,1 km/h (0 Bft) S 184 0 min 0,000 mm 0,0 UV-I 0 W/m 13,4 C 1,6 km/h (1 Bft)
03.08.2016 01:20 14,4 C 14,4 C 94 % 1018,8 hPa 0,0 mm 1,1 km/h (1 Bft) S 184 0 min 0,000 mm 0,0 UV-I 0 W/m 13,4 C 3,2 km/h (1 Bft)
03.08.2016 01:21 14,4 C 14,4 C 94 % 1018,8 hPa 0,0 mm 0,5 km/h (0 Bft) S 184 0 min 0,000 mm 0,0 UV-I 0 W/m 13,4 C 1,6 km/h (1 Bft)
03.08.2016 01:22 14,4 C 14,4 C 94 % 1018,8 hPa 0,0 mm 0,1 km/h (0 Bft) S 184 0 min 0,000 mm 0,0 UV-I 0 W/m 13,4 C 1,6 km/h (1 Bft)
03.08.2016 01:23 14,4 C 14,4 C 94 % 1018,8 hPa 0,0 mm 0,0 km/h (0 Bft) S 184 0 min 0,000 mm 0,0 UV-I 0 W/m 13,4 C 0,0 km/h (0 Bft)
03.08.2016 01:24 14,4 C 14,4 C 94 % 1018,8 hPa 0,0 mm 0,1 km/h (0 Bft) S 184 0 min 0,000 mm 0,0 UV-I 0 W/m 13,4 C 1,6 km/h (1 Bft)
03.08.2016 01:25 14,4 C 14,4 C 94 % 1018,8 hPa 0,0 mm 0,5 km/h (0 Bft) S 184 0 min 0,000 mm 0,0 UV-I 0 W/m 13,4 C 1,6 km/h (1 Bft)
03.08.2016 01:26 14,3 C 14,4 C 94 % 1018,8 hPa 0,0 mm 1,3 km/h (1 Bft) S 184 0 min 0,000 mm 0,0 UV-I 0 W/m 13,3 C 1,6 km/h (1 Bft)
03.08.2016 01:27 14,3 C 14,3 C 94 % 1018,8 hPa 0,0 mm 1,5 km/h (1 Bft) S 184 0 min 0,000 mm 0,0 UV-I 0 W/m 13,3 C 3,2 km/h (1 Bft)
03.08.2016 01:28 14,3 C 14,3 C 94 % 1018,8 hPa 0,0 mm 1,0 km/h (0 Bft) S 184 0 min 0,000 mm 0,0 UV-I 0 W/m 13,3 C 1,6 km/h (1 Bft)
03.08.2016 01:29 14,3 C 14,3 C 95 % 1018,7 hPa 0,0 mm 1,0 km/h (0 Bft) S 184 0 min 0,000 mm 0,0 UV-I 0 W/m 13,5 C 1,6 km/h (1 Bft)
03.08.2016 01:30 14,3 C 14,3 C 95 % 1018,7 hPa 0,0 mm 0,4 km/h (0 Bft) S 184 0 min 0,000 mm 0,0 UV-I 0 W/m 13,5 C 1,6 km/h (1 Bft)
03.08.2016 01:31 14,3 C 14,3 C 95 % 1018,8 hPa 0,0 mm 0,1 km/h (0 Bft) S 184 0 min 0,000 mm 0,0 UV-I 0 W/m 13,5 C 1,6 km/h (1 Bft)
03.08.2016 01:32 14,2 C 14,3 C 95 % 1018,8 hPa 0,0 mm 0,0 km/h (0 Bft) S 184 0 min 0,000 mm 0,0 UV-I 0 W/m 13,4 C 0,0 km/h (0 Bft)
03.08.2016 01:33 14,2 C 14,2 C 95 % 1018,8 hPa 0,0 mm 0,7 km/h (0 Bft) S 184 0 min 0,000 mm 0,0 UV-I 0 W/m 13,4 C 1,6 km/h (1 Bft)
03.08.2016 01:34 14,2 C 14,2 C 95 % 1018,7 hPa 0,0 mm 0,9 km/h (0 Bft) S 184 0 min 0,000 mm 0,0 UV-I 0 W/m 13,4 C 1,6 km/h (1 Bft)
03.08.2016 01:35 14,2 C 14,2 C 95 % 1018,7 hPa 0,0 mm 0,2 km/h (0 Bft) S 184 0 min 0,000 mm 0,0 UV-I 0 W/m 13,4 C 1,6 km/h (1 Bft)
03.08.2016 01:36 14,2 C 14,2 C 95 % 1018,8 hPa 0,0 mm 0,1 km/h (0 Bft) S 184 0 min 0,000 mm 0,0 UV-I 0 W/m 13,4 C 1,6 km/h (1 Bft)
03.08.2016 01:37 14,2 C 14,2 C 95 % 1018,8 hPa 0,0 mm 0,3 km/h (0 Bft) S 184 0 min 0,000 mm 0,0 UV-I 0 W/m 13,4 C 1,6 km/h (1 Bft)
03.08.2016 01:38 14,2 C 14,3 C 95 % 1018,8 hPa 0,0 mm 1,9 km/h (1 Bft) S-SW 194 0 min 0,000 mm 0,0 UV-I 0 W/m 13,4 C 3,2 km/h (1 Bft)
03.08.2016 01:39 14,2 C 14,3 C 95 % 1018,8 hPa 0,0 mm 1,1 km/h (1 Bft) S-SW 194 0 min 0,000 mm 0,0 UV-I 0 W/m 13,4 C 1,6 km/h (1 Bft)
03.08.2016 01:40 14,3 C 14,3 C 95 % 1018,8 hPa 0,0 mm 0,0 km/h (0 Bft) S-SW 194 0 min 0,000 mm 0,0 UV-I 0 W/m 13,5 C 0,0 km/h (0 Bft)
03.08.2016 01:41 14,3 C 14,3 C 94 % 1018,7 hPa 0,0 mm 0,0 km/h (0 Bft) S-SW 194 0 min 0,000 mm 0,0 UV-I 0 W/m 13,3 C 0,0 km/h (0 Bft)
03.08.2016 01:42 14,3 C 14,4 C 94 % 1018,7 hPa 0,0 mm 0,0 km/h (0 Bft) S-SW 194 0 min 0,000 mm 0,0 UV-I 0 W/m 13,3 C 0,0 km/h (0 Bft)
03.08.2016 01:43 14,4 C 14,4 C 94 % 1018,8 hPa 0,0 mm 0,0 km/h (0 Bft) S-SW 194 0 min 0,000 mm 0,0 UV-I 0 W/m 13,4 C 0,0 km/h (0 Bft)
03.08.2016 01:44 14,4 C 14,4 C 94 % 1018,8 hPa 0,0 mm 2,6 km/h (1 Bft) S-SW 194 0 min 0,000 mm 0,0 UV-I 0 W/m 13,4 C 4,8 km/h (1 Bft)
03.08.2016 01:45 14,4 C 14,4 C 94 % 1018,7 hPa 0,0 mm 3,2 km/h (1 Bft) S 175 0 min 0,000 mm 0,0 UV-I 0 W/m 13,4 C 4,8 km/h (1 Bft)
03.08.2016 01:46 14,4 C 14,4 C 94 % 1018,7 hPa 0,0 mm 4,1 km/h (1 Bft) S-SW 193 0 min 0,000 mm 0,0 UV-I 0 W/m 13,4 C 6,4 km/h (2 Bft)
03.08.2016 01:47 14,3 C 14,4 C 94 % 1018,7 hPa 0,0 mm 3,6 km/h (1 Bft) S-SW 194 0 min 0,000 mm 0,0 UV-I 0 W/m 13,3 C 4,8 km/h (1 Bft)
03.08.2016 01:48 14,4 C 14,4 C 94 % 1018,7 hPa 0,0 mm 1,9 km/h (1 Bft) S-SW 193 0 min 0,000 mm 0,0 UV-I 0 W/m 13,4 C 3,2 km/h (1 Bft)
03.08.2016 01:49 14,4 C 14,4 C 94 % 1018,7 hPa 0,0 mm 1,9 km/h (1 Bft) S-SW 193 0 min 0,000 mm 0,0 UV-I 0 W/m 13,4 C 3,2 km/h (1 Bft)
03.08.2016 01:50 14,3 C 14,4 C 94 % 1018,6 hPa 0,0 mm 2,1 km/h (1 Bft) S 176 0 min 0,000 mm 0,0 UV-I 0 W/m 13,3 C 3,2 km/h (1 Bft)
03.08.2016 01:51 14,3 C 14,3 C 95 % 1018,6 hPa 0,0 mm 1,5 km/h (1 Bft) S 176 0 min 0,000 mm 0,0 UV-I 0 W/m 13,5 C 3,2 km/h (1 Bft)
03.08.2016 01:52 14,3 C 14,3 C 95 % 1018,6 hPa 0,0 mm 2,0 km/h (1 Bft) S 176 0 min 0,000 mm 0,0 UV-I 0 W/m 13,5 C 3,2 km/h (1 Bft)
03.08.2016 01:53 14,3 C 14,3 C 94 % 1018,7 hPa 0,0 mm 0,4 km/h (0 Bft) S 176 0 min 0,000 mm 0,0 UV-I 0 W/m 13,3 C 1,6 km/h (1 Bft)
03.08.2016 01:54 14,3 C 14,3 C 94 % 1018,7 hPa 0,0 mm 0,8 km/h (0 Bft) S 176 0 min 0,000 mm 0,0 UV-I 0 W/m 13,3 C 1,6 km/h (1 Bft)
03.08.2016 01:55 14,3 C 14,3 C 94 % 1018,7 hPa 0,0 mm 3,0 km/h (1 Bft) W 262 0 min 0,000 mm 0,0 UV-I 0 W/m 13,3 C 6,4 km/h (2 Bft)
03.08.2016 01:56 14,3 C 14,3 C 94 % 1018,7 hPa 0,0 mm 0,3 km/h (0 Bft) W 262 0 min 0,000 mm 0,0 UV-I 0 W/m 13,3 C 3,2 km/h (1 Bft)
03.08.2016 01:57 14,3 C 14,3 C 94 % 1018,7 hPa 0,0 mm 0,1 km/h (0 Bft) W 262 0 min 0,000 mm 0,0 UV-I 0 W/m 13,3 C 1,6 km/h (1 Bft)
03.08.2016 01:58 14,3 C 14,4 C 94 % 1018,7 hPa 0,0 mm 0,1 km/h (0 Bft) W 262 0 min 0,000 mm 0,0 UV-I 0 W/m 13,3 C 1,6 km/h (1 Bft)
03.08.2016 01:59 14,3 C 14,3 C 94 % 1018,7 hPa 0,0 mm 0,0 km/h (0 Bft) W 262 0 min 0,000 mm 0,0 UV-I 0 W/m 13,3 C 0,0 km/h (0 Bft)
03.08.2016 02:00 14,3 C 14,3 C 95 % 1018,7 hPa 0,0 mm 0,8 km/h (0 Bft) W 262 0 min 0,000 mm 0,0 UV-I 0 W/m 13,5 C 1,6 km/h (1 Bft)
03.08.2016 02:01 14,3 C 14,3 C 95 % 1018,8 hPa 0,0 mm 0,0 km/h (0 Bft) W 262 0 min 0,000 mm 0,0 UV-I 0 W/m 13,5 C 0,0 km/h (0 Bft)
03.08.2016 02:02 14,3 C 14,3 C 95 % 1018,7 hPa 0,0 mm 0,0 km/h (0 Bft) W 262 0 min 0,000 mm 0,0 UV-I 0 W/m 13,5 C 0,0 km/h (0 Bft)
03.08.2016 02:03 14,3 C 14,3 C 95 % 1018,7 hPa 0,0 mm 0,0 km/h (0 Bft) W 260 0 min 0,000 mm 0,0 UV-I 0 W/m 13,5 C 0,0 km/h (0 Bft)
03.08.2016 02:04 14,2 C 14,3 C 95 % 1018,7 hPa 0,0 mm 0,0 km/h (0 Bft) W-SW 237 0 min 0,000 mm 0,0 UV-I 0 W/m 13,4 C 0,0 km/h (0 Bft)
03.08.2016 02:05 14,2 C 14,2 C 95 % 1018,6 hPa 0,0 mm 0,0 km/h (0 Bft) W-SW 237 0 min 0,000 mm 0,0 UV-I 0 W/m 13,4 C 0,0 km/h (0 Bft)
03.08.2016 02:06 14,2 C 14,2 C 95 % 1018,7 hPa 0,0 mm 0,0 km/h (0 Bft) W-SW 237 0 min 0,000 mm 0,0 UV-I 0 W/m 13,4 C 0,0 km/h (0 Bft)
03.08.2016 02:07 14,2 C 14,2 C 95 % 1018,7 hPa 0,0 mm 0,0 km/h (0 Bft) W-SW 237 0 min 0,000 mm 0,0 UV-I 0 W/m 13,4 C 0,0 km/h (0 Bft)
03.08.2016 02:08 14,2 C 14,2 C 95 % 1018,7 hPa 0,0 mm 0,0 km/h (0 Bft) W-SW 237 0 min 0,000 mm 0,0 UV-I 0 W/m 13,4 C 0,0 km/h (0 Bft)
03.08.2016 02:09 14,2 C 14,2 C 95 % 1018,7 hPa 0,0 mm 0,0 km/h (0 Bft) W-SW 237 0 min 0,000 mm 0,0 UV-I 0 W/m 13,4 C 0,0 km/h (0 Bft)
03.08.2016 02:10 14,2 C 14,2 C 95 % 1018,7 hPa 0,0 mm 0,0 km/h (0 Bft) W-SW 237 0 min 0,000 mm 0,0 UV-I 0 W/m 13,4 C 0,0 km/h (0 Bft)
03.08.2016 02:11 14,2 C 14,2 C 95 % 1018,6 hPa 0,0 mm 0,0 km/h (0 Bft) W-SW 237 0 min 0,000 mm 0,0 UV-I 0 W/m 13,4 C 0,0 km/h (0 Bft)
03.08.2016 02:12 14,2 C 14,2 C 95 % 1018,6 hPa 0,0 mm 0,0 km/h (0 Bft) W-SW 237 0 min 0,000 mm 0,0 UV-I 0 W/m 13,4 C 0,0 km/h (0 Bft)
03.08.2016 02:13 14,2 C 14,2 C 95 % 1018,6 hPa 0,0 mm 0,0 km/h (0 Bft) W-SW 237 0 min 0,000 mm 0,0 UV-I 0 W/m 13,4 C 0,0 km/h (0 Bft)
03.08.2016 02:14 14,2 C 14,2 C 95 % 1018,6 hPa 0,0 mm 0,0 km/h (0 Bft) W-SW 237 0 min 0,000 mm 0,0 UV-I 0 W/m 13,4 C 0,0 km/h (0 Bft)
03.08.2016 02:15 14,2 C 14,2 C 95 % 1018,6 hPa 0,0 mm 0,0 km/h (0 Bft) W-SW 237 0 min 0,000 mm 0,0 UV-I 0 W/m 13,4 C 0,0 km/h (0 Bft)
03.08.2016 02:16 14,1 C 14,2 C 95 % 1018,6 hPa 0,0 mm 0,0 km/h (0 Bft) W-SW 237 0 min 0,000 mm 0,0 UV-I 0 W/m 13,3 C 0,0 km/h (0 Bft)
03.08.2016 02:17 14,2 C 14,2 C 95 % 1018,6 hPa 0,0 mm 0,0 km/h (0 Bft) W-SW 237 0 min 0,000 mm 0,0 UV-I 0 W/m 13,4 C 0,0 km/h (0 Bft)
03.08.2016 02:18 14,2 C 14,2 C 95 % 1018,6 hPa 0,0 mm 0,0 km/h (0 Bft) W-SW 237 0 min 0,000 mm 0,0 UV-I 0 W/m 13,4 C 0,0 km/h (0 Bft)
03.08.2016 02:19 14,2 C 14,2 C 95 % 1018,6 hPa 0,0 mm 0,0 km/h (0 Bft) W-SW 237 0 min 0,000 mm 0,0 UV-I 0 W/m 13,4 C 0,0 km/h (0 Bft)
03.08.2016 02:20 14,2 C 14,2 C 95 % 1018,7 hPa 0,0 mm 0,0 km/h (0 Bft) W-SW 237 0 min 0,000 mm 0,0 UV-I 0 W/m 13,4 C 0,0 km/h (0 Bft)
03.08.2016 02:21 14,2 C 14,2 C 95 % 1018,6 hPa 0,0 mm 0,0 km/h (0 Bft) W-SW 237 0 min 0,000 mm 0,0 UV-I 0 W/m 13,4 C 0,0 km/h (0 Bft)
03.08.2016 02:22 14,1 C 14,2 C 95 % 1018,7 hPa 0,0 mm 0,0 km/h (0 Bft) W-SW 237 0 min 0,000 mm 0,0 UV-I 0 W/m 13,3 C 0,0 km/h (0 Bft)
03.08.2016 02:23 14,2 C 14,2 C 95 % 1018,6 hPa 0,0 mm 0,0 km/h (0 Bft) W-SW 237 0 min 0,000 mm 0,0 UV-I 0 W/m 13,4 C 0,0 km/h (0 Bft)
03.08.2016 02:24 14,2 C 14,2 C 95 % 1018,6 hPa 0,0 mm 0,0 km/h (0 Bft) W-SW 237 0 min 0,000 mm 0,0 UV-I 0 W/m 13,4 C 0,0 km/h (0 Bft)
03.08.2016 02:25 14,2 C 14,2 C 95 % 1018,6 hPa 0,0 mm 0,0 km/h (0 Bft) W-SW 237 0 min 0,000 mm 0,0 UV-I 0 W/m 13,4 C 0,0 km/h (0 Bft)
03.08.2016 02:26 14,2 C 14,2 C 95 % 1018,6 hPa 0,0 mm 0,0 km/h (0 Bft) W-SW 237 0 min 0,000 mm 0,0 UV-I 0 W/m 13,4 C 0,0 km/h (0 Bft)
03.08.2016 02:27 14,2 C 14,2 C 95 % 1018,6 hPa 0,0 mm 0,0 km/h (0 Bft) W-SW 237 0 min 0,000 mm 0,0 UV-I 0 W/m 13,4 C 0,0 km/h (0 Bft)
03.08.2016 02:28 14,2 C 14,2 C 95 % 1018,6 hPa 0,0 mm 0,0 km/h (0 Bft) W-SW 237 0 min 0,000 mm 0,0 UV-I 0 W/m 13,4 C 0,0 km/h (0 Bft)
03.08.2016 02:29 14,2 C 14,2 C 95 % 1018,6 hPa 0,0 mm 0,0 km/h (0 Bft) SW 221 0 min 0,000 mm 0,0 UV-I 0 W/m 13,4 C 0,0 km/h (0 Bft)
03.08.2016 02:30 14,2 C 14,2 C 95 % 1018,5 hPa 0,0 mm 0,0 km/h (0 Bft) SW 221 0 min 0,000 mm 0,0 UV-I 0 W/m 13,4 C 0,0 km/h (0 Bft)
03.08.2016 02:31 14,1 C 14,2 C 95 % 1018,5 hPa 0,0 mm 0,0 km/h (0 Bft) SW 221 0 min 0,000 mm 0,0 UV-I 0 W/m 13,3 C 0,0 km/h (0 Bft)
03.08.2016 02:32 14,1 C 14,2 C 95 % 1018,5 hPa 0,0 mm 0,0 km/h (0 Bft) SW 221 0 min 0,000 mm 0,0 UV-I 0 W/m 13,3 C 0,0 km/h (0 Bft)
03.08.2016 02:33 14,1 C 14,2 C 95 % 1018,5 hPa 0,0 mm 0,0 km/h (0 Bft) SW 221 0 min 0,000 mm 0,0 UV-I 0 W/m 13,3 C 0,0 km/h (0 Bft)
03.08.2016 02:34 14,1 C 14,2 C 95 % 1018,5 hPa 0,0 mm 0,0 km/h (0 Bft) SW 221 0 min 0,000 mm 0,0 UV-I 0 W/m 13,3 C 0,0 km/h (0 Bft)
03.08.2016 02:35 14,2 C 14,2 C 95 % 1018,5 hPa 0,0 mm 0,0 km/h (0 Bft) SW 221 0 min 0,000 mm 0,0 UV-I 0 W/m 13,4 C 0,0 km/h (0 Bft)
03.08.2016 02:36 14,2 C 14,2 C 95 % 1018,5 hPa 0,0 mm 0,0 km/h (0 Bft) SW 221 0 min 0,000 mm 0,0 UV-I 0 W/m 13,4 C 0,0 km/h (0 Bft)
03.08.2016 02:37 14,2 C 14,2 C 95 % 1018,5 hPa 0,0 mm 0,0 km/h (0 Bft) SW 221 0 min 0,000 mm 0,0 UV-I 0 W/m 13,4 C 0,0 km/h (0 Bft)
03.08.2016 02:38 14,2 C 14,2 C 95 % 1018,5 hPa 0,0 mm 1,0 km/h (0 Bft) W-SW 243 0 min 0,000 mm 0,0 UV-I 0 W/m 13,4 C 3,2 km/h (1 Bft)
03.08.2016 02:39 14,2 C 14,2 C 95 % 1018,5 hPa 0,0 mm 0,6 km/h (0 Bft) W-SW 243 0 min 0,000 mm 0,0 UV-I 0 W/m 13,4 C 1,6 km/h (1 Bft)
03.08.2016 02:40 14,1 C 14,2 C 95 % 1018,5 hPa 0,0 mm 0,3 km/h (0 Bft) W-SW 243 0 min 0,000 mm 0,0 UV-I 0 W/m 13,3 C 1,6 km/h (1 Bft)
03.08.2016 02:41 14,2 C 14,2 C 95 % 1018,5 hPa 0,0 mm 0,3 km/h (0 Bft) W-SW 243 0 min 0,000 mm 0,0 UV-I 0 W/m 13,4 C 1,6 km/h (1 Bft)
03.08.2016 02:42 14,2 C 14,2 C 95 % 1018,4 hPa 0,0 mm 0,3 km/h (0 Bft) W-SW 243 0 min 0,000 mm 0,0 UV-I 0 W/m 13,4 C 1,6 km/h (1 Bft)
03.08.2016 02:43 14,1 C 14,2 C 95 % 1018,4 hPa 0,0 mm 0,2 km/h (0 Bft) W-SW 243 0 min 0,000 mm 0,0 UV-I 0 W/m 13,3 C 1,6 km/h (1 Bft)
03.08.2016 02:44 14,1 C 14,2 C 96 % 1018,4 hPa 0,0 mm 0,7 km/h (0 Bft) W-SW 243 0 min 0,000 mm 0,0 UV-I 0 W/m 13,5 C 1,6 km/h (1 Bft)
03.08.2016 02:45 14,2 C 14,2 C 96 % 1018,4 hPa 0,0 mm 1,7 km/h (1 Bft) W-SW 243 0 min 0,000 mm 0,0 UV-I 0 W/m 13,6 C 3,2 km/h (1 Bft)
03.08.2016 02:46 14,1 C 14,2 C 95 % 1018,3 hPa 0,0 mm 1,9 km/h (1 Bft) W-SW 243 0 min 0,000 mm 0,0 UV-I 0 W/m 13,3 C 3,2 km/h (1 Bft)
03.08.2016 02:47 14,2 C 14,2 C 95 % 1018,3 hPa 0,0 mm 0,9 km/h (0 Bft) W-SW 243 0 min 0,000 mm 0,0 UV-I 0 W/m 13,4 C 1,6 km/h (1 Bft)
03.08.2016 02:48 14,2 C 14,2 C 95 % 1018,3 hPa 0,0 mm 0,3 km/h (0 Bft) W-SW 243 0 min 0,000 mm 0,0 UV-I 0 W/m 13,4 C 1,6 km/h (1 Bft)
03.08.2016 02:49 14,2 C 14,2 C 95 % 1018,2 hPa 0,0 mm 0,0 km/h (0 Bft) W-SW 243 0 min 0,000 mm 0,0 UV-I 0 W/m 13,4 C 0,0 km/h (0 Bft)
03.08.2016 02:50 14,2 C 14,2 C 95 % 1018,2 hPa 0,0 mm 0,1 km/h (0 Bft) W-SW 243 0 min 0,000 mm 0,0 UV-I 0 W/m 13,4 C 1,6 km/h (1 Bft)
03.08.2016 02:51 14,2 C 14,2 C 95 % 1018,2 hPa 0,0 mm 0,2 km/h (0 Bft) W-SW 243 0 min 0,000 mm 0,0 UV-I 0 W/m 13,4 C 1,6 km/h (1 Bft)
03.08.2016 02:52 14,2 C 14,2 C 95 % 1018,2 hPa 0,0 mm 0,0 km/h (0 Bft) W-SW 243 0 min 0,000 mm 0,0 UV-I 0 W/m 13,4 C 0,0 km/h (0 Bft)
03.08.2016 02:53 14,2 C 14,2 C 95 % 1018,2 hPa 0,0 mm 0,3 km/h (0 Bft) W-SW 243 0 min 0,000 mm 0,0 UV-I 0 W/m 13,4 C 1,6 km/h (1 Bft)
03.08.2016 02:54 14,2 C 14,2 C 95 % 1018,2 hPa 0,0 mm 0,1 km/h (0 Bft) W-SW 243 0 min 0,000 mm 0,0 UV-I 0 W/m 13,4 C 1,6 km/h (1 Bft)
03.08.2016 02:55 14,1 C 14,2 C 95 % 1018,2 hPa 0,0 mm 0,0 km/h (0 Bft) W-SW 243 0 min 0,000 mm 0,0 UV-I 0 W/m 13,3 C 0,0 km/h (0 Bft)
03.08.2016 02:56 14,2 C 14,2 C 95 % 1018,1 hPa 0,0 mm 0,1 km/h (0 Bft) W-SW 243 0 min 0,000 mm 0,0 UV-I 0 W/m 13,4 C 1,6 km/h (1 Bft)
03.08.2016 02:57 14,1 C 14,2 C 95 % 1018,1 hPa 0,0 mm 0,8 km/h (0 Bft) W-SW 243 0 min 0,000 mm 0,0 UV-I 0 W/m 13,3 C 1,6 km/h (1 Bft)
03.08.2016 02:58 14,2 C 14,2 C 95 % 1018,1 hPa 0,0 mm 1,2 km/h (1 Bft) S-SW 203 0 min 0,000 mm 0,0 UV-I 0 W/m 13,4 C 3,2 km/h (1 Bft)
03.08.2016 02:59 14,2 C 14,2 C 95 % 1018,0 hPa 0,0 mm 1,1 km/h (1 Bft) S-SW 203 0 min 0,000 mm 0,0 UV-I 0 W/m 13,4 C 1,6 km/h (1 Bft)
03.08.2016 03:00 14,2 C 14,2 C 95 % 1018,0 hPa 0,0 mm 0,0 km/h (0 Bft) S-SW 203 0 min 0,000 mm 0,0 UV-I 0 W/m 13,4 C 0,0 km/h (0 Bft)
03.08.2016 03:01 14,2 C 14,2 C 95 % 1017,9 hPa 0,0 mm 0,0 km/h (0 Bft) S-SW 203 0 min 0,000 mm 0,0 UV-I 0 W/m 13,4 C 0,0 km/h (0 Bft)
03.08.2016 03:02 14,2 C 14,2 C 95 % 1018,0 hPa 0,0 mm 1,1 km/h (1 Bft) S-SW 203 0 min 0,000 mm 0,0 UV-I 0 W/m 13,4 C 3,2 km/h (1 Bft)
03.08.2016 03:03 14,2 C 14,2 C 95 % 1018,0 hPa 0,0 mm 1,2 km/h (1 Bft) S-SW 203 0 min 0,000 mm 0,0 UV-I 0 W/m 13,4 C 3,2 km/h (1 Bft)
03.08.2016 03:04 14,2 C 14,2 C 95 % 1018,0 hPa 0,0 mm 0,5 km/h (0 Bft) S-SW 203 0 min 0,000 mm 0,0 UV-I 0 W/m 13,4 C 1,6 km/h (1 Bft)
03.08.2016 03:05 14,2 C 14,2 C 95 % 1018,0 hPa 0,0 mm 2,8 km/h (1 Bft) S 173 0 min 0,000 mm 0,0 UV-I 0 W/m 13,4 C 3,2 km/h (1 Bft)
03.08.2016 03:06 14,2 C 14,2 C 95 % 1018,0 hPa 0,0 mm 1,5 km/h (1 Bft) S 173 0 min 0,000 mm 0,0 UV-I 0 W/m 13,4 C 1,6 km/h (1 Bft)
03.08.2016 03:07 14,2 C 14,2 C 95 % 1018,0 hPa 0,0 mm 0,3 km/h (0 Bft) S 173 0 min 0,000 mm 0,0 UV-I 0 W/m 13,4 C 1,6 km/h (1 Bft)
03.08.2016 03:08 14,2 C 14,2 C 95 % 1018,0 hPa 0,0 mm 0,0 km/h (0 Bft) S 173 0 min 0,000 mm 0,0 UV-I 0 W/m 13,4 C 0,0 km/h (0 Bft)
03.08.2016 03:09 14,2 C 14,2 C 95 % 1017,9 hPa 0,0 mm 0,3 km/h (0 Bft) S 173 0 min 0,000 mm 0,0 UV-I 0 W/m 13,4 C 1,6 km/h (1 Bft)
03.08.2016 03:10 14,2 C 14,2 C 95 % 1017,9 hPa 0,0 mm 1,5 km/h (1 Bft) S 173 0 min 0,000 mm 0,0 UV-I 0 W/m 13,4 C 1,6 km/h (1 Bft)
03.08.2016 03:11 14,2 C 14,2 C 95 % 1017,9 hPa 0,0 mm 0,2 km/h (0 Bft) S 173 0 min 0,000 mm 0,0 UV-I 0 W/m 13,4 C 1,6 km/h (1 Bft)
03.08.2016 03:12 14,1 C 14,2 C 95 % 1017,9 hPa 0,0 mm 0,5 km/h (0 Bft) S 173 0 min 0,000 mm 0,0 UV-I 0 W/m 13,3 C 1,6 km/h (1 Bft)
03.08.2016 03:13 14,2 C 14,2 C 95 % 1017,9 hPa 0,0 mm 0,9 km/h (0 Bft) S 173 0 min 0,000 mm 0,0 UV-I 0 W/m 13,4 C 3,2 km/h (1 Bft)
03.08.2016 03:14 14,2 C 14,2 C 95 % 1017,9 hPa 0,0 mm 1,3 km/h (1 Bft) S 173 0 min 0,000 mm 0,0 UV-I 0 W/m 13,4 C 3,2 km/h (1 Bft)
03.08.2016 03:15 14,1 C 14,2 C 95 % 1017,9 hPa 0,0 mm 0,3 km/h (0 Bft) S 173 0 min 0,000 mm 0,0 UV-I 0 W/m 13,3 C 1,6 km/h (1 Bft)
03.08.2016 03:16 14,1 C 14,2 C 95 % 1017,9 hPa 0,0 mm 0,2 km/h (0 Bft) S 173 0 min 0,000 mm 0,0 UV-I 0 W/m 13,3 C 1,6 km/h (1 Bft)
03.08.2016 03:17 14,1 C 14,2 C 95 % 1017,8 hPa 0,0 mm 0,9 km/h (0 Bft) S 173 0 min 0,000 mm 0,0 UV-I 0 W/m 13,3 C 1,6 km/h (1 Bft)
03.08.2016 03:18 14,1 C 14,2 C 95 % 1017,8 hPa 0,0 mm 0,7 km/h (0 Bft) SO 134 0 min 0,000 mm 0,0 UV-I 0 W/m 13,3 C 3,2 km/h (1 Bft)
03.08.2016 03:19 14,1 C 14,1 C 95 % 1017,8 hPa 0,0 mm 0,0 km/h (0 Bft) SO 134 0 min 0,000 mm 0,0 UV-I 0 W/m 13,3 C 0,0 km/h (0 Bft)
03.08.2016 03:20 14,1 C 14,1 C 95 % 1017,9 hPa 0,0 mm 0,3 km/h (0 Bft) SO 134 0 min 0,000 mm 0,0 UV-I 0 W/m 13,3 C 1,6 km/h (1 Bft)
03.08.2016 03:21 14,1 C 14,1 C 95 % 1017,9 hPa 0,0 mm 0,3 km/h (0 Bft) SO 134 0 min 0,000 mm 0,0 UV-I 0 W/m 13,3 C 1,6 km/h (1 Bft)
03.08.2016 03:22 14,1 C 14,1 C 96 % 1017,9 hPa 0,0 mm 0,0 km/h (0 Bft) SO 134 0 min 0,000 mm 0,0 UV-I 0 W/m 13,5 C 0,0 km/h (0 Bft)
03.08.2016 03:23 14,1 C 14,1 C 96 % 1017,8 hPa 0,0 mm 0,0 km/h (0 Bft) SO 134 0 min 0,000 mm 0,0 UV-I 0 W/m 13,5 C 0,0 km/h (0 Bft)
03.08.2016 03:24 14,1 C 14,1 C 96 % 1017,9 hPa 0,0 mm 0,0 km/h (0 Bft) SO 134 0 min 0,000 mm 0,0 UV-I 0 W/m 13,5 C 0,0 km/h (0 Bft)
03.08.2016 03:25 14,1 C 14,1 C 96 % 1017,9 hPa 0,0 mm 0,0 km/h (0 Bft) SO 134 0 min 0,000 mm 0,0 UV-I 0 W/m 13,5 C 0,0 km/h (0 Bft)
03.08.2016 03:26 14,0 C 14,1 C 96 % 1017,8 hPa 0,0 mm 0,0 km/h (0 Bft) SO 134 0 min 0,000 mm 0,0 UV-I 0 W/m 13,4 C 0,0 km/h (0 Bft)
03.08.2016 03:27 14,0 C 14,0 C 95 % 1017,9 hPa 0,0 mm 0,0 km/h (0 Bft) SO 134 0 min 0,000 mm 0,0 UV-I 0 W/m 13,2 C 0,0 km/h (0 Bft)
03.08.2016 03:28 14,0 C 14,0 C 96 % 1017,8 hPa 0,0 mm 0,0 km/h (0 Bft) SO 134 0 min 0,000 mm 0,0 UV-I 0 W/m 13,4 C 0,0 km/h (0 Bft)
03.08.2016 03:29 14,0 C 14,0 C 95 % 1017,9 hPa 0,0 mm 0,0 km/h (0 Bft) SO 134 0 min 0,000 mm 0,0 UV-I 0 W/m 13,2 C 0,0 km/h (0 Bft)
03.08.2016 03:30 13,9 C 14,0 C 96 % 1017,8 hPa 0,0 mm 0,0 km/h (0 Bft) SO 134 0 min 0,000 mm 0,0 UV-I 0 W/m 13,3 C 0,0 km/h (0 Bft)
03.08.2016 03:31 13,9 C 14,0 C 95 % 1017,8 hPa 0,0 mm 0,0 km/h (0 Bft) SO 134 0 min 0,000 mm 0,0 UV-I 0 W/m 13,1 C 0,0 km/h (0 Bft)
03.08.2016 03:32 13,9 C 13,9 C 95 % 1017,8 hPa 0,0 mm 0,0 km/h (0 Bft) SO 134 0 min 0,000 mm 0,0 UV-I 0 W/m 13,1 C 0,0 km/h (0 Bft)
03.08.2016 03:33 13,8 C 13,9 C 95 % 1017,8 hPa 0,0 mm 0,0 km/h (0 Bft) SO 134 0 min 0,000 mm 0,0 UV-I 0 W/m 13,0 C 0,0 km/h (0 Bft)
03.08.2016 03:34 13,8 C 13,8 C 95 % 1017,8 hPa 0,0 mm 0,0 km/h (0 Bft) SO 134 0 min 0,000 mm 0,0 UV-I 0 W/m 13,0 C 0,0 km/h (0 Bft)
03.08.2016 03:35 13,8 C 13,8 C 95 % 1017,8 hPa 0,0 mm 0,0 km/h (0 Bft) SO 134 0 min 0,000 mm 0,0 UV-I 0 W/m 13,0 C 0,0 km/h (0 Bft)
03.08.2016 03:36 13,8 C 13,8 C 95 % 1017,8 hPa 0,0 mm 0,0 km/h (0 Bft) SW 221 0 min 0,000 mm 0,0 UV-I 0 W/m 13,0 C 0,0 km/h (0 Bft)
03.08.2016 03:37 13,8 C 13,8 C 95 % 1017,8 hPa 0,0 mm 0,0 km/h (0 Bft) W-SW 254 0 min 0,000 mm 0,0 UV-I 0 W/m 13,0 C 0,0 km/h (0 Bft)
03.08.2016 03:38 13,7 C 13,8 C 95 % 1017,8 hPa 0,0 mm 0,0 km/h (0 Bft) W-SW 254 0 min 0,000 mm 0,0 UV-I 0 W/m 12,9 C 0,0 km/h (0 Bft)
03.08.2016 03:39 13,8 C 13,8 C 95 % 1017,8 hPa 0,0 mm 0,0 km/h (0 Bft) SW 232 0 min 0,000 mm 0,0 UV-I 0 W/m 13,0 C 0,0 km/h (0 Bft)
03.08.2016 03:40 13,8 C 13,8 C 95 % 1017,8 hPa 0,0 mm 0,0 km/h (0 Bft) SW 232 0 min 0,000 mm 0,0 UV-I 0 W/m 13,0 C 0,0 km/h (0 Bft)
03.08.2016 03:41 13,8 C 13,8 C 95 % 1017,8 hPa 0,0 mm 0,0 km/h (0 Bft) SW 232 0 min 0,000 mm 0,0 UV-I 0 W/m 13,0 C 0,0 km/h (0 Bft)
03.08.2016 03:42 13,8 C 13,8 C 95 % 1017,8 hPa 0,0 mm 0,0 km/h (0 Bft) SW 232 0 min 0,000 mm 0,0 UV-I 0 W/m 13,0 C 0,0 km/h (0 Bft)
03.08.2016 03:43 13,8 C 13,8 C 95 % 1017,9 hPa 0,0 mm 0,0 km/h (0 Bft) SW 232 0 min 0,000 mm 0,0 UV-I 0 W/m 13,0 C 0,0 km/h (0 Bft)
03.08.2016 03:44 13,8 C 13,8 C 95 % 1017,9 hPa 0,0 mm 0,0 km/h (0 Bft) SW 232 0 min 0,000 mm 0,0 UV-I 0 W/m 13,0 C 0,0 km/h (0 Bft)
03.08.2016 03:45 13,8 C 13,8 C 95 % 1017,9 hPa 0,0 mm 0,0 km/h (0 Bft) SW 232 0 min 0,000 mm 0,0 UV-I 0 W/m 13,0 C 0,0 km/h (0 Bft)
03.08.2016 03:46 13,8 C 13,8 C 95 % 1017,9 hPa 0,0 mm 0,0 km/h (0 Bft) SW 232 0 min 0,000 mm 0,0 UV-I 0 W/m 13,0 C 0,0 km/h (0 Bft)
03.08.2016 03:47 13,8 C 13,8 C 96 % 1017,9 hPa 0,0 mm 0,0 km/h (0 Bft) SW 232 0 min 0,000 mm 0,0 UV-I 0 W/m 13,2 C 0,0 km/h (0 Bft)
03.08.2016 03:48 13,8 C 13,8 C 96 % 1017,9 hPa 0,0 mm 0,0 km/h (0 Bft) SW 232 0 min 0,000 mm 0,0 UV-I 0 W/m 13,2 C 0,0 km/h (0 Bft)
03.08.2016 03:49 13,8 C 13,8 C 96 % 1017,9 hPa 0,0 mm 0,0 km/h (0 Bft) SW 232 0 min 0,000 mm 0,0 UV-I 0 W/m 13,2 C 0,0 km/h (0 Bft)
03.08.2016 03:50 13,9 C 13,9 C 96 % 1017,9 hPa 0,0 mm 0,0 km/h (0 Bft) SW 232 0 min 0,000 mm 0,0 UV-I 0 W/m 13,3 C 0,0 km/h (0 Bft)
03.08.2016 03:51 13,9 C 13,9 C 96 % 1017,9 hPa 0,0 mm 0,0 km/h (0 Bft) SW 232 0 min 0,000 mm 0,0 UV-I 0 W/m 13,3 C 0,0 km/h (0 Bft)
03.08.2016 03:52 13,9 C 13,9 C 96 % 1017,9 hPa 0,0 mm 0,0 km/h (0 Bft) SW 232 0 min 0,000 mm 0,0 UV-I 0 W/m 13,3 C 0,0 km/h (0 Bft)
03.08.2016 03:53 13,9 C 13,9 C 96 % 1017,9 hPa 0,0 mm 0,0 km/h (0 Bft) SW 232 0 min 0,000 mm 0,0 UV-I 0 W/m 13,3 C 0,0 km/h (0 Bft)
03.08.2016 03:54 13,9 C 13,9 C 96 % 1017,8 hPa 0,0 mm 0,0 km/h (0 Bft) SW 232 0 min 0,000 mm 0,0 UV-I 0 W/m 13,3 C 0,0 km/h (0 Bft)
03.08.2016 03:55 13,9 C 13,9 C 96 % 1017,9 hPa 0,0 mm 0,0 km/h (0 Bft) SW 232 0 min 0,000 mm 0,0 UV-I 0 W/m 13,3 C 0,0 km/h (0 Bft)
03.08.2016 03:56 13,9 C 13,9 C 96 % 1017,8 hPa 0,0 mm 0,0 km/h (0 Bft) SW 228 0 min 0,000 mm 0,0 UV-I 0 W/m 13,3 C 0,0 km/h (0 Bft)
03.08.2016 03:57 13,9 C 13,9 C 96 % 1017,8 hPa 0,0 mm 0,0 km/h (0 Bft) SW 228 0 min 0,000 mm 0,0 UV-I 0 W/m 13,3 C 0,0 km/h (0 Bft)
03.08.2016 03:58 13,9 C 13,9 C 96 % 1017,8 hPa 0,0 mm 0,0 km/h (0 Bft) SW 228 0 min 0,000 mm 0,0 UV-I 0 W/m 13,3 C 0,0 km/h (0 Bft)
03.08.2016 03:59 13,9 C 13,9 C 96 % 1017,7 hPa 0,0 mm 0,0 km/h (0 Bft) SW 228 0 min 0,000 mm 0,0 UV-I 0 W/m 13,3 C 0,0 km/h (0 Bft)
03.08.2016 04:00 13,9 C 13,9 C 95 % 1017,8 hPa 0,0 mm 0,0 km/h (0 Bft) SW 228 0 min 0,000 mm 0,0 UV-I 0 W/m 13,1 C 0,0 km/h (0 Bft)
03.08.2016 04:01 13,9 C 13,9 C 95 % 1017,8 hPa 0,0 mm 0,0 km/h (0 Bft) SW 228 0 min 0,000 mm 0,0 UV-I 0 W/m 13,1 C 0,0 km/h (0 Bft)
03.08.2016 04:02 13,8 C 13,9 C 95 % 1017,7 hPa 0,0 mm 0,0 km/h (0 Bft) SW 228 0 min 0,000 mm 0,0 UV-I 0 W/m 13,0 C 0,0 km/h (0 Bft)
03.08.2016 04:03 13,8 C 13,9 C 95 % 1017,7 hPa 0,0 mm 0,0 km/h (0 Bft) SW 228 0 min 0,000 mm 0,0 UV-I 0 W/m 13,0 C 0,0 km/h (0 Bft)
03.08.2016 04:04 13,8 C 13,9 C 95 % 1017,7 hPa 0,0 mm 0,0 km/h (0 Bft) SW 228 0 min 0,000 mm 0,0 UV-I 0 W/m 13,0 C 0,0 km/h (0 Bft)
03.08.2016 04:05 13,8 C 13,9 C 95 % 1017,7 hPa 0,0 mm 0,0 km/h (0 Bft) SW 228 0 min 0,000 mm 0,0 UV-I 0 W/m 13,0 C 0,0 km/h (0 Bft)
03.08.2016 04:06 13,8 C 13,8 C 95 % 1017,7 hPa 0,0 mm 0,0 km/h (0 Bft) SW 228 0 min 0,000 mm 0,0 UV-I 0 W/m 13,0 C 0,0 km/h (0 Bft)
03.08.2016 04:07 13,8 C 13,8 C 95 % 1017,7 hPa 0,0 mm 0,0 km/h (0 Bft) SW 228 0 min 0,000 mm 0,0 UV-I 0 W/m 13,0 C 0,0 km/h (0 Bft)
03.08.2016 04:08 13,8 C 13,8 C 95 % 1017,7 hPa 0,0 mm 0,0 km/h (0 Bft) SW 228 0 min 0,000 mm 0,0 UV-I 0 W/m 13,0 C 0,0 km/h (0 Bft)
03.08.2016 04:09 13,8 C 13,8 C 95 % 1017,7 hPa 0,0 mm 0,0 km/h (0 Bft) SW 228 0 min 0,000 mm 0,0 UV-I 0 W/m 13,0 C 0,0 km/h (0 Bft)
03.08.2016 04:10 13,8 C 13,8 C 95 % 1017,7 hPa 0,0 mm 0,0 km/h (0 Bft) W 280 0 min 0,000 mm 0,0 UV-I 0 W/m 13,0 C 0,0 km/h (0 Bft)
03.08.2016 04:11 13,8 C 13,8 C 95 % 1017,7 hPa 0,0 mm 0,0 km/h (0 Bft) W 280 0 min 0,000 mm 0,0 UV-I 0 W/m 13,0 C 0,0 km/h (0 Bft)
03.08.2016 04:12 13,8 C 13,8 C 95 % 1017,7 hPa 0,0 mm 0,0 km/h (0 Bft) W 280 0 min 0,000 mm 0,0 UV-I 0 W/m 13,0 C 0,0 km/h (0 Bft)
03.08.2016 04:13 13,8 C 13,8 C 95 % 1017,7 hPa 0,0 mm 0,0 km/h (0 Bft) W 280 0 min 0,000 mm 0,0 UV-I 0 W/m 13,0 C 0,0 km/h (0 Bft)
03.08.2016 04:14 13,8 C 13,8 C 95 % 1017,7 hPa 0,0 mm 0,0 km/h (0 Bft) W 280 0 min 0,000 mm 0,0 UV-I 0 W/m 13,0 C 0,0 km/h (0 Bft)
03.08.2016 04:15 13,8 C 13,8 C 95 % 1017,7 hPa 0,0 mm 0,0 km/h (0 Bft) W 268 0 min 0,000 mm 0,0 UV-I 0 W/m 13,0 C 0,0 km/h (0 Bft)
03.08.2016 04:16 13,8 C 13,8 C 95 % 1017,7 hPa 0,0 mm 0,0 km/h (0 Bft) SW 231 0 min 0,000 mm 0,0 UV-I 0 W/m 13,0 C 0,0 km/h (0 Bft)
03.08.2016 04:17 13,9 C 13,9 C 95 % 1017,7 hPa 0,0 mm 0,0 km/h (0 Bft) S-SO 147 0 min 0,000 mm 0,0 UV-I 0 W/m 13,1 C 0,0 km/h (0 Bft)
03.08.2016 04:18 13,9 C 13,9 C 95 % 1017,7 hPa 0,0 mm 0,0 km/h (0 Bft) SO 134 0 min 0,000 mm 0,0 UV-I 0 W/m 13,1 C 0,0 km/h (0 Bft)
03.08.2016 04:19 13,9 C 13,9 C 95 % 1017,7 hPa 0,0 mm 0,0 km/h (0 Bft) SO 134 0 min 0,000 mm 0,0 UV-I 0 W/m 13,1 C 0,0 km/h (0 Bft)
03.08.2016 04:20 13,8 C 13,9 C 95 % 1017,7 hPa 0,0 mm 0,0 km/h (0 Bft) SO 132 0 min 0,000 mm 0,0 UV-I 0 W/m 13,0 C 0,0 km/h (0 Bft)
03.08.2016 04:21 13,8 C 13,8 C 95 % 1017,7 hPa 0,0 mm 0,0 km/h (0 Bft) SO 132 0 min 0,000 mm 0,0 UV-I 0 W/m 13,0 C 0,0 km/h (0 Bft)
03.08.2016 04:22 13,8 C 13,8 C 95 % 1017,7 hPa 0,0 mm 0,0 km/h (0 Bft) SO 132 0 min 0,000 mm 0,0 UV-I 0 W/m 13,0 C 0,0 km/h (0 Bft)
03.08.2016 04:23 13,8 C 13,8 C 95 % 1017,6 hPa 0,0 mm 0,0 km/h (0 Bft) SO 132 0 min 0,000 mm 0,0 UV-I 0 W/m 13,0 C 0,0 km/h (0 Bft)
03.08.2016 04:24 13,8 C 13,8 C 95 % 1017,6 hPa 0,0 mm 0,0 km/h (0 Bft) SO 132 0 min 0,000 mm 0,0 UV-I 0 W/m 13,0 C 0,0 km/h (0 Bft)
03.08.2016 04:25 13,8 C 13,8 C 95 % 1017,6 hPa 0,0 mm 0,0 km/h (0 Bft) SO 132 0 min 0,000 mm 0,0 UV-I 0 W/m 13,0 C 0,0 km/h (0 Bft)
03.08.2016 04:26 13,8 C 13,8 C 95 % 1017,6 hPa 0,0 mm 0,0 km/h (0 Bft) SO 132 0 min 0,000 mm 0,0 UV-I 0 W/m 13,0 C 0,0 km/h (0 Bft)
03.08.2016 04:27 13,8 C 13,8 C 96 % 1017,6 hPa 0,0 mm 0,0 km/h (0 Bft) SO 132 0 min 0,000 mm 0,0 UV-I 0 W/m 13,2 C 0,0 km/h (0 Bft)
03.08.2016 04:28 13,8 C 13,8 C 96 % 1017,6 hPa 0,0 mm 0,0 km/h (0 Bft) SO 132 0 min 0,000 mm 0,0 UV-I 0 W/m 13,2 C 0,0 km/h (0 Bft)
03.08.2016 04:29 13,8 C 13,8 C 95 % 1017,5 hPa 0,0 mm 0,0 km/h (0 Bft) SO 132 0 min 0,000 mm 0,0 UV-I 0 W/m 13,0 C 0,0 km/h (0 Bft)
03.08.2016 04:30 13,8 C 13,8 C 96 % 1017,6 hPa 0,0 mm 0,0 km/h (0 Bft) SO 132 0 min 0,000 mm 0,0 UV-I 0 W/m 13,2 C 0,0 km/h (0 Bft)
03.08.2016 04:31 13,8 C 13,8 C 96 % 1017,5 hPa 0,0 mm 0,0 km/h (0 Bft) SO 132 0 min 0,000 mm 0,0 UV-I 0 W/m 13,2 C 0,0 km/h (0 Bft)
03.08.2016 04:32 13,8 C 13,8 C 96 % 1017,5 hPa 0,0 mm 0,0 km/h (0 Bft) SO 132 0 min 0,000 mm 0,0 UV-I 0 W/m 13,2 C 0,0 km/h (0 Bft)
03.08.2016 04:33 13,8 C 13,8 C 95 % 1017,5 hPa 0,0 mm 0,0 km/h (0 Bft) SO 132 0 min 0,000 mm 0,0 UV-I 0 W/m 13,0 C 0,0 km/h (0 Bft)
03.08.2016 04:34 13,8 C 13,8 C 95 % 1017,5 hPa 0,0 mm 0,0 km/h (0 Bft) SO 132 0 min 0,000 mm 0,0 UV-I 0 W/m 13,0 C 0,0 km/h (0 Bft)
03.08.2016 04:35 13,8 C 13,8 C 95 % 1017,6 hPa 0,0 mm 0,0 km/h (0 Bft) SO 132 0 min 0,000 mm 0,0 UV-I 0 W/m 13,0 C 0,0 km/h (0 Bft)
03.08.2016 04:36 13,8 C 13,8 C 95 % 1017,5 hPa 0,0 mm 0,0 km/h (0 Bft) SO 133 0 min 0,000 mm 0,0 UV-I 0 W/m 13,0 C 0,0 km/h (0 Bft)
03.08.2016 04:37 13,8 C 13,8 C 95 % 1017,5 hPa 0,0 mm 0,0 km/h (0 Bft) SO 134 0 min 0,000 mm 0,0 UV-I 0 W/m 13,0 C 0,0 km/h (0 Bft)
03.08.2016 04:38 13,8 C 13,8 C 95 % 1017,5 hPa 0,0 mm 0,0 km/h (0 Bft) SO 134 0 min 0,000 mm 0,0 UV-I 0 W/m 13,0 C 0,0 km/h (0 Bft)
03.08.2016 04:39 13,7 C 13,8 C 95 % 1017,5 hPa 0,0 mm 0,0 km/h (0 Bft) SO 134 0 min 0,000 mm 0,0 UV-I 0 W/m 12,9 C 0,0 km/h (0 Bft)
03.08.2016 04:40 13,7 C 13,7 C 95 % 1017,5 hPa 0,0 mm 0,0 km/h (0 Bft) SO 134 0 min 0,000 mm 0,0 UV-I 0 W/m 12,9 C 0,0 km/h (0 Bft)
03.08.2016 04:41 13,7 C 13,7 C 95 % 1017,4 hPa 0,0 mm 0,0 km/h (0 Bft) SO 134 0 min 0,000 mm 0,0 UV-I 0 W/m 12,9 C 0,0 km/h (0 Bft)
03.08.2016 04:42 13,7 C 13,7 C 95 % 1017,5 hPa 0,0 mm 0,0 km/h (0 Bft) SO 134 0 min 0,000 mm 0,0 UV-I 0 W/m 12,9 C 0,0 km/h (0 Bft)
03.08.2016 04:43 13,7 C 13,7 C 95 % 1017,5 hPa 0,0 mm 0,0 km/h (0 Bft) SO 134 0 min 0,000 mm 0,0 UV-I 0 W/m 12,9 C 0,0 km/h (0 Bft)
03.08.2016 04:44 13,7 C 13,7 C 95 % 1017,5 hPa 0,0 mm 0,0 km/h (0 Bft) SO 134 0 min 0,000 mm 0,0 UV-I 0 W/m 12,9 C 0,0 km/h (0 Bft)
03.08.2016 04:45 13,6 C 13,7 C 95 % 1017,4 hPa 0,0 mm 0,0 km/h (0 Bft) SO 134 0 min 0,000 mm 0,0 UV-I 0 W/m 12,8 C 0,0 km/h (0 Bft)
03.08.2016 04:46 13,6 C 13,6 C 95 % 1017,5 hPa 0,0 mm 0,0 km/h (0 Bft) SO 134 0 min 0,000 mm 0,0 UV-I 0 W/m 12,8 C 0,0 km/h (0 Bft)
03.08.2016 04:47 13,6 C 13,6 C 95 % 1017,5 hPa 0,0 mm 0,0 km/h (0 Bft) SO 134 0 min 0,000 mm 0,0 UV-I 0 W/m 12,8 C 0,0 km/h (0 Bft)
03.08.2016 04:48 13,6 C 13,6 C 95 % 1017,4 hPa 0,0 mm 0,0 km/h (0 Bft) SO 134 0 min 0,000 mm 0,0 UV-I 0 W/m 12,8 C 0,0 km/h (0 Bft)
03.08.2016 04:49 13,6 C 13,6 C 95 % 1017,4 hPa 0,0 mm 0,0 km/h (0 Bft) SO 134 0 min 0,000 mm 0,0 UV-I 0 W/m 12,8 C 0,0 km/h (0 Bft)
03.08.2016 04:50 13,6 C 13,6 C 95 % 1017,4 hPa 0,0 mm 0,0 km/h (0 Bft) SO 134 0 min 0,000 mm 0,0 UV-I 0 W/m 12,8 C 0,0 km/h (0 Bft)
03.08.2016 04:51 13,6 C 13,6 C 95 % 1017,4 hPa 0,0 mm 0,0 km/h (0 Bft) SO 134 0 min 0,000 mm 0,0 UV-I 0 W/m 12,8 C 0,0 km/h (0 Bft)
03.08.2016 04:52 13,6 C 13,6 C 95 % 1017,4 hPa 0,0 mm 0,0 km/h (0 Bft) SO 134 0 min 0,000 mm 0,0 UV-I 0 W/m 12,8 C 0,0 km/h (0 Bft)
03.08.2016 04:53 13,6 C 13,6 C 95 % 1017,4 hPa 0,0 mm 0,0 km/h (0 Bft) SO 134 0 min 0,000 mm 0,0 UV-I 0 W/m 12,8 C 0,0 km/h (0 Bft)
03.08.2016 04:54 13,6 C 13,6 C 95 % 1017,4 hPa 0,0 mm 0,0 km/h (0 Bft) SO 134 0 min 0,000 mm 0,0 UV-I 0 W/m 12,8 C 0,0 km/h (0 Bft)
03.08.2016 04:55 13,5 C 13,6 C 95 % 1017,4 hPa 0,0 mm 0,0 km/h (0 Bft) SO 134 0 min 0,000 mm 0,0 UV-I 0 W/m 12,7 C 0,0 km/h (0 Bft)
03.08.2016 04:56 13,5 C 13,5 C 95 % 1017,4 hPa 0,0 mm 0,0 km/h (0 Bft) SO 134 0 min 0,000 mm 0,0 UV-I 0 W/m 12,7 C 0,0 km/h (0 Bft)
03.08.2016 04:57 13,4 C 13,5 C 95 % 1017,4 hPa 0,0 mm 0,0 km/h (0 Bft) SO 134 0 min 0,000 mm 0,0 UV-I 0 W/m 12,6 C 0,0 km/h (0 Bft)
03.08.2016 04:58 13,4 C 13,5 C 95 % 1017,3 hPa 0,0 mm 0,0 km/h (0 Bft) SO 134 0 min 0,000 mm 0,0 UV-I 0 W/m 12,6 C 0,0 km/h (0 Bft)
03.08.2016 04:59 13,4 C 13,5 C 95 % 1017,3 hPa 0,0 mm 0,0 km/h (0 Bft) SO 134 0 min 0,000 mm 0,0 UV-I 0 W/m 12,6 C 0,0 km/h (0 Bft)
03.08.2016 05:00 13,4 C 13,4 C 95 % 1017,3 hPa 0,0 mm 0,0 km/h (0 Bft) SO 134 0 min 0,000 mm 0,0 UV-I 0 W/m 12,6 C 0,0 km/h (0 Bft)
03.08.2016 05:01 13,4 C 13,4 C 95 % 1017,3 hPa 0,0 mm 0,0 km/h (0 Bft) SO 135 0 min 0,000 mm 0,0 UV-I 0 W/m 12,6 C 0,0 km/h (0 Bft)
03.08.2016 05:02 13,3 C 13,4 C 95 % 1017,3 hPa 0,0 mm 0,0 km/h (0 Bft) SO 135 0 min 0,000 mm 0,0 UV-I 0 W/m 12,5 C 0,0 km/h (0 Bft)
03.08.2016 05:03 13,3 C 13,3 C 95 % 1017,3 hPa 0,0 mm 0,0 km/h (0 Bft) SO 135 0 min 0,000 mm 0,0 UV-I 0 W/m 12,5 C 0,0 km/h (0 Bft)
03.08.2016 05:04 13,3 C 13,3 C 95 % 1017,3 hPa 0,0 mm 0,0 km/h (0 Bft) SO 135 0 min 0,000 mm 0,0 UV-I 0 W/m 12,5 C 0,0 km/h (0 Bft)
03.08.2016 05:05 13,4 C 13,4 C 96 % 1017,3 hPa 0,0 mm 0,0 km/h (0 Bft) SO 135 0 min 0,000 mm 0,0 UV-I 0 W/m 12,8 C 0,0 km/h (0 Bft)
03.08.2016 05:06 13,3 C 13,4 C 95 % 1017,2 hPa 0,0 mm 0,0 km/h (0 Bft) SW 219 0 min 0,000 mm 0,0 UV-I 0 W/m 12,5 C 0,0 km/h (0 Bft)
03.08.2016 05:07 13,3 C 13,3 C 95 % 1017,2 hPa 0,0 mm 0,0 km/h (0 Bft) SW 219 0 min 0,000 mm 0,0 UV-I 0 W/m 12,5 C 0,0 km/h (0 Bft)
03.08.2016 05:08 13,4 C 13,4 C 96 % 1017,2 hPa 0,0 mm 0,0 km/h (0 Bft) SW 219 0 min 0,000 mm 0,0 UV-I 0 W/m 12,8 C 0,0 km/h (0 Bft)
03.08.2016 05:09 13,4 C 13,4 C 96 % 1017,2 hPa 0,0 mm 0,0 km/h (0 Bft) SW 219 0 min 0,000 mm 0,0 UV-I 0 W/m 12,8 C 0,0 km/h (0 Bft)
03.08.2016 05:10 13,3 C 13,4 C 96 % 1017,2 hPa 0,0 mm 0,0 km/h (0 Bft) SW 225 0 min 0,000 mm 0,0 UV-I 0 W/m 12,7 C 0,0 km/h (0 Bft)
03.08.2016 05:11 13,3 C 13,3 C 96 % 1017,2 hPa 0,0 mm 0,0 km/h (0 Bft) O-SO 105 0 min 0,000 mm 0,0 UV-I 0 W/m 12,7 C 0,0 km/h (0 Bft)
03.08.2016 05:12 13,3 C 13,3 C 96 % 1017,2 hPa 0,0 mm 0,0 km/h (0 Bft) O-SO 105 0 min 0,000 mm 0,0 UV-I 0 W/m 12,7 C 0,0 km/h (0 Bft)
03.08.2016 05:13 13,3 C 13,3 C 96 % 1017,2 hPa 0,0 mm 0,0 km/h (0 Bft) O-SO 105 0 min 0,000 mm 0,0 UV-I 0 W/m 12,7 C 0,0 km/h (0 Bft)
03.08.2016 05:14 13,2 C 13,3 C 96 % 1017,1 hPa 0,0 mm 0,5 km/h (0 Bft) O 98 0 min 0,000 mm 0,0 UV-I 0 W/m 12,6 C 3,2 km/h (1 Bft)
03.08.2016 05:15 13,2 C 13,2 C 95 % 1017,1 hPa 0,0 mm 1,3 km/h (1 Bft) O 101 0 min 0,000 mm 0,0 UV-I 0 W/m 12,4 C 3,2 km/h (1 Bft)
03.08.2016 05:16 13,2 C 13,2 C 96 % 1017,1 hPa 0,0 mm 0,0 km/h (0 Bft) O 101 0 min 0,000 mm 0,0 UV-I 0 W/m 12,6 C 0,0 km/h (0 Bft)
03.08.2016 05:17 13,2 C 13,2 C 96 % 1017,2 hPa 0,0 mm 0,5 km/h (0 Bft) O 98 0 min 0,000 mm 0,0 UV-I 0 W/m 12,6 C 3,2 km/h (1 Bft)
03.08.2016 05:18 13,2 C 13,2 C 96 % 1017,2 hPa 0,0 mm 0,1 km/h (0 Bft) O 98 0 min 0,000 mm 0,0 UV-I 0 W/m 12,6 C 1,6 km/h (1 Bft)
03.08.2016 05:19 13,2 C 13,3 C 96 % 1017,1 hPa 0,0 mm 0,0 km/h (0 Bft) O 98 0 min 0,000 mm 0,0 UV-I 0 W/m 12,6 C 0,0 km/h (0 Bft)
03.08.2016 05:20 13,2 C 13,2 C 96 % 1017,1 hPa 0,0 mm 0,1 km/h (0 Bft) O 98 0 min 0,000 mm 0,0 UV-I 0 W/m 12,6 C 1,6 km/h (1 Bft)
03.08.2016 05:21 13,2 C 13,2 C 96 % 1017,1 hPa 0,0 mm 0,7 km/h (0 Bft) O 82 0 min 0,000 mm 0,0 UV-I 0 W/m 12,6 C 3,2 km/h (1 Bft)
03.08.2016 05:22 13,2 C 13,2 C 96 % 1017,1 hPa 0,0 mm 1,0 km/h (0 Bft) O 83 0 min 0,000 mm 0,0 UV-I 0 W/m 12,6 C 3,2 km/h (1 Bft)
03.08.2016 05:23 13,1 C 13,2 C 96 % 1017,1 hPa 0,0 mm 0,2 km/h (0 Bft) O 83 0 min 0,000 mm 0,0 UV-I 0 W/m 12,5 C 1,6 km/h (1 Bft)
03.08.2016 05:24 13,1 C 13,2 C 96 % 1017,0 hPa 0,0 mm 0,9 km/h (0 Bft) W-NW 300 0 min 0,000 mm 0,0 UV-I 0 W/m 12,5 C 3,2 km/h (1 Bft)
03.08.2016 05:25 13,1 C 13,1 C 96 % 1017,0 hPa 0,0 mm 0,2 km/h (0 Bft) W-NW 300 0 min 0,000 mm 0,0 UV-I 0 W/m 12,5 C 1,6 km/h (1 Bft)
03.08.2016 05:26 13,1 C 13,1 C 96 % 1017,1 hPa 0,0 mm 0,5 km/h (0 Bft) W-NW 300 0 min 0,000 mm 0,0 UV-I 0 W/m 12,5 C 1,6 km/h (1 Bft)
03.08.2016 05:27 13,1 C 13,1 C 96 % 1017,0 hPa 0,0 mm 0,3 km/h (0 Bft) W-NW 300 0 min 0,000 mm 0,0 UV-I 0 W/m 12,5 C 1,6 km/h (1 Bft)
03.08.2016 05:28 13,1 C 13,1 C 96 % 1017,0 hPa 0,0 mm 0,6 km/h (0 Bft) W-NW 300 0 min 0,000 mm 0,0 UV-I 0 W/m 12,5 C 1,6 km/h (1 Bft)
03.08.2016 05:29 13,1 C 13,1 C 96 % 1017,0 hPa 0,0 mm 0,0 km/h (0 Bft) W-NW 300 0 min 0,000 mm 0,0 UV-I 0 W/m 12,5 C 0,0 km/h (0 Bft)
03.08.2016 05:30 13,2 C 13,2 C 96 % 1017,0 hPa 0,0 mm 0,3 km/h (0 Bft) W-NW 300 0 min 0,000 mm 0,0 UV-I 0 W/m 12,6 C 1,6 km/h (1 Bft)
03.08.2016 05:31 13,1 C 13,2 C 96 % 1017,0 hPa 0,0 mm 0,1 km/h (0 Bft) W-NW 300 0 min 0,000 mm 0,0 UV-I 0 W/m 12,5 C 1,6 km/h (1 Bft)
03.08.2016 05:32 13,1 C 13,1 C 96 % 1017,0 hPa 0,0 mm 0,0 km/h (0 Bft) W-NW 300 0 min 0,000 mm 0,0 UV-I 0 W/m 12,5 C 0,0 km/h (0 Bft)
03.08.2016 05:33 13,1 C 13,1 C 96 % 1017,0 hPa 0,0 mm 0,0 km/h (0 Bft) W-NW 300 0 min 0,000 mm 0,0 UV-I 0 W/m 12,5 C 0,0 km/h (0 Bft)
03.08.2016 05:34 13,1 C 13,1 C 96 % 1017,0 hPa 0,0 mm 0,0 km/h (0 Bft) W-NW 300 0 min 0,000 mm 0,0 UV-I 0 W/m 12,5 C 0,0 km/h (0 Bft)
03.08.2016 05:35 13,1 C 13,1 C 96 % 1017,0 hPa 0,0 mm 0,0 km/h (0 Bft) W-NW 300 0 min 0,000 mm 0,0 UV-I 0 W/m 12,5 C 0,0 km/h (0 Bft)
03.08.2016 05:36 13,2 C 13,2 C 96 % 1017,0 hPa 0,0 mm 0,0 km/h (0 Bft) W-NW 300 0 min 0,000 mm 0,0 UV-I 0 W/m 12,6 C 0,0 km/h (0 Bft)
03.08.2016 05:37 13,2 C 13,2 C 96 % 1016,9 hPa 0,0 mm 0,0 km/h (0 Bft) W-NW 300 0 min 0,000 mm 0,0 UV-I 0 W/m 12,6 C 0,0 km/h (0 Bft)
03.08.2016 05:38 13,1 C 13,2 C 96 % 1016,9 hPa 0,0 mm 0,0 km/h (0 Bft) W-NW 300 0 min 0,000 mm 0,0 UV-I 0 W/m 12,5 C 0,0 km/h (0 Bft)
03.08.2016 05:39 13,1 C 13,1 C 96 % 1017,0 hPa 0,0 mm 0,0 km/h (0 Bft) W-NW 300 0 min 0,000 mm 0,0 UV-I 0 W/m 12,5 C 0,0 km/h (0 Bft)
03.08.2016 05:40 13,2 C 13,2 C 96 % 1017,0 hPa 0,0 mm 0,3 km/h (0 Bft) W-NW 300 0 min 0,000 mm 0,0 UV-I 0 W/m 12,6 C 3,2 km/h (1 Bft)
03.08.2016 05:41 13,1 C 13,2 C 96 % 1017,0 hPa 0,0 mm 1,1 km/h (1 Bft) W-NW 300 0 min 0,000 mm 0,0 UV-I 0 W/m 12,5 C 1,6 km/h (1 Bft)
03.08.2016 05:42 13,2 C 13,2 C 96 % 1017,0 hPa 0,0 mm 0,1 km/h (0 Bft) W-NW 300 0 min 0,000 mm 0,0 UV-I 0 W/m 12,6 C 1,6 km/h (1 Bft)
03.08.2016 05:43 13,2 C 13,2 C 96 % 1017,0 hPa 0,0 mm 0,6 km/h (0 Bft) W-NW 300 0 min 0,000 mm 0,0 UV-I 0 W/m 12,6 C 1,6 km/h (1 Bft)
03.08.2016 05:44 13,1 C 13,2 C 96 % 1017,0 hPa 0,0 mm 1,9 km/h (1 Bft) W-NW 300 0 min 0,000 mm 0,0 UV-I 0 W/m 12,5 C 3,2 km/h (1 Bft)
03.08.2016 05:45 13,1 C 13,2 C 96 % 1017,0 hPa 0,0 mm 1,6 km/h (1 Bft) W-NW 300 0 min 0,000 mm 0,0 UV-I 0 W/m 12,5 C 3,2 km/h (1 Bft)
03.08.2016 05:46 13,1 C 13,1 C 96 % 1017,0 hPa 0,0 mm 2,1 km/h (1 Bft) W-NW 300 0 min 0,000 mm 0,0 UV-I 0 W/m 12,5 C 4,8 km/h (1 Bft)
03.08.2016 05:47 13,1 C 13,1 C 96 % 1017,0 hPa 0,0 mm 0,4 km/h (0 Bft) W-NW 300 0 min 0,000 mm 0,0 UV-I 0 W/m 12,5 C 1,6 km/h (1 Bft)
03.08.2016 05:48 13,1 C 13,1 C 96 % 1017,0 hPa 0,0 mm 0,7 km/h (0 Bft) W-NW 300 0 min 0,000 mm 0,0 UV-I 0 W/m 12,5 C 1,6 km/h (1 Bft)
03.08.2016 05:49 13,1 C 13,2 C 96 % 1017,0 hPa 0,0 mm 0,2 km/h (0 Bft) W-NW 300 0 min 0,000 mm 0,0 UV-I 0 W/m 12,5 C 1,6 km/h (1 Bft)
03.08.2016 05:50 13,2 C 13,2 C 96 % 1017,0 hPa 0,0 mm 0,3 km/h (0 Bft) W-NW 300 0 min 0,000 mm 0,0 UV-I 0 W/m 12,6 C 1,6 km/h (1 Bft)
03.08.2016 05:51 13,2 C 13,2 C 96 % 1017,0 hPa 0,0 mm 1,1 km/h (1 Bft) W-NW 301 0 min 0,000 mm 0,0 UV-I 0 W/m 12,6 C 3,2 km/h (1 Bft)
03.08.2016 05:52 13,1 C 13,2 C 96 % 1017,0 hPa 0,0 mm 0,9 km/h (0 Bft) W-NW 297 0 min 0,000 mm 0,0 UV-I 0 W/m 12,5 C 1,6 km/h (1 Bft)
03.08.2016 05:53 13,1 C 13,1 C 96 % 1017,0 hPa 0,0 mm 1,4 km/h (1 Bft) W-NW 289 0 min 0,000 mm 0,0 UV-I 0 W/m 12,5 C 3,2 km/h (1 Bft)
03.08.2016 05:54 13,1 C 13,1 C 96 % 1017,0 hPa 0,0 mm 0,9 km/h (0 Bft) W-NW 289 0 min 0,000 mm 0,0 UV-I 0 W/m 12,5 C 1,6 km/h (1 Bft)
03.08.2016 05:55 13,0 C 13,1 C 96 % 1017,0 hPa 0,0 mm 0,4 km/h (0 Bft) N-NW 338 0 min 0,000 mm 0,0 UV-I 0 W/m 12,4 C 3,2 km/h (1 Bft)
03.08.2016 05:56 13,0 C 13,0 C 96 % 1017,0 hPa 0,0 mm 1,3 km/h (1 Bft) N-NO 19 0 min 0,000 mm 0,0 UV-I 0 W/m 12,4 C 4,8 km/h (1 Bft)
03.08.2016 05:57 12,9 C 13,0 C 96 % 1017,0 hPa 0,0 mm 0,5 km/h (0 Bft) N-NO 19 0 min 0,000 mm 0,0 UV-I 0 W/m 12,3 C 1,6 km/h (1 Bft)
03.08.2016 05:58 13,0 C 13,0 C 96 % 1017,0 hPa 0,0 mm 0,8 km/h (0 Bft) N-NO 17 0 min 0,000 mm 0,0 UV-I 0 W/m 12,4 C 3,2 km/h (1 Bft)
03.08.2016 05:59 13,1 C 13,1 C 96 % 1017,0 hPa 0,0 mm 0,4 km/h (0 Bft) N-NO 17 0 min 0,000 mm 0,0 UV-I 0 W/m 12,5 C 1,6 km/h (1 Bft)
03.08.2016 06:00 13,1 C 13,1 C 96 % 1017,0 hPa 0,0 mm 1,9 km/h (1 Bft) N-NO 17 0 min 0,000 mm 0,0 UV-I 5 W/m 12,5 C 3,2 km/h (1 Bft)
03.08.2016 06:01 13,0 C 13,1 C 96 % 1017,0 hPa 0,0 mm 2,6 km/h (1 Bft) NW 322 0 min 0,000 mm 0,0 UV-I 5 W/m 12,4 C 3,2 km/h (1 Bft)
03.08.2016 06:02 13,0 C 13,0 C 96 % 1017,0 hPa 0,0 mm 1,1 km/h (1 Bft) NW 322 0 min 0,000 mm 0,0 UV-I 5 W/m 12,4 C 3,2 km/h (1 Bft)
03.08.2016 06:03 13,0 C 13,0 C 96 % 1017,0 hPa 0,0 mm 0,7 km/h (0 Bft) NW 322 0 min 0,000 mm 0,0 UV-I 5 W/m 12,4 C 3,2 km/h (1 Bft)
03.08.2016 06:04 13,0 C 13,0 C 96 % 1017,0 hPa 0,0 mm 1,6 km/h (1 Bft) NW 322 0 min 0,000 mm 0,0 UV-I 5 W/m 12,4 C 3,2 km/h (1 Bft)
03.08.2016 06:05 13,0 C 13,1 C 96 % 1017,0 hPa 0,0 mm 1,5 km/h (1 Bft) NW 322 0 min 0,000 mm 0,0 UV-I 5 W/m 12,4 C 3,2 km/h (1 Bft)
03.08.2016 06:06 13,0 C 13,1 C 96 % 1017,0 hPa 0,0 mm 0,8 km/h (0 Bft) NW 322 0 min 0,000 mm 0,0 UV-I 7 W/m 12,4 C 3,2 km/h (1 Bft)
03.08.2016 06:07 13,0 C 13,1 C 96 % 1017,0 hPa 0,0 mm 0,7 km/h (0 Bft) NW 322 0 min 0,000 mm 0,0 UV-I 7 W/m 12,4 C 1,6 km/h (1 Bft)
03.08.2016 06:08 13,1 C 13,1 C 96 % 1017,0 hPa 0,0 mm 0,6 km/h (0 Bft) NW 322 0 min 0,000 mm 0,0 UV-I 7 W/m 12,5 C 1,6 km/h (1 Bft)
03.08.2016 06:09 13,1 C 13,1 C 96 % 1017,1 hPa 0,0 mm 0,3 km/h (0 Bft) NW 322 0 min 0,000 mm 0,0 UV-I 7 W/m 12,5 C 1,6 km/h (1 Bft)
03.08.2016 06:10 13,1 C 13,1 C 96 % 1017,1 hPa 0,0 mm 1,1 km/h (1 Bft) N-NW 329 0 min 0,000 mm 0,0 UV-I 7 W/m 12,5 C 3,2 km/h (1 Bft)
03.08.2016 06:11 13,1 C 13,1 C 96 % 1017,1 hPa 0,0 mm 0,0 km/h (0 Bft) N-NW 329 0 min 0,000 mm 0,0 UV-I 7 W/m 12,5 C 0,0 km/h (0 Bft)
03.08.2016 06:12 13,2 C 13,2 C 96 % 1017,1 hPa 0,0 mm 0,1 km/h (0 Bft) N-NW 329 0 min 0,000 mm 0,0 UV-I 9 W/m 12,6 C 1,6 km/h (1 Bft)
03.08.2016 06:13 13,1 C 13,2 C 96 % 1017,1 hPa 0,0 mm 0,1 km/h (0 Bft) N-NW 329 0 min 0,000 mm 0,0 UV-I 11 W/m 12,5 C 1,6 km/h (1 Bft)
03.08.2016 06:14 13,2 C 13,2 C 96 % 1017,1 hPa 0,0 mm 0,0 km/h (0 Bft) N-NW 329 0 min 0,000 mm 0,0 UV-I 11 W/m 12,6 C 0,0 km/h (0 Bft)
03.08.2016 06:15 13,2 C 13,2 C 96 % 1017,2 hPa 0,0 mm 0,3 km/h (0 Bft) N-NW 329 0 min 0,000 mm 0,0 UV-I 11 W/m 12,6 C 1,6 km/h (1 Bft)
03.08.2016 06:16 13,2 C 13,2 C 96 % 1017,2 hPa 0,0 mm 0,6 km/h (0 Bft) N-NW 329 0 min 0,000 mm 0,0 UV-I 11 W/m 12,6 C 3,2 km/h (1 Bft)
03.08.2016 06:17 13,2 C 13,2 C 96 % 1017,2 hPa 0,0 mm 0,0 km/h (0 Bft) N-NW 329 0 min 0,000 mm 0,0 UV-I 9 W/m 12,6 C 0,0 km/h (0 Bft)
03.08.2016 06:18 13,2 C 13,3 C 96 % 1017,2 hPa 0,0 mm 0,0 km/h (0 Bft) N-NW 329 0 min 0,000 mm 0,0 UV-I 9 W/m 12,6 C 0,0 km/h (0 Bft)
03.08.2016 06:19 13,3 C 13,3 C 96 % 1017,1 hPa 0,0 mm 0,0 km/h (0 Bft) N-NW 329 0 min 0,000 mm 0,0 UV-I 11 W/m 12,7 C 0,0 km/h (0 Bft)
03.08.2016 06:20 13,3 C 13,3 C 96 % 1017,1 hPa 0,0 mm 0,0 km/h (0 Bft) N-NW 329 0 min 0,000 mm 0,0 UV-I 11 W/m 12,7 C 0,0 km/h (0 Bft)
03.08.2016 06:21 13,3 C 13,3 C 96 % 1017,1 hPa 0,0 mm 0,0 km/h (0 Bft) N-NW 329 0 min 0,000 mm 0,0 UV-I 11 W/m 12,7 C 0,0 km/h (0 Bft)
03.08.2016 06:22 13,3 C 13,3 C 96 % 1017,1 hPa 0,0 mm 0,0 km/h (0 Bft) NW 317 0 min 0,000 mm 0,0 UV-I 12 W/m 12,7 C 0,0 km/h (0 Bft)
03.08.2016 06:23 13,3 C 13,3 C 96 % 1017,1 hPa 0,0 mm 0,0 km/h (0 Bft) NW 317 0 min 0,000 mm 0,0 UV-I 16 W/m 12,7 C 0,0 km/h (0 Bft)
03.08.2016 06:24 13,3 C 13,3 C 95 % 1017,1 hPa 0,0 mm 0,0 km/h (0 Bft) NW 317 0 min 0,000 mm 0,0 UV-I 18 W/m 12,5 C 0,0 km/h (0 Bft)
03.08.2016 06:25 13,3 C 13,3 C 96 % 1017,1 hPa 0,0 mm 0,0 km/h (0 Bft) NW 317 0 min 0,000 mm 0,0 UV-I 19 W/m 12,7 C 0,0 km/h (0 Bft)
03.08.2016 06:26 13,3 C 13,3 C 96 % 1017,1 hPa 0,0 mm 0,0 km/h (0 Bft) NW 317 0 min 0,000 mm 0,0 UV-I 23 W/m 12,7 C 0,0 km/h (0 Bft)
03.08.2016 06:27 13,3 C 13,3 C 95 % 1017,1 hPa 0,0 mm 0,0 km/h (0 Bft) NW 317 0 min 0,000 mm 0,0 UV-I 23 W/m 12,5 C 0,0 km/h (0 Bft)
03.08.2016 06:28 13,3 C 13,3 C 96 % 1017,1 hPa 0,0 mm 0,0 km/h (0 Bft) NW 317 0 min 0,000 mm 0,0 UV-I 21 W/m 12,7 C 0,0 km/h (0 Bft)
03.08.2016 06:29 13,3 C 13,3 C 96 % 1017,1 hPa 0,0 mm 0,0 km/h (0 Bft) NW 317 0 min 0,000 mm 0,0 UV-I 21 W/m 12,7 C 0,0 km/h (0 Bft)
03.08.2016 06:30 13,4 C 13,4 C 96 % 1017,1 hPa 0,0 mm 0,0 km/h (0 Bft) NW 317 0 min 0,000 mm 0,0 UV-I 21 W/m 12,8 C 0,0 km/h (0 Bft)
03.08.2016 06:31 13,4 C 13,4 C 96 % 1017,1 hPa 0,0 mm 0,0 km/h (0 Bft) NW 317 0 min 0,000 mm 0,0 UV-I 23 W/m 12,8 C 0,0 km/h (0 Bft)
03.08.2016 06:32 13,4 C 13,4 C 96 % 1017,1 hPa 0,0 mm 0,0 km/h (0 Bft) NW 317 0 min 0,000 mm 0,0 UV-I 23 W/m 12,8 C 0,0 km/h (0 Bft)
03.08.2016 06:33 13,3 C 13,4 C 96 % 1017,1 hPa 0,0 mm 0,0 km/h (0 Bft) NW 317 0 min 0,000 mm 0,0 UV-I 23 W/m 12,7 C 0,0 km/h (0 Bft)
03.08.2016 06:34 13,4 C 13,4 C 96 % 1017,1 hPa 0,0 mm 0,0 km/h (0 Bft) NW 317 0 min 0,000 mm 0,0 UV-I 23 W/m 12,8 C 0,0 km/h (0 Bft)
03.08.2016 06:35 13,4 C 13,4 C 96 % 1017,0 hPa 0,0 mm 0,0 km/h (0 Bft) NW 317 0 min 0,000 mm 0,0 UV-I 25 W/m 12,8 C 0,0 km/h (0 Bft)
03.08.2016 06:36 13,4 C 13,4 C 96 % 1017,0 hPa 0,0 mm 0,0 km/h (0 Bft) NW 317 0 min 0,000 mm 0,0 UV-I 26 W/m 12,8 C 0,0 km/h (0 Bft)
03.08.2016 06:37 13,4 C 13,4 C 96 % 1017,0 hPa 0,0 mm 0,0 km/h (0 Bft) N-NW 331 0 min 0,000 mm 0,0 UV-I 26 W/m 12,8 C 0,0 km/h (0 Bft)
03.08.2016 06:38 13,4 C 13,4 C 96 % 1017,1 hPa 0,0 mm 0,1 km/h (0 Bft) NW 322 0 min 0,000 mm 0,0 UV-I 26 W/m 12,8 C 1,6 km/h (1 Bft)
03.08.2016 06:39 13,5 C 13,5 C 96 % 1017,1 hPa 0,0 mm 3,4 km/h (1 Bft) NW 319 0 min 0,000 mm 0,0 UV-I 25 W/m 12,9 C 4,8 km/h (1 Bft)
03.08.2016 06:40 13,5 C 13,5 C 96 % 1017,0 hPa 0,0 mm 1,4 km/h (1 Bft) NW 319 0 min 0,000 mm 0,0 UV-I 28 W/m 12,9 C 3,2 km/h (1 Bft)
03.08.2016 06:41 13,5 C 13,5 C 96 % 1017,0 hPa 0,0 mm 0,8 km/h (0 Bft) NW 319 0 min 0,000 mm 0,0 UV-I 33 W/m 12,9 C 1,6 km/h (1 Bft)
03.08.2016 06:42 13,6 C 13,6 C 96 % 1017,1 hPa 0,0 mm 0,1 km/h (0 Bft) NW 319 0 min 0,000 mm 0,0 UV-I 39 W/m 13,0 C 1,6 km/h (1 Bft)
03.08.2016 06:43 13,6 C 13,6 C 96 % 1017,1 hPa 0,0 mm 0,3 km/h (0 Bft) NW 319 0 min 0,000 mm 0,0 UV-I 40 W/m 13,0 C 1,6 km/h (1 Bft)
03.08.2016 06:44 13,6 C 13,6 C 95 % 1017,1 hPa 0,0 mm 1,0 km/h (0 Bft) NW 319 0 min 0,000 mm 0,0 UV-I 30 W/m 12,8 C 1,6 km/h (1 Bft)
03.08.2016 06:45 13,7 C 13,7 C 96 % 1017,1 hPa 0,0 mm 1,0 km/h (0 Bft) NW 319 0 min 0,000 mm 0,0 UV-I 30 W/m 13,1 C 3,2 km/h (1 Bft)
03.08.2016 06:46 13,7 C 13,7 C 96 % 1017,1 hPa 0,0 mm 0,5 km/h (0 Bft) NW 319 0 min 0,000 mm 0,0 UV-I 28 W/m 13,1 C 1,6 km/h (1 Bft)
03.08.2016 06:47 13,7 C 13,7 C 96 % 1017,1 hPa 0,0 mm 1,0 km/h (0 Bft) NW 319 0 min 0,000 mm 0,0 UV-I 28 W/m 13,1 C 3,2 km/h (1 Bft)
03.08.2016 06:48 13,8 C 13,8 C 96 % 1017,0 hPa 0,0 mm 0,8 km/h (0 Bft) NW 319 0 min 0,000 mm 0,0 UV-I 30 W/m 13,2 C 1,6 km/h (1 Bft)
03.08.2016 06:49 13,8 C 13,8 C 96 % 1017,0 hPa 0,0 mm 1,0 km/h (0 Bft) NW 323 0 min 0,000 mm 0,0 UV-I 30 W/m 13,2 C 1,6 km/h (1 Bft)
03.08.2016 06:50 13,8 C 13,8 C 96 % 1017,1 hPa 0,0 mm 0,1 km/h (0 Bft) NW 323 0 min 0,000 mm 0,0 UV-I 32 W/m 13,2 C 1,6 km/h (1 Bft)
03.08.2016 06:51 13,8 C 13,8 C 96 % 1017,0 hPa 0,0 mm 1,2 km/h (1 Bft) NW 323 0 min 0,000 mm 0,0 UV-I 33 W/m 13,2 C 3,2 km/h (1 Bft)
03.08.2016 06:52 13,8 C 13,8 C 96 % 1017,0 hPa 0,0 mm 0,0 km/h (0 Bft) NW 323 0 min 0,000 mm 0,0 UV-I 39 W/m 13,2 C 0,0 km/h (0 Bft)
03.08.2016 06:53 13,8 C 13,8 C 95 % 1017,0 hPa 0,0 mm 0,0 km/h (0 Bft) NW 323 0 min 0,000 mm 0,0 UV-I 35 W/m 13,0 C 0,0 km/h (0 Bft)
03.08.2016 06:54 13,8 C 13,8 C 95 % 1017,0 hPa 0,0 mm 0,1 km/h (0 Bft) NW 323 0 min 0,000 mm 0,0 UV-I 35 W/m 13,0 C 1,6 km/h (1 Bft)
03.08.2016 06:55 13,8 C 13,8 C 95 % 1017,0 hPa 0,0 mm 0,0 km/h (0 Bft) N-NW 327 0 min 0,000 mm 0,0 UV-I 35 W/m 13,0 C 0,0 km/h (0 Bft)
03.08.2016 06:56 13,8 C 13,8 C 95 % 1017,0 hPa 0,0 mm 0,0 km/h (0 Bft) N-NW 327 0 min 0,000 mm 0,0 UV-I 37 W/m 13,0 C 0,0 km/h (0 Bft)
03.08.2016 06:57 13,8 C 13,8 C 95 % 1016,9 hPa 0,0 mm 0,0 km/h (0 Bft) N-NW 327 0 min 0,000 mm 0,0 UV-I 35 W/m 13,0 C 0,0 km/h (0 Bft)
03.08.2016 06:58 13,8 C 13,8 C 95 % 1016,9 hPa 0,0 mm 0,0 km/h (0 Bft) N-NW 327 1 min 0,000 mm 0,0 UV-I 91 W/m 13,0 C 0,0 km/h (0 Bft)
03.08.2016 06:59 13,8 C 13,8 C 95 % 1016,9 hPa 0,0 mm 0,0 km/h (0 Bft) N-NW 327 1 min 0,000 mm 0,0 UV-I 105 W/m 13,0 C 0,0 km/h (0 Bft)
03.08.2016 07:00 13,8 C 13,8 C 95 % 1017,0 hPa 0,0 mm 0,0 km/h (0 Bft) N-NW 327 1 min 0,000 mm 0,0 UV-I 105 W/m 13,0 C 0,0 km/h (0 Bft)
03.08.2016 07:01 13,9 C 13,9 C 95 % 1016,9 hPa 0,0 mm 0,0 km/h (0 Bft) N-NW 327 1 min 0,000 mm 0,0 UV-I 113 W/m 13,1 C 0,0 km/h (0 Bft)
03.08.2016 07:02 13,9 C 13,9 C 95 % 1016,9 hPa 0,0 mm 0,0 km/h (0 Bft) N-NW 327 1 min 0,000 mm 0,0 UV-I 114 W/m 13,1 C 0,0 km/h (0 Bft)
03.08.2016 07:03 13,8 C 13,9 C 95 % 1016,9 hPa 0,0 mm 0,0 km/h (0 Bft) N-NW 327 1 min 0,000 mm 0,0 UV-I 118 W/m 13,0 C 0,0 km/h (0 Bft)
03.08.2016 07:04 13,8 C 13,8 C 95 % 1016,9 hPa 0,0 mm 0,0 km/h (0 Bft) N-NW 327 1 min 0,000 mm 0,0 UV-I 118 W/m 13,0 C 0,0 km/h (0 Bft)
03.08.2016 07:05 13,8 C 13,8 C 95 % 1016,9 hPa 0,0 mm 0,0 km/h (0 Bft) N-NW 327 1 min 0,000 mm 0,0 UV-I 125 W/m 13,0 C 0,0 km/h (0 Bft)
03.08.2016 07:06 13,8 C 13,8 C 95 % 1016,9 hPa 0,0 mm 0,0 km/h (0 Bft) N-NW 327 1 min 0,000 mm 0,0 UV-I 139 W/m 13,0 C 0,0 km/h (0 Bft)
03.08.2016 07:07 13,8 C 13,8 C 95 % 1016,8 hPa 0,0 mm 0,0 km/h (0 Bft) N-NW 327 1 min 0,000 mm 0,0 UV-I 142 W/m 13,0 C 0,0 km/h (0 Bft)
03.08.2016 07:08 13,8 C 13,8 C 95 % 1016,9 hPa 0,0 mm 0,0 km/h (0 Bft) N-NW 327 1 min 0,000 mm 0,0 UV-I 130 W/m 13,0 C 0,0 km/h (0 Bft)
03.08.2016 07:09 13,8 C 13,8 C 95 % 1016,9 hPa 0,0 mm 0,0 km/h (0 Bft) N-NW 327 1 min 0,000 mm 0,0 UV-I 142 W/m 13,0 C 0,0 km/h (0 Bft)
03.08.2016 07:10 13,8 C 13,8 C 95 % 1016,8 hPa 0,0 mm 0,0 km/h (0 Bft) N-NW 328 1 min 0,000 mm 0,0 UV-I 121 W/m 13,0 C 0,0 km/h (0 Bft)
03.08.2016 07:11 13,8 C 13,8 C 95 % 1016,8 hPa 0,0 mm 0,0 km/h (0 Bft) N-NW 328 1 min 0,000 mm 0,5 UV-I 125 W/m 13,0 C 0,0 km/h (0 Bft)
03.08.2016 07:12 13,8 C 13,8 C 95 % 1016,8 hPa 0,0 mm 0,0 km/h (0 Bft) N-NW 327 1 min 0,000 mm 0,5 UV-I 121 W/m 13,0 C 0,0 km/h (0 Bft)
03.08.2016 07:13 13,9 C 13,9 C 95 % 1016,8 hPa 0,0 mm 0,0 km/h (0 Bft) N-NW 328 1 min 0,000 mm 0,5 UV-I 128 W/m 13,1 C 0,0 km/h (0 Bft)
03.08.2016 07:14 13,9 C 13,9 C 95 % 1016,9 hPa 0,0 mm 0,0 km/h (0 Bft) N-NW 328 1 min 0,000 mm 0,5 UV-I 135 W/m 13,1 C 0,0 km/h (0 Bft)
03.08.2016 07:15 13,9 C 14,0 C 95 % 1016,9 hPa 0,0 mm 0,0 km/h (0 Bft) N-NW 327 1 min 0,000 mm 0,5 UV-I 137 W/m 13,1 C 0,0 km/h (0 Bft)
03.08.2016 07:16 13,9 C 13,9 C 95 % 1016,8 hPa 0,0 mm 0,0 km/h (0 Bft) N-NW 327 1 min 0,000 mm 0,5 UV-I 125 W/m 13,1 C 0,0 km/h (0 Bft)
03.08.2016 07:17 13,9 C 13,9 C 95 % 1016,8 hPa 0,0 mm 2,6 km/h (1 Bft) N 355 1 min 0,000 mm 0,5 UV-I 125 W/m 13,1 C 6,4 km/h (2 Bft)
03.08.2016 07:18 14,0 C 14,0 C 95 % 1016,7 hPa 0,0 mm 0,9 km/h (0 Bft) N 355 1 min 0,000 mm 0,5 UV-I 144 W/m 13,2 C 1,6 km/h (1 Bft)
03.08.2016 07:19 14,1 C 14,1 C 95 % 1016,8 hPa 0,0 mm 0,3 km/h (0 Bft) N 355 1 min 0,000 mm 0,5 UV-I 139 W/m 13,3 C 1,6 km/h (1 Bft)
03.08.2016 07:20 14,1 C 14,1 C 95 % 1016,8 hPa 0,0 mm 0,0 km/h (0 Bft) N 355 1 min 0,000 mm 0,5 UV-I 128 W/m 13,3 C 0,0 km/h (0 Bft)
03.08.2016 07:21 14,2 C 14,2 C 95 % 1016,8 hPa 0,0 mm 0,6 km/h (0 Bft) N 355 0 min 0,000 mm 0,5 UV-I 88 W/m 13,4 C 3,2 km/h (1 Bft)
03.08.2016 07:22 14,2 C 14,2 C 95 % 1016,8 hPa 0,0 mm 0,6 km/h (0 Bft) N 355 0 min 0,000 mm 0,5 UV-I 77 W/m 13,4 C 1,6 km/h (1 Bft)
03.08.2016 07:23 14,2 C 14,2 C 95 % 1016,8 hPa 0,0 mm 0,6 km/h (0 Bft) N 355 0 min 0,000 mm 0,5 UV-I 65 W/m 13,4 C 1,6 km/h (1 Bft)
03.08.2016 07:24 14,2 C 14,2 C 95 % 1016,8 hPa 0,0 mm 0,3 km/h (0 Bft) N 355 0 min 0,000 mm 0,6 UV-I 91 W/m 13,4 C 1,6 km/h (1 Bft)
03.08.2016 07:25 14,2 C 14,2 C 95 % 1016,8 hPa 0,0 mm 1,0 km/h (0 Bft) N 355 0 min 0,000 mm 0,6 UV-I 93 W/m 13,4 C 3,2 km/h (1 Bft)
03.08.2016 07:26 14,3 C 14,3 C 95 % 1016,9 hPa 0,0 mm 1,3 km/h (1 Bft) N 355 0 min 0,000 mm 0,6 UV-I 70 W/m 13,5 C 3,2 km/h (1 Bft)
03.08.2016 07:27 14,3 C 14,3 C 94 % 1016,9 hPa 0,0 mm 0,6 km/h (0 Bft) N 355 0 min 0,000 mm 0,0 UV-I 53 W/m 13,3 C 1,6 km/h (1 Bft)
03.08.2016 07:28 14,4 C 14,4 C 94 % 1016,8 hPa 0,0 mm 1,2 km/h (1 Bft) N 355 0 min 0,000 mm 0,0 UV-I 53 W/m 13,4 C 3,2 km/h (1 Bft)
03.08.2016 07:29 14,4 C 14,4 C 94 % 1016,8 hPa 0,0 mm 0,9 km/h (0 Bft) N 355 0 min 0,000 mm 0,0 UV-I 53 W/m 13,4 C 1,6 km/h (1 Bft)
03.08.2016 07:30 14,4 C 14,4 C 94 % 1016,7 hPa 0,0 mm 0,7 km/h (0 Bft) N 355 0 min 0,000 mm 0,0 UV-I 54 W/m 13,4 C 1,6 km/h (1 Bft)
03.08.2016 07:31 14,4 C 14,4 C 94 % 1016,8 hPa 0,0 mm 0,3 km/h (0 Bft) N 355 0 min 0,000 mm 0,0 UV-I 54 W/m 13,4 C 1,6 km/h (1 Bft)
03.08.2016 07:32 14,4 C 14,4 C 94 % 1016,7 hPa 0,0 mm 0,1 km/h (0 Bft) N 355 0 min 0,000 mm 0,0 UV-I 54 W/m 13,4 C 1,6 km/h (1 Bft)
03.08.2016 07:33 14,6 C 14,6 C 94 % 1016,7 hPa 0,0 mm 0,0 km/h (0 Bft) N 355 0 min 0,000 mm 0,6 UV-I 65 W/m 13,6 C 0,0 km/h (0 Bft)
03.08.2016 07:34 14,7 C 14,7 C 94 % 1016,7 hPa 0,0 mm 0,1 km/h (0 Bft) N 355 0 min 0,000 mm 0,6 UV-I 69 W/m 13,7 C 1,6 km/h (1 Bft)
03.08.2016 07:35 14,8 C 14,8 C 93 % 1016,7 hPa 0,0 mm 0,0 km/h (0 Bft) N 355 0 min 0,000 mm 0,7 UV-I 104 W/m 13,7 C 0,0 km/h (0 Bft)
03.08.2016 07:36 14,9 C 14,9 C 94 % 1016,7 hPa 0,0 mm 0,7 km/h (0 Bft) N 355 1 min 0,000 mm 0,7 UV-I 160 W/m 13,9 C 1,6 km/h (1 Bft)
03.08.2016 07:37 14,9 C 14,9 C 92 % 1016,7 hPa 0,0 mm 0,9 km/h (0 Bft) N 355 1 min 0,000 mm 0,8 UV-I 202 W/m 13,6 C 1,6 km/h (1 Bft)
03.08.2016 07:38 14,9 C 14,9 C 92 % 1016,7 hPa 0,0 mm 0,9 km/h (0 Bft) N 355 1 min 0,000 mm 0,8 UV-I 211 W/m 13,6 C 3,2 km/h (1 Bft)
03.08.2016 07:39 15,1 C 15,1 C 93 % 1016,7 hPa 0,0 mm 1,9 km/h (1 Bft) N 355 1 min 0,000 mm 0,8 UV-I 220 W/m 14,0 C 3,2 km/h (1 Bft)
03.08.2016 07:40 15,1 C 15,2 C 93 % 1016,7 hPa 0,0 mm 0,3 km/h (0 Bft) N 355 1 min 0,000 mm 0,8 UV-I 225 W/m 14,0 C 1,6 km/h (1 Bft)
03.08.2016 07:41 15,2 C 15,2 C 93 % 1016,7 hPa 0,0 mm 0,0 km/h (0 Bft) N 355 1 min 0,000 mm 0,8 UV-I 220 W/m 14,1 C 0,0 km/h (0 Bft)
03.08.2016 07:42 15,3 C 15,3 C 93 % 1016,7 hPa 0,0 mm 0,0 km/h (0 Bft) N 355 1 min 0,000 mm 0,8 UV-I 223 W/m 14,2 C 0,0 km/h (0 Bft)
03.08.2016 07:43 15,3 C 15,3 C 92 % 1016,7 hPa 0,0 mm 0,1 km/h (0 Bft) N 355 1 min 0,000 mm 0,8 UV-I 214 W/m 14,0 C 1,6 km/h (1 Bft)
03.08.2016 07:44 15,3 C 15,4 C 93 % 1016,6 hPa 0,0 mm 0,1 km/h (0 Bft) N 355 1 min 0,000 mm 0,8 UV-I 204 W/m 14,2 C 1,6 km/h (1 Bft)
03.08.2016 07:45 15,4 C 15,4 C 91 % 1016,6 hPa 0,0 mm 0,5 km/h (0 Bft) N 355 0 min 0,000 mm 0,8 UV-I 144 W/m 13,9 C 1,6 km/h (1 Bft)
03.08.2016 07:46 15,5 C 15,6 C 93 % 1016,6 hPa 0,0 mm 0,0 km/h (0 Bft) N 355 0 min 0,000 mm 0,7 UV-I 84 W/m 14,4 C 0,0 km/h (0 Bft)
03.08.2016 07:47 15,5 C 15,6 C 93 % 1016,6 hPa 0,0 mm 0,0 km/h (0 Bft) N 355 0 min 0,000 mm 0,8 UV-I 107 W/m 14,4 C 0,0 km/h (0 Bft)
03.08.2016 07:48 15,4 C 15,5 C 93 % 1016,6 hPa 0,0 mm 0,0 km/h (0 Bft) N 355 0 min 0,000 mm 0,8 UV-I 144 W/m 14,3 C 0,0 km/h (0 Bft)
03.08.2016 07:49 15,4 C 15,4 C 92 % 1016,6 hPa 0,0 mm 0,0 km/h (0 Bft) N 355 1 min 0,000 mm 0,9 UV-I 183 W/m 14,1 C 0,0 km/h (0 Bft)
03.08.2016 07:50 15,6 C 15,6 C 94 % 1016,7 hPa 0,0 mm 0,0 km/h (0 Bft) N 355 1 min 0,000 mm 0,9 UV-I 248 W/m 14,6 C 0,0 km/h (0 Bft)
03.08.2016 07:51 15,6 C 15,6 C 93 % 1016,6 hPa 0,0 mm 0,0 km/h (0 Bft) N 355 0 min 0,000 mm 0,9 UV-I 156 W/m 14,5 C 0,0 km/h (0 Bft)
03.08.2016 07:52 15,6 C 15,6 C 92 % 1016,6 hPa 0,0 mm 0,5 km/h (0 Bft) N 355 1 min 0,000 mm 0,9 UV-I 176 W/m 14,3 C 3,2 km/h (1 Bft)
03.08.2016 07:53 15,5 C 15,6 C 93 % 1016,6 hPa 0,0 mm 0,6 km/h (0 Bft) N 355 1 min 0,000 mm 0,9 UV-I 174 W/m 14,4 C 1,6 km/h (1 Bft)
03.08.2016 07:54 15,4 C 15,5 C 91 % 1016,6 hPa 0,0 mm 0,6 km/h (0 Bft) N 355 1 min 0,000 mm 0,9 UV-I 178 W/m 13,9 C 1,6 km/h (1 Bft)
03.08.2016 07:55 15,5 C 15,5 C 93 % 1016,6 hPa 0,0 mm 0,7 km/h (0 Bft) N 355 1 min 0,000 mm 0,9 UV-I 176 W/m 14,4 C 1,6 km/h (1 Bft)
03.08.2016 07:56 15,6 C 15,6 C 93 % 1016,6 hPa 0,0 mm 0,1 km/h (0 Bft) N 355 1 min 0,000 mm 1,0 UV-I 188 W/m 14,5 C 1,6 km/h (1 Bft)
03.08.2016 07:57 15,7 C 15,7 C 93 % 1016,7 hPa 0,0 mm 0,0 km/h (0 Bft) N 355 1 min 0,000 mm 1,0 UV-I 204 W/m 14,6 C 0,0 km/h (0 Bft)
03.08.2016 07:58 15,6 C 15,7 C 92 % 1016,7 hPa 0,0 mm 1,0 km/h (0 Bft) N 355 1 min 0,000 mm 1,1 UV-I 234 W/m 14,3 C 1,6 km/h (1 Bft)
03.08.2016 07:59 15,6 C 15,7 C 92 % 1016,7 hPa 0,0 mm 0,8 km/h (0 Bft) N 355 1 min 0,000 mm 1,1 UV-I 253 W/m 14,3 C 1,6 km/h (1 Bft)
03.08.2016 08:00 15,7 C 15,7 C 92 % 1016,7 hPa 0,0 mm 0,7 km/h (0 Bft) N 355 1 min 0,076 mm 1,1 UV-I 265 W/m 14,4 C 1,6 km/h (1 Bft)
03.08.2016 08:01 15,7 C 15,7 C 91 % 1016,7 hPa 0,0 mm 0,1 km/h (0 Bft) N 355 1 min 0,000 mm 1,1 UV-I 257 W/m 14,2 C 1,6 km/h (1 Bft)
03.08.2016 08:02 15,8 C 15,8 C 92 % 1016,6 hPa 0,0 mm 0,2 km/h (0 Bft) N 355 1 min 0,000 mm 1,2 UV-I 279 W/m 14,5 C 1,6 km/h (1 Bft)
03.08.2016 08:03 15,8 C 15,9 C 92 % 1016,6 hPa 0,0 mm 1,0 km/h (0 Bft) N 355 1 min 0,000 mm 1,2 UV-I 272 W/m 14,5 C 1,6 km/h (1 Bft)
03.08.2016 08:04 15,9 C 15,9 C 91 % 1016,6 hPa 0,0 mm 0,6 km/h (0 Bft) N 355 1 min 0,000 mm 1,2 UV-I 279 W/m 14,4 C 1,6 km/h (1 Bft)
03.08.2016 08:05 15,9 C 15,9 C 91 % 1016,6 hPa 0,0 mm 1,1 km/h (1 Bft) N 355 1 min 0,000 mm 1,2 UV-I 276 W/m 14,4 C 1,6 km/h (1 Bft)
03.08.2016 08:06 15,9 C 15,9 C 91 % 1016,6 hPa 0,0 mm 0,6 km/h (0 Bft) N 355 1 min 0,000 mm 1,2 UV-I 276 W/m 14,4 C 1,6 km/h (1 Bft)
03.08.2016 08:07 16,0 C 16,0 C 91 % 1016,6 hPa 0,0 mm 0,4 km/h (0 Bft) N 355 1 min 0,000 mm 1,2 UV-I 237 W/m 14,5 C 1,6 km/h (1 Bft)
03.08.2016 08:08 16,2 C 16,2 C 92 % 1016,6 hPa 0,0 mm 0,3 km/h (0 Bft) N 355 1 min 0,000 mm 1,1 UV-I 265 W/m 14,9 C 1,6 km/h (1 Bft)
03.08.2016 08:09 16,3 C 16,3 C 91 % 1016,6 hPa 0,0 mm 1,2 km/h (1 Bft) N 355 1 min 0,000 mm 1,2 UV-I 230 W/m 14,8 C 3,2 km/h (1 Bft)
03.08.2016 08:10 16,4 C 16,4 C 90 % 1016,6 hPa 0,0 mm 2,5 km/h (1 Bft) N-NW 336 1 min 0,000 mm 1,2 UV-I 199 W/m 14,8 C 4,8 km/h (1 Bft)
03.08.2016 08:11 16,5 C 16,5 C 89 % 1016,6 hPa 0,0 mm 1,6 km/h (1 Bft) N-NW 336 1 min 0,000 mm 1,2 UV-I 216 W/m 14,7 C 3,2 km/h (1 Bft)
03.08.2016 08:12 16,4 C 16,5 C 91 % 1016,6 hPa 0,0 mm 1,8 km/h (1 Bft) SO 129 1 min 0,000 mm 1,3 UV-I 250 W/m 14,9 C 3,2 km/h (1 Bft)
03.08.2016 08:13 16,3 C 16,4 C 88 % 1016,6 hPa 0,0 mm 2,0 km/h (1 Bft) S-SO 148 1 min 0,000 mm 1,3 UV-I 271 W/m 14,3 C 3,2 km/h (1 Bft)
03.08.2016 08:14 16,3 C 16,3 C 90 % 1016,6 hPa 0,0 mm 0,7 km/h (0 Bft) S-SO 148 1 min 0,000 mm 1,3 UV-I 287 W/m 14,7 C 1,6 km/h (1 Bft)
03.08.2016 08:15 16,2 C 16,3 C 90 % 1016,5 hPa 0,0 mm 1,9 km/h (1 Bft) S-SO 148 1 min 0,000 mm 1,4 UV-I 290 W/m 14,6 C 3,2 km/h (1 Bft)
03.08.2016 08:16 16,2 C 16,2 C 90 % 1016,6 hPa 0,0 mm 1,1 km/h (1 Bft) S-SO 148 1 min 0,000 mm 1,4 UV-I 279 W/m 14,6 C 3,2 km/h (1 Bft)
03.08.2016 08:17 16,2 C 16,2 C 91 % 1016,6 hPa 0,0 mm 0,5 km/h (0 Bft) S-SO 148 1 min 0,000 mm 1,4 UV-I 297 W/m 14,7 C 1,6 km/h (1 Bft)
03.08.2016 08:18 16,3 C 16,3 C 90 % 1016,5 hPa 0,0 mm 0,6 km/h (0 Bft) S-SO 148 1 min 0,000 mm 1,5 UV-I 323 W/m 14,7 C 1,6 km/h (1 Bft)
03.08.2016 08:19 16,3 C 16,3 C 90 % 1016,5 hPa 0,0 mm 1,7 km/h (1 Bft) S-SO 148 1 min 0,000 mm 1,4 UV-I 311 W/m 14,7 C 3,2 km/h (1 Bft)
03.08.2016 08:20 16,4 C 16,4 C 91 % 1016,5 hPa 0,0 mm 0,3 km/h (0 Bft) S-SO 148 1 min 0,000 mm 1,3 UV-I 311 W/m 14,9 C 1,6 km/h (1 Bft)
03.08.2016 08:21 16,5 C 16,5 C 91 % 1016,5 hPa 0,0 mm 0,0 km/h (0 Bft) S-SO 148 1 min 0,000 mm 1,5 UV-I 315 W/m 15,0 C 0,0 km/h (0 Bft)
03.08.2016 08:22 16,4 C 16,5 C 90 % 1016,5 hPa 0,0 mm 1,2 km/h (1 Bft) S-SO 148 1 min 0,000 mm 1,5 UV-I 320 W/m 14,8 C 3,2 km/h (1 Bft)
03.08.2016 08:23 16,4 C 16,4 C 91 % 1016,5 hPa 0,0 mm 0,0 km/h (0 Bft) S-SO 148 1 min 0,000 mm 1,6 UV-I 323 W/m 14,9 C 0,0 km/h (0 Bft)
03.08.2016 08:24 16,6 C 16,6 C 91 % 1016,5 hPa 0,0 mm 0,1 km/h (0 Bft) S-SO 148 1 min 0,000 mm 1,6 UV-I 329 W/m 15,1 C 1,6 km/h (1 Bft)
03.08.2016 08:25 16,7 C 16,7 C 90 % 1016,5 hPa 0,0 mm 1,0 km/h (0 Bft) S-SO 148 1 min 0,000 mm 1,4 UV-I 271 W/m 15,0 C 1,6 km/h (1 Bft)
03.08.2016 08:26 16,7 C 16,7 C 90 % 1016,5 hPa 0,0 mm 0,1 km/h (0 Bft) S-SO 148 0 min 0,000 mm 1,4 UV-I 179 W/m 15,0 C 1,6 km/h (1 Bft)
03.08.2016 08:27 16,7 C 16,7 C 91 % 1016,5 hPa 0,0 mm 0,4 km/h (0 Bft) S-SO 148 1 min 0,000 mm 1,5 UV-I 251 W/m 15,2 C 1,6 km/h (1 Bft)
03.08.2016 08:28 16,8 C 16,8 C 90 % 1016,5 hPa 0,0 mm 0,5 km/h (0 Bft) S-SO 148 1 min 0,000 mm 1,6 UV-I 313 W/m 15,1 C 1,6 km/h (1 Bft)
03.08.2016 08:29 16,9 C 16,9 C 88 % 1016,4 hPa 0,0 mm 1,8 km/h (1 Bft) S-SO 157 1 min 0,000 mm 1,6 UV-I 283 W/m 14,9 C 3,2 km/h (1 Bft)
03.08.2016 08:30 16,9 C 16,9 C 89 % 1016,5 hPa 0,0 mm 0,5 km/h (0 Bft) S-SO 157 1 min 0,000 mm 1,6 UV-I 283 W/m 15,1 C 1,6 km/h (1 Bft)
03.08.2016 08:31 16,9 C 16,9 C 90 % 1016,5 hPa 0,0 mm 1,6 km/h (1 Bft) S-SO 157 1 min 0,000 mm 1,6 UV-I 262 W/m 15,2 C 3,2 km/h (1 Bft)
03.08.2016 08:32 16,9 C 16,9 C 90 % 1016,5 hPa 0,0 mm 0,7 km/h (0 Bft) S-SO 157 1 min 0,000 mm 1,5 UV-I 244 W/m 15,2 C 1,6 km/h (1 Bft)
03.08.2016 08:33 16,9 C 16,9 C 90 % 1016,5 hPa 0,0 mm 0,0 km/h (0 Bft) S-SO 157 1 min 0,000 mm 1,5 UV-I 253 W/m 15,2 C 0,0 km/h (0 Bft)
03.08.2016 08:34 17,0 C 17,0 C 88 % 1016,5 hPa 0,0 mm 0,9 km/h (0 Bft) S-SO 157 1 min 0,000 mm 1,6 UV-I 237 W/m 15,0 C 3,2 km/h (1 Bft)
03.08.2016 08:35 17,1 C 17,1 C 89 % 1016,5 hPa 0,0 mm 0,0 km/h (0 Bft) S-SO 157 1 min 0,000 mm 1,6 UV-I 257 W/m 15,3 C 0,0 km/h (0 Bft)
03.08.2016 08:36 17,0 C 17,1 C 88 % 1016,5 hPa 0,0 mm 0,7 km/h (0 Bft) S-SO 157 1 min 0,000 mm 1,7 UV-I 290 W/m 15,0 C 1,6 km/h (1 Bft)
03.08.2016 08:37 17,0 C 17,0 C 89 % 1016,5 hPa 0,0 mm 1,7 km/h (1 Bft) S-SO 157 1 min 0,000 mm 1,8 UV-I 313 W/m 15,2 C 3,2 km/h (1 Bft)
03.08.2016 08:38 17,1 C 17,1 C 91 % 1016,5 hPa 0,0 mm 0,7 km/h (0 Bft) S-SO 157 1 min 0,000 mm 1,7 UV-I 262 W/m 15,6 C 1,6 km/h (1 Bft)
03.08.2016 08:39 17,1 C 17,1 C 89 % 1016,5 hPa 0,0 mm 1,3 km/h (1 Bft) S-SO 157 1 min 0,000 mm 1,7 UV-I 278 W/m 15,3 C 3,2 km/h (1 Bft)
03.08.2016 08:40 17,1 C 17,1 C 88 % 1016,5 hPa 0,0 mm 1,4 km/h (1 Bft) S-SO 161 1 min 0,000 mm 1,7 UV-I 279 W/m 15,1 C 3,2 km/h (1 Bft)
03.08.2016 08:41 17,2 C 17,2 C 88 % 1016,5 hPa 0,0 mm 2,3 km/h (1 Bft) S-SO 165 1 min 0,000 mm 1,8 UV-I 272 W/m 15,2 C 3,2 km/h (1 Bft)
03.08.2016 08:42 17,2 C 17,2 C 88 % 1016,4 hPa 0,0 mm 1,9 km/h (1 Bft) S-SO 165 1 min 0,000 mm 1,8 UV-I 262 W/m 15,2 C 3,2 km/h (1 Bft)
03.08.2016 08:43 17,2 C 17,2 C 86 % 1016,4 hPa 0,0 mm 4,3 km/h (1 Bft) S 188 1 min 0,000 mm 1,8 UV-I 274 W/m 14,8 C 6,4 km/h (2 Bft)
03.08.2016 08:44 17,3 C 17,3 C 89 % 1016,5 hPa 0,0 mm 3,6 km/h (1 Bft) S 184 1 min 0,000 mm 1,8 UV-I 279 W/m 15,5 C 4,8 km/h (1 Bft)
03.08.2016 08:45 17,3 C 17,3 C 90 % 1016,5 hPa 0,0 mm 2,1 km/h (1 Bft) S 184 1 min 0,000 mm 1,8 UV-I 269 W/m 15,6 C 3,2 km/h (1 Bft)
03.08.2016 08:46 17,3 C 17,3 C 87 % 1016,5 hPa 0,0 mm 2,7 km/h (1 Bft) S 184 1 min 0,000 mm 1,9 UV-I 269 W/m 15,1 C 3,2 km/h (1 Bft)
03.08.2016 08:47 17,3 C 17,3 C 89 % 1016,5 hPa 0,0 mm 1,7 km/h (1 Bft) S 184 1 min 0,000 mm 1,9 UV-I 294 W/m 15,5 C 3,2 km/h (1 Bft)
03.08.2016 08:48 17,4 C 17,4 C 90 % 1016,5 hPa 0,0 mm 1,1 km/h (1 Bft) S 184 1 min 0,000 mm 1,9 UV-I 264 W/m 15,7 C 3,2 km/h (1 Bft)
03.08.2016 08:49 17,4 C 17,4 C 87 % 1016,5 hPa 0,0 mm 1,0 km/h (0 Bft) S 184 1 min 0,000 mm 1,8 UV-I 267 W/m 15,2 C 1,6 km/h (1 Bft)
03.08.2016 08:50 17,4 C 17,4 C 88 % 1016,5 hPa 0,0 mm 2,3 km/h (1 Bft) S 184 1 min 0,000 mm 1,9 UV-I 269 W/m 15,4 C 3,2 km/h (1 Bft)
03.08.2016 08:51 17,4 C 17,5 C 87 % 1016,5 hPa 0,0 mm 1,9 km/h (1 Bft) S 184 1 min 0,000 mm 1,9 UV-I 265 W/m 15,2 C 3,2 km/h (1 Bft)
03.08.2016 08:52 17,5 C 17,5 C 84 % 1016,5 hPa 0,0 mm 1,9 km/h (1 Bft) S 184 1 min 0,000 mm 2,1 UV-I 265 W/m 14,8 C 3,2 km/h (1 Bft)
03.08.2016 08:53 17,5 C 17,5 C 84 % 1016,4 hPa 0,0 mm 1,1 km/h (1 Bft) S 184 1 min 0,000 mm 2,2 UV-I 390 W/m 14,8 C 1,6 km/h (1 Bft)
03.08.2016 08:54 17,6 C 17,6 C 83 % 1016,4 hPa 0,0 mm 1,5 km/h (1 Bft) S 184 1 min 0,000 mm 2,2 UV-I 383 W/m 14,7 C 1,6 km/h (1 Bft)
03.08.2016 08:55 17,6 C 17,7 C 85 % 1016,5 hPa 0,0 mm 0,1 km/h (0 Bft) S 184 1 min 0,000 mm 2,3 UV-I 434 W/m 15,0 C 1,6 km/h (1 Bft)
03.08.2016 08:56 17,7 C 17,7 C 85 % 1016,5 hPa 0,0 mm 0,1 km/h (0 Bft) S 184 1 min 0,000 mm 2,3 UV-I 396 W/m 15,1 C 1,6 km/h (1 Bft)
03.08.2016 08:57 17,8 C 17,8 C 87 % 1016,4 hPa 0,0 mm 0,9 km/h (0 Bft) S 184 1 min 0,000 mm 2,2 UV-I 373 W/m 15,6 C 3,2 km/h (1 Bft)
03.08.2016 08:58 17,8 C 17,8 C 83 % 1016,4 hPa 0,0 mm 3,2 km/h (1 Bft) S 173 1 min 0,000 mm 2,2 UV-I 359 W/m 14,9 C 3,2 km/h (1 Bft)
03.08.2016 08:59 17,9 C 17,9 C 85 % 1016,4 hPa 0,0 mm 2,5 km/h (1 Bft) S 173 1 min 0,000 mm 2,1 UV-I 323 W/m 15,3 C 3,2 km/h (1 Bft)
03.08.2016 09:00 18,1 C 18,1 C 85 % 1016,4 hPa 0,0 mm 1,4 km/h (1 Bft) S 173 1 min 0,153 mm 2,2 UV-I 330 W/m 15,5 C 3,2 km/h (1 Bft)
03.08.2016 09:01 18,2 C 18,2 C 88 % 1016,4 hPa 0,0 mm 1,1 km/h (1 Bft) S 173 1 min 0,000 mm 2,3 UV-I 380 W/m 16,2 C 1,6 km/h (1 Bft)
03.08.2016 09:02 18,2 C 18,2 C 85 % 1016,4 hPa 0,0 mm 1,3 km/h (1 Bft) S 173 1 min 0,000 mm 2,3 UV-I 374 W/m 15,6 C 3,2 km/h (1 Bft)
03.08.2016 09:03 18,3 C 18,3 C 82 % 1016,4 hPa 0,0 mm 1,4 km/h (1 Bft) S-SW 194 1 min 0,000 mm 2,4 UV-I 380 W/m 15,2 C 4,8 km/h (1 Bft)
03.08.2016 09:04 18,3 C 18,3 C 83 % 1016,4 hPa 0,0 mm 1,9 km/h (1 Bft) S-SW 193 1 min 0,000 mm 2,4 UV-I 367 W/m 15,4 C 4,8 km/h (1 Bft)
03.08.2016 09:05 18,4 C 18,4 C 82 % 1016,4 hPa 0,0 mm 1,3 km/h (1 Bft) S-SW 193 1 min 0,000 mm 2,6 UV-I 432 W/m 15,3 C 3,2 km/h (1 Bft)
03.08.2016 09:06 18,4 C 18,4 C 84 % 1016,4 hPa 0,0 mm 0,5 km/h (0 Bft) S-SW 193 1 min 0,000 mm 2,6 UV-I 424 W/m 15,6 C 1,6 km/h (1 Bft)
03.08.2016 09:07 18,3 C 18,4 C 83 % 1016,3 hPa 0,0 mm 0,1 km/h (0 Bft) S-SW 193 1 min 0,000 mm 2,6 UV-I 427 W/m 15,4 C 1,6 km/h (1 Bft)
03.08.2016 09:08 18,3 C 18,4 C 82 % 1016,3 hPa 0,0 mm 0,0 km/h (0 Bft) S-SW 193 1 min 0,000 mm 2,6 UV-I 425 W/m 15,2 C 0,0 km/h (0 Bft)
03.08.2016 09:09 18,3 C 18,3 C 82 % 1016,3 hPa 0,0 mm 1,0 km/h (0 Bft) S-SO 165 1 min 0,000 mm 2,7 UV-I 432 W/m 15,2 C 3,2 km/h (1 Bft)
03.08.2016 09:10 18,3 C 18,3 C 85 % 1016,3 hPa 0,0 mm 0,5 km/h (0 Bft) S-SO 165 1 min 0,000 mm 2,7 UV-I 432 W/m 15,7 C 1,6 km/h (1 Bft)
03.08.2016 09:11 18,3 C 18,3 C 84 % 1016,3 hPa 0,0 mm 1,7 km/h (1 Bft) S-SO 165 1 min 0,000 mm 2,7 UV-I 431 W/m 15,5 C 3,2 km/h (1 Bft)
03.08.2016 09:12 18,4 C 18,4 C 79 % 1016,3 hPa 0,0 mm 1,7 km/h (1 Bft) S-SO 165 1 min 0,000 mm 2,7 UV-I 434 W/m 14,7 C 3,2 km/h (1 Bft)
03.08.2016 09:13 18,7 C 18,7 C 85 % 1016,3 hPa 0,0 mm 1,1 km/h (1 Bft) S-SO 165 1 min 0,000 mm 2,8 UV-I 432 W/m 16,1 C 1,6 km/h (1 Bft)
03.08.2016 09:14 18,6 C 18,7 C 79 % 1016,3 hPa 0,0 mm 1,0 km/h (0 Bft) S-SO 165 1 min 0,000 mm 2,8 UV-I 443 W/m 14,9 C 1,6 km/h (1 Bft)
03.08.2016 09:15 18,7 C 18,7 C 79 % 1016,3 hPa 0,0 mm 0,3 km/h (0 Bft) S-SO 165 1 min 0,000 mm 2,9 UV-I 452 W/m 15,0 C 1,6 km/h (1 Bft)
03.08.2016 09:16 18,8 C 18,8 C 84 % 1016,3 hPa 0,0 mm 2,4 km/h (1 Bft) W-SW 243 1 min 0,000 mm 2,9 UV-I 441 W/m 16,0 C 4,8 km/h (1 Bft)
03.08.2016 09:17 19,2 C 19,2 C 80 % 1016,3 hPa 0,0 mm 4,6 km/h (1 Bft) W 259 1 min 0,000 mm 3,0 UV-I 471 W/m 15,7 C 6,4 km/h (2 Bft)
03.08.2016 09:18 19,3 C 19,3 C 79 % 1016,3 hPa 0,0 mm 3,6 km/h (1 Bft) W 260 1 min 0,000 mm 2,9 UV-I 464 W/m 15,6 C 4,8 km/h (1 Bft)
03.08.2016 09:19 19,4 C 19,4 C 77 % 1016,2 hPa 0,0 mm 1,2 km/h (1 Bft) W 260 1 min 0,000 mm 3,0 UV-I 464 W/m 15,3 C 3,2 km/h (1 Bft)
03.08.2016 09:20 19,3 C 19,4 C 75 % 1016,2 hPa 0,0 mm 0,4 km/h (0 Bft) W 260 1 min 0,000 mm 3,0 UV-I 476 W/m 14,8 C 1,6 km/h (1 Bft)
03.08.2016 09:21 19,2 C 19,3 C 82 % 1016,2 hPa 0,0 mm 0,6 km/h (0 Bft) W 260 1 min 0,000 mm 2,8 UV-I 443 W/m 16,0 C 1,6 km/h (1 Bft)
03.08.2016 09:22 19,2 C 19,2 C 80 % 1016,2 hPa 0,0 mm 0,4 km/h (0 Bft) W 260 1 min 0,000 mm 2,9 UV-I 432 W/m 15,7 C 1,6 km/h (1 Bft)
03.08.2016 09:23 19,2 C 19,2 C 80 % 1016,2 hPa 0,0 mm 2,3 km/h (1 Bft) NW 323 1 min 0,000 mm 3,0 UV-I 425 W/m 15,7 C 3,2 km/h (1 Bft)
03.08.2016 09:24 19,2 C 19,2 C 82 % 1016,2 hPa 0,0 mm 3,4 km/h (1 Bft) W-SW 241 1 min 0,000 mm 3,0 UV-I 452 W/m 16,0 C 4,8 km/h (1 Bft)
03.08.2016 09:25 19,3 C 19,3 C 79 % 1016,2 hPa 0,0 mm 4,0 km/h (1 Bft) S-SW 200 1 min 0,000 mm 3,0 UV-I 476 W/m 15,6 C 6,4 km/h (2 Bft)
03.08.2016 09:26 19,6 C 19,6 C 77 % 1016,1 hPa 0,0 mm 5,1 km/h (1 Bft) W-SW 254 1 min 0,000 mm 3,2 UV-I 473 W/m 15,5 C 6,4 km/h (2 Bft)
03.08.2016 09:27 19,7 C 19,7 C 78 % 1016,1 hPa 0,0 mm 1,9 km/h (1 Bft) W-SW 254 1 min 0,000 mm 3,2 UV-I 492 W/m 15,8 C 3,2 km/h (1 Bft)
03.08.2016 09:28 19,8 C 19,8 C 78 % 1016,1 hPa 0,0 mm 5,0 km/h (1 Bft) W-SW 254 1 min 0,000 mm 3,2 UV-I 496 W/m 15,8 C 9,7 km/h (2 Bft)
03.08.2016 09:29 19,9 C 19,9 C 75 % 1016,1 hPa 0,0 mm 3,7 km/h (1 Bft) S-SW 213 1 min 0,000 mm 3,2 UV-I 503 W/m 15,3 C 6,4 km/h (2 Bft)
03.08.2016 09:30 20,0 C 20,0 C 78 % 1016,1 hPa 0,0 mm 2,8 km/h (1 Bft) W-SW 239 1 min 0,000 mm 3,1 UV-I 390 W/m 16,0 C 6,4 km/h (2 Bft)
03.08.2016 09:31 20,0 C 20,0 C 74 % 1016,1 hPa 0,0 mm 3,8 km/h (1 Bft) W-NW 293 1 min 0,000 mm 2,9 UV-I 392 W/m 15,2 C 6,4 km/h (2 Bft)
03.08.2016 09:32 19,9 C 20,0 C 73 % 1016,1 hPa 0,0 mm 5,8 km/h (2 Bft) W 269 1 min 0,000 mm 3,2 UV-I 450 W/m 14,9 C 6,4 km/h (2 Bft)
03.08.2016 09:33 19,9 C 20,0 C 74 % 1016,1 hPa 0,0 mm 4,5 km/h (1 Bft) W-NW 292 1 min 0,000 mm 3,3 UV-I 490 W/m 15,1 C 4,8 km/h (1 Bft)
03.08.2016 09:34 19,9 C 19,9 C 72 % 1016,1 hPa 0,0 mm 3,2 km/h (1 Bft) W-SW 240 1 min 0,000 mm 3,3 UV-I 494 W/m 14,7 C 4,8 km/h (1 Bft)
03.08.2016 09:35 20,0 C 20,0 C 73 % 1016,1 hPa 0,0 mm 3,7 km/h (1 Bft) S 186 1 min 0,000 mm 3,3 UV-I 503 W/m 15,0 C 8,0 km/h (2 Bft)
03.08.2016 09:36 20,1 C 20,1 C 76 % 1016,1 hPa 0,0 mm 5,6 km/h (1 Bft) S-SO 165 1 min 0,000 mm 3,4 UV-I 497 W/m 15,7 C 9,7 km/h (2 Bft)
03.08.2016 09:37 20,1 C 20,1 C 70 % 1016,0 hPa 0,0 mm 5,4 km/h (1 Bft) S-SW 199 1 min 0,000 mm 3,5 UV-I 504 W/m 14,5 C 9,7 km/h (2 Bft)
03.08.2016 09:38 20,1 C 20,1 C 73 % 1016,1 hPa 0,0 mm 2,6 km/h (1 Bft) W-SW 250 1 min 0,000 mm 3,5 UV-I 512 W/m 15,1 C 3,2 km/h (1 Bft)
03.08.2016 09:39 20,1 C 20,1 C 76 % 1016,0 hPa 0,0 mm 1,5 km/h (1 Bft) W-SW 250 1 min 0,000 mm 3,5 UV-I 512 W/m 15,7 C 3,2 km/h (1 Bft)
03.08.2016 09:40 20,1 C 20,1 C 75 % 1016,0 hPa 0,0 mm 1,1 km/h (1 Bft) W-SW 250 1 min 0,000 mm 3,5 UV-I 513 W/m 15,5 C 3,2 km/h (1 Bft)
03.08.2016 09:41 20,1 C 20,1 C 75 % 1016,0 hPa 0,0 mm 2,6 km/h (1 Bft) W 269 1 min 0,000 mm 3,6 UV-I 519 W/m 15,5 C 6,4 km/h (2 Bft)
03.08.2016 09:42 20,1 C 20,1 C 73 % 1015,9 hPa 0,0 mm 5,5 km/h (1 Bft) W-SW 249 1 min 0,000 mm 3,6 UV-I 527 W/m 15,1 C 9,7 km/h (2 Bft)
03.08.2016 09:43 20,2 C 20,2 C 76 % 1015,9 hPa 0,0 mm 5,3 km/h (1 Bft) W 259 1 min 0,000 mm 3,6 UV-I 533 W/m 15,8 C 8,0 km/h (2 Bft)
03.08.2016 09:44 20,3 C 20,3 C 78 % 1015,9 hPa 0,0 mm 2,1 km/h (1 Bft) W-SW 245 1 min 0,000 mm 3,7 UV-I 534 W/m 16,3 C 4,8 km/h (1 Bft)
03.08.2016 09:45 20,4 C 20,4 C 73 % 1015,9 hPa 0,0 mm 2,1 km/h (1 Bft) W-NW 287 1 min 0,000 mm 3,7 UV-I 517 W/m 15,4 C 3,2 km/h (1 Bft)
03.08.2016 09:46 20,5 C 20,5 C 74 % 1015,9 hPa 0,0 mm 1,1 km/h (1 Bft) SW 228 1 min 0,000 mm 3,8 UV-I 543 W/m 15,7 C 3,2 km/h (1 Bft)
03.08.2016 09:47 20,7 C 20,7 C 74 % 1015,9 hPa 0,0 mm 5,0 km/h (1 Bft) W 279 1 min 0,000 mm 3,8 UV-I 548 W/m 15,9 C 9,7 km/h (2 Bft)
03.08.2016 09:48 20,7 C 20,7 C 73 % 1015,9 hPa 0,0 mm 2,5 km/h (1 Bft) W-SW 240 1 min 0,000 mm 3,8 UV-I 561 W/m 15,7 C 3,2 km/h (1 Bft)
03.08.2016 09:49 20,6 C 20,7 C 69 % 1015,8 hPa 0,0 mm 3,0 km/h (1 Bft) W-SW 245 1 min 0,000 mm 3,9 UV-I 561 W/m 14,7 C 8,0 km/h (2 Bft)
03.08.2016 09:50 20,7 C 20,7 C 75 % 1015,9 hPa 0,0 mm 8,9 km/h (2 Bft) W-SW 254 1 min 0,000 mm 3,8 UV-I 563 W/m 16,1 C 14,5 km/h (3 Bft)
03.08.2016 09:51 20,7 C 20,7 C 72 % 1015,9 hPa 0,0 mm 3,3 km/h (1 Bft) W-SW 246 1 min 0,000 mm 3,8 UV-I 552 W/m 15,5 C 4,8 km/h (1 Bft)
03.08.2016 09:52 20,7 C 20,7 C 71 % 1015,9 hPa 0,0 mm 1,3 km/h (1 Bft) W 266 1 min 0,000 mm 3,7 UV-I 526 W/m 15,2 C 4,8 km/h (1 Bft)
03.08.2016 09:53 20,7 C 20,7 C 72 % 1015,9 hPa 0,0 mm 3,4 km/h (1 Bft) W 271 1 min 0,000 mm 3,8 UV-I 573 W/m 15,5 C 6,4 km/h (2 Bft)
03.08.2016 09:54 20,7 C 20,7 C 74 % 1015,9 hPa 0,0 mm 6,9 km/h (2 Bft) W 267 1 min 0,000 mm 3,9 UV-I 571 W/m 15,9 C 9,7 km/h (2 Bft)
03.08.2016 09:55 20,6 C 20,7 C 69 % 1015,8 hPa 0,0 mm 1,0 km/h (0 Bft) W-SW 247 1 min 0,000 mm 3,9 UV-I 582 W/m 14,7 C 3,2 km/h (1 Bft)
03.08.2016 09:56 20,6 C 20,6 C 75 % 1015,8 hPa 0,0 mm 2,2 km/h (1 Bft) W 264 1 min 0,000 mm 3,9 UV-I 582 W/m 16,0 C 6,4 km/h (2 Bft)
03.08.2016 09:57 20,7 C 20,7 C 74 % 1015,8 hPa 0,0 mm 6,9 km/h (2 Bft) SW 236 1 min 0,000 mm 3,9 UV-I 582 W/m 15,9 C 11,3 km/h (2 Bft)
03.08.2016 09:58 20,6 C 20,7 C 70 % 1015,8 hPa 0,0 mm 5,1 km/h (1 Bft) S-SO 167 1 min 0,000 mm 3,9 UV-I 559 W/m 14,9 C 8,0 km/h (2 Bft)
03.08.2016 09:59 20,6 C 20,6 C 72 % 1015,8 hPa 0,0 mm 3,5 km/h (1 Bft) W-SW 244 1 min 0,000 mm 4,0 UV-I 612 W/m 15,4 C 12,9 km/h (3 Bft)
03.08.2016 10:00 20,6 C 20,6 C 71 % 1015,8 hPa 0,0 mm 7,7 km/h (2 Bft) W-SW 254 1 min 0,279 mm 4,0 UV-I 584 W/m 15,2 C 12,9 km/h (3 Bft)
03.08.2016 10:01 20,6 C 20,6 C 69 % 1015,8 hPa 0,0 mm 5,1 km/h (1 Bft) W 265 1 min 0,000 mm 3,9 UV-I 568 W/m 14,7 C 8,0 km/h (2 Bft)
03.08.2016 10:02 20,5 C 20,6 C 67 % 1015,7 hPa 0,0 mm 4,0 km/h (1 Bft) W-SW 245 1 min 0,000 mm 4,1 UV-I 621 W/m 14,2 C 4,8 km/h (1 Bft)
03.08.2016 10:03 20,6 C 20,6 C 72 % 1015,7 hPa 0,0 mm 5,5 km/h (1 Bft) W-NW 294 1 min 0,000 mm 3,9 UV-I 578 W/m 15,4 C 8,0 km/h (2 Bft)
03.08.2016 10:04 20,6 C 20,6 C 68 % 1015,7 hPa 0,0 mm 6,4 km/h (2 Bft) W-SW 239 1 min 0,000 mm 3,8 UV-I 543 W/m 14,5 C 8,0 km/h (2 Bft)
03.08.2016 10:05 20,5 C 20,6 C 69 % 1015,7 hPa 0,0 mm 6,4 km/h (2 Bft) SW 233 1 min 0,000 mm 3,8 UV-I 526 W/m 14,6 C 11,3 km/h (2 Bft)
03.08.2016 10:06 20,5 C 20,5 C 72 % 1015,7 hPa 0,0 mm 3,8 km/h (1 Bft) SW 225 1 min 0,000 mm 3,9 UV-I 533 W/m 15,3 C 6,4 km/h (2 Bft)
03.08.2016 10:07 20,6 C 20,6 C 70 % 1015,7 hPa 0,0 mm 4,5 km/h (1 Bft) W-SW 249 1 min 0,000 mm 4,2 UV-I 605 W/m 14,9 C 8,0 km/h (2 Bft)
03.08.2016 10:08 20,6 C 20,6 C 70 % 1015,7 hPa 0,0 mm 4,6 km/h (1 Bft) W 276 1 min 0,000 mm 4,2 UV-I 615 W/m 14,9 C 6,4 km/h (2 Bft)
03.08.2016 10:09 20,6 C 20,6 C 70 % 1015,6 hPa 0,0 mm 6,0 km/h (2 Bft) W-SW 252 1 min 0,000 mm 4,2 UV-I 615 W/m 14,9 C 11,3 km/h (2 Bft)
03.08.2016 10:10 20,6 C 20,6 C 69 % 1015,6 hPa 0,0 mm 4,3 km/h (1 Bft) W 280 1 min 0,000 mm 4,2 UV-I 617 W/m 14,7 C 6,4 km/h (2 Bft)
03.08.2016 10:11 20,7 C 20,7 C 70 % 1015,6 hPa 0,0 mm 4,8 km/h (1 Bft) W 273 1 min 0,000 mm 4,3 UV-I 605 W/m 15,0 C 6,4 km/h (2 Bft)
03.08.2016 10:12 20,7 C 20,7 C 71 % 1015,6 hPa 0,0 mm 4,9 km/h (1 Bft) W-SW 256 1 min 0,000 mm 4,3 UV-I 610 W/m 15,2 C 8,0 km/h (2 Bft)
03.08.2016 10:13 20,7 C 20,7 C 74 % 1015,6 hPa 0,0 mm 7,6 km/h (2 Bft) W-SW 253 1 min 0,000 mm 4,3 UV-I 603 W/m 15,9 C 12,9 km/h (3 Bft)
03.08.2016 10:14 20,8 C 20,8 C 71 % 1015,6 hPa 0,0 mm 6,3 km/h (2 Bft) W-NW 288 1 min 0,000 mm 4,3 UV-I 603 W/m 15,3 C 9,7 km/h (2 Bft)
03.08.2016 10:15 20,7 C 20,8 C 72 % 1015,6 hPa 0,0 mm 3,0 km/h (1 Bft) W-NW 295 1 min 0,000 mm 4,3 UV-I 610 W/m 15,5 C 4,8 km/h (1 Bft)
03.08.2016 10:16 20,8 C 20,8 C 73 % 1015,6 hPa 0,0 mm 4,2 km/h (1 Bft) W-NW 286 1 min 0,000 mm 4,3 UV-I 610 W/m 15,8 C 6,4 km/h (2 Bft)
03.08.2016 10:17 20,8 C 20,8 C 70 % 1015,6 hPa 0,0 mm 1,8 km/h (1 Bft) NW 322 1 min 0,000 mm 4,4 UV-I 631 W/m 15,1 C 4,8 km/h (1 Bft)
03.08.2016 10:18 20,9 C 20,9 C 72 % 1015,6 hPa 0,0 mm 1,4 km/h (1 Bft) SW 231 1 min 0,000 mm 4,5 UV-I 626 W/m 15,7 C 4,8 km/h (1 Bft)
03.08.2016 10:19 21,1 C 21,1 C 73 % 1015,6 hPa 0,0 mm 6,1 km/h (2 Bft) W-NW 292 1 min 0,000 mm 4,5 UV-I 628 W/m 16,1 C 8,0 km/h (2 Bft)
03.08.2016 10:20 21,1 C 21,1 C 69 % 1015,6 hPa 0,0 mm 6,2 km/h (2 Bft) W-NW 290 1 min 0,000 mm 4,5 UV-I 629 W/m 15,2 C 11,3 km/h (2 Bft)
03.08.2016 10:21 21,1 C 21,1 C 75 % 1015,6 hPa 0,0 mm 3,1 km/h (1 Bft) W-NW 296 1 min 0,000 mm 4,6 UV-I 638 W/m 16,5 C 4,8 km/h (1 Bft)
03.08.2016 10:22 21,1 C 21,1 C 69 % 1015,6 hPa 0,0 mm 0,3 km/h (0 Bft) W-NW 296 1 min 0,000 mm 4,6 UV-I 640 W/m 15,2 C 1,6 km/h (1 Bft)
03.08.2016 10:23 21,1 C 21,1 C 72 % 1015,6 hPa 0,0 mm 2,5 km/h (1 Bft) W-SW 256 1 min 0,000 mm 4,6 UV-I 649 W/m 15,8 C 9,7 km/h (2 Bft)
03.08.2016 10:24 21,1 C 21,1 C 70 % 1015,5 hPa 0,0 mm 2,9 km/h (1 Bft) W-NW 299 1 min 0,000 mm 4,7 UV-I 650 W/m 15,4 C 4,8 km/h (1 Bft)
03.08.2016 10:25 21,1 C 21,1 C 69 % 1015,5 hPa 0,0 mm 2,9 km/h (1 Bft) W-NW 282 1 min 0,000 mm 4,7 UV-I 652 W/m 15,2 C 4,8 km/h (1 Bft)
03.08.2016 10:26 21,1 C 21,1 C 71 % 1015,5 hPa 0,0 mm 3,1 km/h (1 Bft) W-NW 298 1 min 0,000 mm 4,7 UV-I 643 W/m 15,6 C 4,8 km/h (1 Bft)
03.08.2016 10:27 21,1 C 21,1 C 70 % 1015,4 hPa 0,0 mm 5,0 km/h (1 Bft) W 266 1 min 0,000 mm 4,8 UV-I 647 W/m 15,4 C 9,7 km/h (2 Bft)
03.08.2016 10:28 21,1 C 21,1 C 68 % 1015,5 hPa 0,0 mm 6,2 km/h (2 Bft) N 5 1 min 0,000 mm 4,7 UV-I 642 W/m 15,0 C 11,3 km/h (2 Bft)
03.08.2016 10:29 21,1 C 21,1 C 69 % 1015,4 hPa 0,0 mm 5,8 km/h (2 Bft) W 267 1 min 0,000 mm 4,7 UV-I 657 W/m 15,2 C 9,7 km/h (2 Bft)
03.08.2016 10:30 21,0 C 21,1 C 69 % 1015,5 hPa 0,0 mm 6,7 km/h (2 Bft) W-SW 253 1 min 0,000 mm 4,8 UV-I 668 W/m 15,1 C 11,3 km/h (2 Bft)
03.08.2016 10:31 21,0 C 21,0 C 69 % 1015,4 hPa 0,0 mm 4,1 km/h (1 Bft) S 178 1 min 0,000 mm 4,9 UV-I 671 W/m 15,1 C 8,0 km/h (2 Bft)
03.08.2016 10:32 20,9 C 21,0 C 67 % 1015,5 hPa 0,0 mm 3,6 km/h (1 Bft) W-SW 250 1 min 0,000 mm 4,8 UV-I 663 W/m 14,5 C 4,8 km/h (1 Bft)
03.08.2016 10:33 21,0 C 21,0 C 70 % 1015,4 hPa 0,0 mm 5,0 km/h (1 Bft) W-NW 286 1 min 0,000 mm 4,9 UV-I 656 W/m 15,3 C 8,0 km/h (2 Bft)
03.08.2016 10:34 21,1 C 21,1 C 70 % 1015,4 hPa 0,0 mm 2,4 km/h (1 Bft) W-SW 248 1 min 0,000 mm 4,8 UV-I 650 W/m 15,4 C 4,8 km/h (1 Bft)
03.08.2016 10:35 21,0 C 21,1 C 69 % 1015,4 hPa 0,0 mm 3,4 km/h (1 Bft) SO 136 1 min 0,000 mm 4,9 UV-I 661 W/m 15,1 C 4,8 km/h (1 Bft)
03.08.2016 10:36 20,9 C 21,0 C 68 % 1015,4 hPa 0,0 mm 2,0 km/h (1 Bft) S-SW 203 1 min 0,000 mm 4,9 UV-I 663 W/m 14,8 C 4,8 km/h (1 Bft)
03.08.2016 10:37 20,8 C 20,9 C 69 % 1015,4 hPa 0,0 mm 1,1 km/h (1 Bft) NW 305 1 min 0,000 mm 5,0 UV-I 675 W/m 14,9 C 3,2 km/h (1 Bft)
03.08.2016 10:38 20,8 C 20,8 C 74 % 1015,5 hPa 0,0 mm 3,4 km/h (1 Bft) W-NW 290 1 min 0,000 mm 5,0 UV-I 680 W/m 16,0 C 4,8 km/h (1 Bft)
03.08.2016 10:39 21,0 C 21,0 C 72 % 1015,4 hPa 0,0 mm 4,7 km/h (1 Bft) W-NW 282 1 min 0,000 mm 5,1 UV-I 686 W/m 15,8 C 6,4 km/h (2 Bft)
03.08.2016 10:40 21,1 C 21,1 C 68 % 1015,4 hPa 0,0 mm 4,8 km/h (1 Bft) W-SW 256 1 min 0,000 mm 5,1 UV-I 693 W/m 15,0 C 6,4 km/h (2 Bft)
03.08.2016 10:41 21,2 C 21,2 C 68 % 1015,4 hPa 0,0 mm 5,1 km/h (1 Bft) W 269 1 min 0,000 mm 5,1 UV-I 689 W/m 15,1 C 6,4 km/h (2 Bft)
03.08.2016 10:42 21,4 C 21,4 C 75 % 1015,3 hPa 0,0 mm 4,9 km/h (1 Bft) W 264 1 min 0,000 mm 5,2 UV-I 700 W/m 16,8 C 9,7 km/h (2 Bft)
03.08.2016 10:43 21,4 C 21,4 C 69 % 1015,3 hPa 0,0 mm 5,6 km/h (1 Bft) SW 226 1 min 0,000 mm 5,2 UV-I 691 W/m 15,5 C 9,7 km/h (2 Bft)
03.08.2016 10:44 21,4 C 21,4 C 68 % 1015,4 hPa 0,0 mm 4,8 km/h (1 Bft) W 269 1 min 0,000 mm 5,2 UV-I 696 W/m 15,2 C 9,7 km/h (2 Bft)
03.08.2016 10:45 21,6 C 21,6 C 73 % 1015,4 hPa 0,0 mm 5,2 km/h (1 Bft) W-SW 254 1 min 0,000 mm 5,2 UV-I 703 W/m 16,5 C 6,4 km/h (2 Bft)
03.08.2016 10:46 21,5 C 21,6 C 66 % 1015,3 hPa 0,0 mm 5,9 km/h (2 Bft) W-NW 287 1 min 0,000 mm 5,0 UV-I 657 W/m 14,9 C 9,7 km/h (2 Bft)
03.08.2016 10:47 21,4 C 21,5 C 67 % 1015,4 hPa 0,0 mm 3,4 km/h (1 Bft) NW 306 1 min 0,000 mm 5,1 UV-I 670 W/m 15,0 C 4,8 km/h (1 Bft)
03.08.2016 10:48 21,4 C 21,4 C 68 % 1015,4 hPa 0,0 mm 5,2 km/h (1 Bft) W-SW 251 1 min 0,000 mm 5,2 UV-I 691 W/m 15,2 C 11,3 km/h (2 Bft)
03.08.2016 10:49 21,5 C 21,5 C 70 % 1015,4 hPa 0,0 mm 4,6 km/h (1 Bft) SW 226 1 min 0,000 mm 5,3 UV-I 696 W/m 15,8 C 6,4 km/h (2 Bft)
03.08.2016 10:50 21,4 C 21,5 C 68 % 1015,3 hPa 0,0 mm 4,6 km/h (1 Bft) W 262 1 min 0,000 mm 5,3 UV-I 705 W/m 15,2 C 6,4 km/h (2 Bft)
03.08.2016 10:51 21,4 C 21,4 C 72 % 1015,3 hPa 0,0 mm 4,9 km/h (1 Bft) NW 310 1 min 0,000 mm 5,3 UV-I 708 W/m 16,1 C 8,0 km/h (2 Bft)
03.08.2016 10:52 21,6 C 21,6 C 68 % 1015,3 hPa 0,0 mm 2,2 km/h (1 Bft) W-NW 295 1 min 0,000 mm 5,4 UV-I 708 W/m 15,4 C 8,0 km/h (2 Bft)
03.08.2016 10:53 21,6 C 21,6 C 70 % 1015,3 hPa 0,0 mm 4,5 km/h (1 Bft) NW 318 1 min 0,000 mm 5,4 UV-I 710 W/m 15,9 C 11,3 km/h (2 Bft)
03.08.2016 10:54 21,6 C 21,6 C 68 % 1015,3 hPa 0,0 mm 6,2 km/h (2 Bft) NW 317 1 min 0,000 mm 5,3 UV-I 686 W/m 15,4 C 12,9 km/h (3 Bft)
03.08.2016 10:55 21,6 C 21,6 C 71 % 1015,3 hPa 0,0 mm 4,9 km/h (1 Bft) NW 310 1 min 0,000 mm 5,4 UV-I 693 W/m 16,1 C 6,4 km/h (2 Bft)
03.08.2016 10:56 21,5 C 21,6 C 72 % 1015,3 hPa 0,0 mm 7,4 km/h (2 Bft) NW 320 1 min 0,000 mm 5,4 UV-I 696 W/m 16,2 C 9,7 km/h (2 Bft)
03.08.2016 10:57 21,5 C 21,5 C 69 % 1015,3 hPa 0,0 mm 6,2 km/h (2 Bft) NW 308 1 min 0,000 mm 5,5 UV-I 703 W/m 15,6 C 8,0 km/h (2 Bft)
03.08.2016 10:58 21,6 C 21,6 C 71 % 1015,3 hPa 0,0 mm 7,0 km/h (2 Bft) NW 306 1 min 0,000 mm 5,5 UV-I 719 W/m 16,1 C 12,9 km/h (3 Bft)
03.08.2016 10:59 21,7 C 21,7 C 70 % 1015,3 hPa 0,0 mm 6,0 km/h (2 Bft) NW 304 1 min 0,000 mm 5,6 UV-I 722 W/m 16,0 C 9,7 km/h (2 Bft)
03.08.2016 11:00 21,7 C 21,7 C 68 % 1015,3 hPa 0,0 mm 4,0 km/h (1 Bft) W-NW 300 1 min 0,406 mm 5,6 UV-I 717 W/m 15,5 C 6,4 km/h (2 Bft)
03.08.2016 11:01 21,6 C 21,7 C 68 % 1015,3 hPa 0,0 mm 4,9 km/h (1 Bft) W 281 1 min 0,000 mm 5,5 UV-I 714 W/m 15,4 C 6,4 km/h (2 Bft)
03.08.2016 11:02 21,6 C 21,7 C 68 % 1015,3 hPa 0,0 mm 6,1 km/h (2 Bft) W-SW 250 1 min 0,000 mm 5,5 UV-I 719 W/m 15,4 C 11,3 km/h (2 Bft)
03.08.2016 11:03 21,6 C 21,6 C 66 % 1015,4 hPa 0,0 mm 6,7 km/h (2 Bft) W-NW 287 1 min 0,000 mm 5,5 UV-I 710 W/m 15,0 C 11,3 km/h (2 Bft)
03.08.2016 11:04 21,5 C 21,6 C 71 % 1015,4 hPa 0,0 mm 7,7 km/h (2 Bft) W-NW 291 1 min 0,000 mm 5,3 UV-I 629 W/m 16,0 C 11,3 km/h (2 Bft)
03.08.2016 11:05 21,5 C 21,5 C 68 % 1015,3 hPa 0,0 mm 5,0 km/h (1 Bft) N-NW 336 1 min 0,000 mm 5,0 UV-I 617 W/m 15,3 C 6,4 km/h (2 Bft)
03.08.2016 11:06 21,4 C 21,5 C 68 % 1015,3 hPa 0,0 mm 2,5 km/h (1 Bft) W 259 1 min 0,000 mm 4,8 UV-I 592 W/m 15,2 C 3,2 km/h (1 Bft)
03.08.2016 11:07 21,4 C 21,4 C 70 % 1015,3 hPa 0,0 mm 1,0 km/h (0 Bft) W 259 1 min 0,000 mm 5,0 UV-I 605 W/m 15,7 C 3,2 km/h (1 Bft)
03.08.2016 11:08 21,6 C 21,6 C 72 % 1015,4 hPa 0,0 mm 1,5 km/h (1 Bft) W-SW 250 1 min 0,000 mm 5,2 UV-I 645 W/m 16,3 C 4,8 km/h (1 Bft)
03.08.2016 11:09 21,6 C 21,6 C 68 % 1015,4 hPa 0,0 mm 5,0 km/h (1 Bft) W-SW 243 1 min 0,000 mm 5,3 UV-I 668 W/m 15,4 C 6,4 km/h (2 Bft)
03.08.2016 11:10 21,5 C 21,6 C 69 % 1015,3 hPa 0,0 mm 6,0 km/h (2 Bft) W-NW 294 1 min 0,000 mm 5,6 UV-I 710 W/m 15,6 C 9,7 km/h (2 Bft)
03.08.2016 11:11 21,5 C 21,6 C 68 % 1015,3 hPa 0,0 mm 4,2 km/h (1 Bft) NW 309 1 min 0,000 mm 5,7 UV-I 724 W/m 15,3 C 8,0 km/h (2 Bft)
03.08.2016 11:12 21,6 C 21,6 C 70 % 1015,3 hPa 0,0 mm 4,0 km/h (1 Bft) N-NW 346 1 min 0,000 mm 5,5 UV-I 687 W/m 15,9 C 8,0 km/h (2 Bft)
03.08.2016 11:13 21,8 C 21,8 C 69 % 1015,3 hPa 0,0 mm 6,2 km/h (2 Bft) NW 314 1 min 0,000 mm 5,4 UV-I 663 W/m 15,9 C 12,9 km/h (3 Bft)
03.08.2016 11:14 21,8 C 21,8 C 69 % 1015,3 hPa 0,0 mm 2,8 km/h (1 Bft) NW 315 1 min 0,000 mm 5,5 UV-I 684 W/m 15,9 C 4,8 km/h (1 Bft)
03.08.2016 11:15 21,8 C 21,8 C 69 % 1015,3 hPa 0,0 mm 4,8 km/h (1 Bft) W-NW 300 1 min 0,000 mm 5,7 UV-I 693 W/m 15,9 C 11,3 km/h (2 Bft)
03.08.2016 11:16 21,8 C 21,8 C 70 % 1015,2 hPa 0,0 mm 5,9 km/h (2 Bft) NW 318 1 min 0,000 mm 5,6 UV-I 719 W/m 16,1 C 8,0 km/h (2 Bft)
03.08.2016 11:17 21,8 C 21,9 C 70 % 1015,2 hPa 0,0 mm 8,0 km/h (2 Bft) W 266 1 min 0,000 mm 5,8 UV-I 731 W/m 16,1 C 14,5 km/h (3 Bft)
03.08.2016 11:18 21,8 C 21,8 C 68 % 1015,2 hPa 0,0 mm 7,4 km/h (2 Bft) W 263 1 min 0,000 mm 5,8 UV-I 737 W/m 15,6 C 11,3 km/h (2 Bft)
03.08.2016 11:19 21,7 C 21,8 C 70 % 1015,2 hPa 0,0 mm 4,1 km/h (1 Bft) W-NW 286 1 min 0,000 mm 5,9 UV-I 745 W/m 16,0 C 6,4 km/h (2 Bft)
03.08.2016 11:20 21,7 C 21,8 C 72 % 1015,2 hPa 0,0 mm 5,3 km/h (1 Bft) W-NW 286 1 min 0,000 mm 5,9 UV-I 749 W/m 16,4 C 6,4 km/h (2 Bft)
03.08.2016 11:21 21,7 C 21,8 C 69 % 1015,1 hPa 0,0 mm 7,1 km/h (2 Bft) W-SW 246 1 min 0,000 mm 5,9 UV-I 745 W/m 15,8 C 11,3 km/h (2 Bft)
03.08.2016 11:22 21,7 C 21,8 C 68 % 1015,1 hPa 0,0 mm 4,8 km/h (1 Bft) NW 315 1 min 0,000 mm 5,9 UV-I 733 W/m 15,5 C 8,0 km/h (2 Bft)
03.08.2016 11:23 21,8 C 21,8 C 71 % 1015,2 hPa 0,0 mm 6,7 km/h (2 Bft) NW 313 1 min 0,000 mm 5,7 UV-I 654 W/m 16,3 C 8,0 km/h (2 Bft)
03.08.2016 11:24 21,9 C 21,9 C 70 % 1015,2 hPa 0,0 mm 5,3 km/h (1 Bft) W-NW 295 1 min 0,000 mm 5,8 UV-I 717 W/m 16,2 C 8,0 km/h (2 Bft)
03.08.2016 11:25 21,8 C 21,9 C 67 % 1015,1 hPa 0,0 mm 3,2 km/h (1 Bft) NW 317 1 min 0,000 mm 5,8 UV-I 708 W/m 15,4 C 4,8 km/h (1 Bft)
03.08.2016 11:26 21,8 C 21,8 C 68 % 1015,1 hPa 0,0 mm 4,8 km/h (1 Bft) N-NO 14 1 min 0,000 mm 5,8 UV-I 710 W/m 15,6 C 11,3 km/h (2 Bft)
03.08.2016 11:27 21,8 C 21,8 C 70 % 1015,1 hPa 0,0 mm 4,2 km/h (1 Bft) W 269 1 min 0,000 mm 5,9 UV-I 745 W/m 16,1 C 4,8 km/h (1 Bft)
03.08.2016 11:28 21,9 C 21,9 C 69 % 1015,1 hPa 0,0 mm 4,9 km/h (1 Bft) W-SW 257 1 min 0,000 mm 6,1 UV-I 752 W/m 15,9 C 6,4 km/h (2 Bft)
03.08.2016 11:29 22,0 C 22,0 C 71 % 1015,2 hPa 0,0 mm 9,2 km/h (2 Bft) W-SW 246 1 min 0,000 mm 6,1 UV-I 759 W/m 16,5 C 12,9 km/h (3 Bft)
03.08.2016 11:30 21,9 C 22,0 C 67 % 1015,1 hPa 0,0 mm 10,7 km/h (2 Bft) W 270 1 min 0,000 mm 6,1 UV-I 758 W/m 15,5 C 14,5 km/h (3 Bft)
03.08.2016 11:31 21,9 C 21,9 C 68 % 1015,1 hPa 0,0 mm 5,3 km/h (1 Bft) SW 229 1 min 0,000 mm 6,1 UV-I 763 W/m 15,7 C 8,0 km/h (2 Bft)
03.08.2016 11:32 21,9 C 21,9 C 68 % 1015,1 hPa 0,0 mm 6,3 km/h (2 Bft) W-SW 243 1 min 0,000 mm 5,9 UV-I 726 W/m 15,7 C 12,9 km/h (3 Bft)
03.08.2016 11:33 21,8 C 21,9 C 66 % 1015,1 hPa 0,0 mm 8,1 km/h (2 Bft) W-SW 244 1 min 0,000 mm 5,9 UV-I 742 W/m 15,2 C 12,9 km/h (3 Bft)
03.08.2016 11:34 21,8 C 21,8 C 67 % 1015,1 hPa 0,0 mm 3,3 km/h (1 Bft) W 275 1 min 0,000 mm 6,2 UV-I 763 W/m 15,4 C 4,8 km/h (1 Bft)
03.08.2016 11:35 21,8 C 21,8 C 65 % 1015,1 hPa 0,0 mm 1,6 km/h (1 Bft) W 276 1 min 0,000 mm 6,3 UV-I 784 W/m 14,9 C 3,2 km/h (1 Bft)
03.08.2016 11:36 21,8 C 21,8 C 68 % 1015,2 hPa 0,0 mm 4,7 km/h (1 Bft) W 263 1 min 0,000 mm 6,2 UV-I 751 W/m 15,6 C 9,7 km/h (2 Bft)
03.08.2016 11:37 22,0 C 22,0 C 71 % 1015,2 hPa 0,0 mm 5,3 km/h (1 Bft) W 266 1 min 0,000 mm 6,3 UV-I 788 W/m 16,5 C 6,4 km/h (2 Bft)
03.08.2016 11:38 22,2 C 22,2 C 68 % 1015,1 hPa 0,0 mm 3,9 km/h (1 Bft) W 268 1 min 0,000 mm 6,3 UV-I 777 W/m 16,0 C 4,8 km/h (1 Bft)
03.08.2016 11:39 22,1 C 22,2 C 67 % 1015,1 hPa 0,0 mm 4,4 km/h (1 Bft) W-NW 289 1 min 0,000 mm 6,4 UV-I 796 W/m 15,7 C 6,4 km/h (2 Bft)
03.08.2016 11:40 22,2 C 22,2 C 68 % 1015,1 hPa 0,0 mm 5,5 km/h (1 Bft) W-NW 288 1 min 0,000 mm 6,4 UV-I 784 W/m 16,0 C 8,0 km/h (2 Bft)
03.08.2016 11:41 22,1 C 22,2 C 64 % 1015,1 hPa 0,0 mm 3,8 km/h (1 Bft) W-NW 295 1 min 0,000 mm 6,4 UV-I 768 W/m 15,0 C 6,4 km/h (2 Bft)
03.08.2016 11:42 22,1 C 22,1 C 66 % 1015,2 hPa 0,0 mm 5,1 km/h (1 Bft) W-NW 288 1 min 0,000 mm 6,3 UV-I 766 W/m 15,4 C 6,4 km/h (2 Bft)
03.08.2016 11:43 22,0 C 22,1 C 65 % 1015,1 hPa 0,0 mm 2,2 km/h (1 Bft) W-NW 283 1 min 0,000 mm 6,3 UV-I 791 W/m 15,1 C 6,4 km/h (2 Bft)
03.08.2016 11:44 22,0 C 22,0 C 68 % 1015,1 hPa 0,0 mm 1,7 km/h (1 Bft) NW 306 1 min 0,000 mm 6,1 UV-I 729 W/m 15,8 C 3,2 km/h (1 Bft)
03.08.2016 11:45 22,0 C 22,0 C 65 % 1015,1 hPa 0,0 mm 2,3 km/h (1 Bft) N-NW 338 1 min 0,000 mm 6,1 UV-I 650 W/m 15,1 C 3,2 km/h (1 Bft)
03.08.2016 11:46 22,1 C 22,1 C 66 % 1015,1 hPa 0,0 mm 1,4 km/h (1 Bft) NW 324 1 min 0,000 mm 5,9 UV-I 650 W/m 15,4 C 3,2 km/h (1 Bft)
03.08.2016 11:47 22,1 C 22,1 C 66 % 1015,1 hPa 0,0 mm 0,1 km/h (0 Bft) N-NW 328 1 min 0,000 mm 6,3 UV-I 650 W/m 15,4 C 1,6 km/h (1 Bft)
03.08.2016 11:48 22,2 C 22,2 C 68 % 1015,1 hPa 0,0 mm 2,9 km/h (1 Bft) W 281 1 min 0,000 mm 6,3 UV-I 773 W/m 16,0 C 4,8 km/h (1 Bft)
03.08.2016 11:49 22,3 C 22,3 C 69 % 1015,1 hPa 0,0 mm 6,5 km/h (2 Bft) NW 306 1 min 0,000 mm 6,0 UV-I 707 W/m 16,3 C 11,3 km/h (2 Bft)
03.08.2016 11:50 22,4 C 22,4 C 68 % 1015,1 hPa 0,0 mm 5,6 km/h (1 Bft) W-NW 296 1 min 0,000 mm 6,4 UV-I 770 W/m 16,2 C 8,0 km/h (2 Bft)
03.08.2016 11:51 22,6 C 22,6 C 73 % 1015,0 hPa 0,0 mm 5,6 km/h (1 Bft) NW 324 1 min 0,000 mm 6,5 UV-I 819 W/m 17,5 C 8,0 km/h (2 Bft)
03.08.2016 11:52 22,6 C 22,6 C 68 % 1015,0 hPa 0,0 mm 3,9 km/h (1 Bft) W-NW 300 1 min 0,000 mm 6,4 UV-I 788 W/m 16,4 C 6,4 km/h (2 Bft)
03.08.2016 11:53 22,5 C 22,6 C 64 % 1015,0 hPa 0,0 mm 1,1 km/h (1 Bft) W-NW 299 1 min 0,000 mm 6,4 UV-I 798 W/m 15,3 C 1,6 km/h (1 Bft)
03.08.2016 11:54 22,5 C 22,6 C 70 % 1015,0 hPa 0,0 mm 1,7 km/h (1 Bft) W-NW 299 1 min 0,000 mm 6,1 UV-I 714 W/m 16,7 C 3,2 km/h (1 Bft)
03.08.2016 11:55 22,4 C 22,5 C 64 % 1015,0 hPa 0,0 mm 2,4 km/h (1 Bft) W-NW 295 1 min 0,000 mm 5,7 UV-I 664 W/m 15,2 C 3,2 km/h (1 Bft)
03.08.2016 11:56 22,3 C 22,4 C 64 % 1015,0 hPa 0,0 mm 2,2 km/h (1 Bft) N-NW 335 1 min 0,000 mm 5,9 UV-I 691 W/m 15,2 C 4,8 km/h (1 Bft)
03.08.2016 11:57 22,3 C 22,3 C 68 % 1015,0 hPa 0,0 mm 3,4 km/h (1 Bft) N 5 1 min 0,000 mm 5,9 UV-I 703 W/m 16,1 C 4,8 km/h (1 Bft)
03.08.2016 11:58 22,4 C 22,4 C 65 % 1015,0 hPa 0,0 mm 4,1 km/h (1 Bft) N-NW 344 1 min 0,000 mm 6,4 UV-I 733 W/m 15,5 C 6,4 km/h (2 Bft)
03.08.2016 11:59 22,6 C 22,6 C 66 % 1015,0 hPa 0,0 mm 3,3 km/h (1 Bft) N-NW 348 1 min 0,000 mm 6,5 UV-I 782 W/m 15,9 C 4,8 km/h (1 Bft)
03.08.2016 12:00 22,7 C 22,7 C 66 % 1014,9 hPa 0,0 mm 3,8 km/h (1 Bft) N-NW 342 1 min 0,458 mm 6,6 UV-I 793 W/m 16,0 C 4,8 km/h (1 Bft)
03.08.2016 12:01 22,7 C 22,7 C 66 % 1015,0 hPa 0,0 mm 3,8 km/h (1 Bft) NW 323 1 min 0,000 mm 6,3 UV-I 763 W/m 16,0 C 6,4 km/h (2 Bft)
03.08.2016 12:02 22,7 C 22,7 C 64 % 1014,9 hPa 0,0 mm 2,3 km/h (1 Bft) NW 323 1 min 0,000 mm 6,4 UV-I 745 W/m 15,5 C 3,2 km/h (1 Bft)
03.08.2016 12:03 22,7 C 22,7 C 66 % 1014,9 hPa 0,0 mm 0,9 km/h (0 Bft) N-NW 327 1 min 0,000 mm 6,7 UV-I 830 W/m 16,0 C 1,6 km/h (1 Bft)
03.08.2016 12:04 22,7 C 22,7 C 67 % 1014,9 hPa 0,0 mm 1,3 km/h (1 Bft) N-NW 327 1 min 0,000 mm 6,6 UV-I 802 W/m 16,2 C 3,2 km/h (1 Bft)
03.08.2016 12:05 22,7 C 22,7 C 70 % 1014,9 hPa 0,0 mm 1,6 km/h (1 Bft) NW 326 1 min 0,000 mm 6,4 UV-I 780 W/m 16,9 C 3,2 km/h (1 Bft)
03.08.2016 12:06 22,7 C 22,7 C 64 % 1014,9 hPa 0,0 mm 1,7 km/h (1 Bft) O-NO 61 1 min 0,000 mm 6,7 UV-I 816 W/m 15,5 C 3,2 km/h (1 Bft)
03.08.2016 12:07 22,6 C 22,7 C 65 % 1014,9 hPa 0,0 mm 0,6 km/h (0 Bft) O-NO 61 1 min 0,000 mm 6,7 UV-I 788 W/m 15,7 C 1,6 km/h (1 Bft)
03.08.2016 12:08 22,4 C 22,6 C 66 % 1014,8 hPa 0,0 mm 1,1 km/h (1 Bft) O-NO 61 1 min 0,000 mm 6,8 UV-I 821 W/m 15,7 C 3,2 km/h (1 Bft)
03.08.2016 12:09 22,6 C 22,6 C 71 % 1014,8 hPa 0,0 mm 2,1 km/h (1 Bft) NO 46 1 min 0,000 mm 6,8 UV-I 833 W/m 17,1 C 3,2 km/h (1 Bft)
03.08.2016 12:10 22,7 C 22,7 C 66 % 1014,8 hPa 0,0 mm 2,0 km/h (1 Bft) N-NO 12 1 min 0,000 mm 7,0 UV-I 835 W/m 16,0 C 4,8 km/h (1 Bft)
03.08.2016 12:11 22,8 C 22,8 C 65 % 1014,8 hPa 0,0 mm 2,7 km/h (1 Bft) N-NW 333 1 min 0,000 mm 6,7 UV-I 817 W/m 15,9 C 4,8 km/h (1 Bft)
03.08.2016 12:12 22,9 C 22,9 C 67 % 1014,8 hPa 0,0 mm 3,1 km/h (1 Bft) W 280 1 min 0,000 mm 7,0 UV-I 833 W/m 16,4 C 6,4 km/h (2 Bft)
03.08.2016 12:13 23,0 C 23,0 C 67 % 1014,9 hPa 0,0 mm 3,6 km/h (1 Bft) W 278 1 min 0,000 mm 7,0 UV-I 830 W/m 16,5 C 6,4 km/h (2 Bft)
03.08.2016 12:14 23,1 C 23,1 C 68 % 1014,8 hPa 0,0 mm 3,6 km/h (1 Bft) W-NW 285 1 min 0,000 mm 6,8 UV-I 816 W/m 16,9 C 4,8 km/h (1 Bft)
03.08.2016 12:15 23,0 C 23,1 C 64 % 1014,8 hPa 0,0 mm 5,0 km/h (1 Bft) W-NW 295 1 min 0,000 mm 7,0 UV-I 840 W/m 15,8 C 8,0 km/h (2 Bft)
03.08.2016 12:16 23,0 C 23,0 C 68 % 1014,8 hPa 0,0 mm 3,7 km/h (1 Bft) W-NW 288 1 min 0,000 mm 7,0 UV-I 844 W/m 16,8 C 4,8 km/h (1 Bft)
03.08.2016 12:17 23,0 C 23,1 C 65 % 1014,7 hPa 0,0 mm 4,0 km/h (1 Bft) W-NW 292 1 min 0,000 mm 7,0 UV-I 849 W/m 16,1 C 6,4 km/h (2 Bft)
03.08.2016 12:18 23,1 C 23,1 C 67 % 1014,8 hPa 0,0 mm 3,6 km/h (1 Bft) W-NW 282 1 min 0,000 mm 6,9 UV-I 842 W/m 16,6 C 6,4 km/h (2 Bft)
03.08.2016 12:19 23,1 C 23,1 C 66 % 1014,8 hPa 0,0 mm 1,6 km/h (1 Bft) W 274 1 min 0,000 mm 6,7 UV-I 793 W/m 16,4 C 3,2 km/h (1 Bft)
03.08.2016 12:20 22,9 C 23,1 C 64 % 1014,8 hPa 0,0 mm 1,9 km/h (1 Bft) W-SW 253 1 min 0,000 mm 6,9 UV-I 782 W/m 15,7 C 3,2 km/h (1 Bft)
03.08.2016 12:21 22,8 C 22,9 C 65 % 1014,8 hPa 0,0 mm 0,7 km/h (0 Bft) W-SW 238 1 min 0,000 mm 7,1 UV-I 847 W/m 15,9 C 1,6 km/h (1 Bft)
03.08.2016 12:22 22,9 C 22,9 C 67 % 1014,8 hPa 0,0 mm 1,0 km/h (0 Bft) SW 236 1 min 0,000 mm 7,2 UV-I 851 W/m 16,4 C 3,2 km/h (1 Bft)
03.08.2016 12:23 22,8 C 22,9 C 67 % 1014,8 hPa 0,0 mm 2,4 km/h (1 Bft) SW 231 1 min 0,000 mm 7,2 UV-I 868 W/m 16,3 C 6,4 km/h (2 Bft)
03.08.2016 12:24 22,7 C 22,8 C 66 % 1014,8 hPa 0,0 mm 2,2 km/h (1 Bft) W-SW 255 1 min 0,000 mm 7,2 UV-I 860 W/m 16,0 C 3,2 km/h (1 Bft)
03.08.2016 12:25 22,7 C 22,7 C 65 % 1014,8 hPa 0,0 mm 3,0 km/h (1 Bft) W 268 1 min 0,000 mm 7,2 UV-I 846 W/m 15,8 C 4,8 km/h (1 Bft)
03.08.2016 12:26 22,8 C 22,8 C 67 % 1014,8 hPa 0,0 mm 3,1 km/h (1 Bft) NW 319 1 min 0,000 mm 7,1 UV-I 842 W/m 16,3 C 4,8 km/h (1 Bft)
03.08.2016 12:27 22,9 C 22,9 C 66 % 1014,8 hPa 0,0 mm 4,0 km/h (1 Bft) W-NW 285 1 min 0,000 mm 7,1 UV-I 840 W/m 16,2 C 6,4 km/h (2 Bft)
03.08.2016 12:28 22,9 C 22,9 C 64 % 1014,7 hPa 0,0 mm 3,8 km/h (1 Bft) N 355 1 min 0,000 mm 7,2 UV-I 842 W/m 15,7 C 6,4 km/h (2 Bft)
03.08.2016 12:29 23,1 C 23,1 C 65 % 1014,7 hPa 0,0 mm 4,7 km/h (1 Bft) NW 306 1 min 0,000 mm 7,1 UV-I 814 W/m 16,2 C 6,4 km/h (2 Bft)
03.08.2016 12:30 23,1 C 23,1 C 63 % 1014,7 hPa 0,0 mm 3,2 km/h (1 Bft) N 355 1 min 0,000 mm 7,0 UV-I 824 W/m 15,7 C 4,8 km/h (1 Bft)
03.08.2016 12:31 23,2 C 23,2 C 67 % 1014,7 hPa 0,0 mm 6,4 km/h (2 Bft) W-NW 296 1 min 0,000 mm 6,9 UV-I 826 W/m 16,7 C 9,7 km/h (2 Bft)
03.08.2016 12:32 23,3 C 23,3 C 68 % 1014,7 hPa 0,0 mm 5,4 km/h (1 Bft) NW 319 1 min 0,000 mm 7,0 UV-I 830 W/m 17,1 C 8,0 km/h (2 Bft)
03.08.2016 12:33 23,3 C 23,3 C 65 % 1014,7 hPa 0,0 mm 6,6 km/h (2 Bft) N-NO 13 1 min 0,000 mm 7,0 UV-I 817 W/m 16,3 C 8,0 km/h (2 Bft)
03.08.2016 12:34 23,3 C 23,4 C 63 % 1014,7 hPa 0,0 mm 4,4 km/h (1 Bft) N 5 1 min 0,000 mm 7,2 UV-I 838 W/m 15,9 C 8,0 km/h (2 Bft)
03.08.2016 12:35 23,3 C 23,4 C 64 % 1014,7 hPa 0,0 mm 5,5 km/h (1 Bft) N 5 1 min 0,000 mm 7,1 UV-I 858 W/m 16,1 C 8,0 km/h (2 Bft)
03.08.2016 12:36 23,3 C 23,3 C 63 % 1014,7 hPa 0,0 mm 6,2 km/h (2 Bft) N-NO 13 1 min 0,000 mm 7,1 UV-I 835 W/m 15,9 C 9,7 km/h (2 Bft)
03.08.2016 12:37 23,4 C 23,4 C 66 % 1014,7 hPa 0,0 mm 5,4 km/h (1 Bft) N-NO 29 1 min 0,000 mm 7,2 UV-I 865 W/m 16,7 C 8,0 km/h (2 Bft)
03.08.2016 12:38 23,4 C 23,4 C 64 % 1014,7 hPa 0,0 mm 2,3 km/h (1 Bft) N 5 1 min 0,000 mm 7,2 UV-I 846 W/m 16,2 C 4,8 km/h (1 Bft)
03.08.2016 12:39 23,3 C 23,4 C 62 % 1014,6 hPa 0,0 mm 0,5 km/h (0 Bft) N 5 1 min 0,000 mm 6,9 UV-I 812 W/m 15,6 C 1,6 km/h (1 Bft)
03.08.2016 12:40 23,3 C 23,3 C 71 % 1014,6 hPa 0,0 mm 1,1 km/h (1 Bft) N-NO 32 1 min 0,000 mm 6,8 UV-I 780 W/m 17,7 C 3,2 km/h (1 Bft)
03.08.2016 12:41 23,3 C 23,3 C 64 % 1014,6 hPa 0,0 mm 3,5 km/h (1 Bft) O-NO 59 1 min 0,000 mm 7,0 UV-I 786 W/m 16,1 C 4,8 km/h (1 Bft)
03.08.2016 12:42 23,2 C 23,3 C 65 % 1014,6 hPa 0,0 mm 2,0 km/h (1 Bft) NO 55 1 min 0,000 mm 7,0 UV-I 823 W/m 16,2 C 4,8 km/h (1 Bft)
03.08.2016 12:43 23,1 C 23,2 C 62 % 1014,5 hPa 0,0 mm 2,5 km/h (1 Bft) NO 50 1 min 0,000 mm 7,0 UV-I 824 W/m 15,4 C 4,8 km/h (1 Bft)
03.08.2016 12:44 23,1 C 23,1 C 66 % 1014,5 hPa 0,0 mm 2,6 km/h (1 Bft) NO 53 1 min 0,000 mm 7,0 UV-I 800 W/m 16,4 C 3,2 km/h (1 Bft)
03.08.2016 12:45 23,1 C 23,1 C 64 % 1014,5 hPa 0,0 mm 3,8 km/h (1 Bft) O-SO 120 1 min 0,000 mm 6,9 UV-I 786 W/m 15,9 C 4,8 km/h (1 Bft)
03.08.2016 12:46 23,0 C 23,1 C 63 % 1014,6 hPa 0,0 mm 1,8 km/h (1 Bft) N-NO 33 1 min 0,000 mm 6,8 UV-I 780 W/m 15,6 C 3,2 km/h (1 Bft)
03.08.2016 12:47 23,0 C 23,0 C 65 % 1014,6 hPa 0,0 mm 4,0 km/h (1 Bft) NO 46 1 min 0,000 mm 7,0 UV-I 800 W/m 16,1 C 4,8 km/h (1 Bft)
03.08.2016 12:48 22,9 C 23,0 C 68 % 1014,5 hPa 0,0 mm 1,7 km/h (1 Bft) NO 56 1 min 0,000 mm 6,8 UV-I 798 W/m 16,7 C 3,2 km/h (1 Bft)
03.08.2016 12:49 22,9 C 23,0 C 63 % 1014,5 hPa 0,0 mm 1,5 km/h (1 Bft) NO 43 1 min 0,000 mm 6,8 UV-I 798 W/m 15,5 C 3,2 km/h (1 Bft)
03.08.2016 12:50 22,9 C 22,9 C 66 % 1014,5 hPa 0,0 mm 0,7 km/h (0 Bft) NO 43 1 min 0,000 mm 6,9 UV-I 807 W/m 16,2 C 1,6 km/h (1 Bft)
03.08.2016 12:51 23,0 C 23,0 C 63 % 1014,5 hPa 0,0 mm 1,5 km/h (1 Bft) O 81 1 min 0,000 mm 6,4 UV-I 726 W/m 15,6 C 3,2 km/h (1 Bft)
03.08.2016 12:52 23,1 C 23,1 C 64 % 1014,5 hPa 0,0 mm 0,6 km/h (0 Bft) O 81 1 min 0,000 mm 6,7 UV-I 724 W/m 15,9 C 1,6 km/h (1 Bft)
03.08.2016 12:53 23,1 C 23,1 C 66 % 1014,4 hPa 0,0 mm 2,0 km/h (1 Bft) O 80 1 min 0,000 mm 7,1 UV-I 807 W/m 16,4 C 6,4 km/h (2 Bft)
03.08.2016 12:54 23,0 C 23,1 C 69 % 1014,4 hPa 0,0 mm 6,1 km/h (2 Bft) O 93 1 min 0,000 mm 7,0 UV-I 814 W/m 17,0 C 8,0 km/h (2 Bft)
03.08.2016 12:55 23,0 C 23,0 C 62 % 1014,4 hPa 0,0 mm 3,4 km/h (1 Bft) O-NO 70 1 min 0,000 mm 7,0 UV-I 817 W/m 15,3 C 4,8 km/h (1 Bft)
03.08.2016 12:56 23,1 C 23,1 C 66 % 1014,4 hPa 0,0 mm 2,9 km/h (1 Bft) O 88 1 min 0,000 mm 7,2 UV-I 851 W/m 16,4 C 4,8 km/h (1 Bft)
03.08.2016 12:57 23,2 C 23,2 C 67 % 1014,3 hPa 0,0 mm 2,3 km/h (1 Bft) O-SO 119 1 min 0,000 mm 7,1 UV-I 823 W/m 16,7 C 4,8 km/h (1 Bft)
03.08.2016 12:58 23,2 C 23,2 C 70 % 1014,3 hPa 0,0 mm 1,9 km/h (1 Bft) S-SO 153 1 min 0,000 mm 7,1 UV-I 821 W/m 17,4 C 3,2 km/h (1 Bft)
03.08.2016 12:59 23,3 C 23,3 C 63 % 1014,3 hPa 0,0 mm 0,7 km/h (0 Bft) O 80 1 min 0,000 mm 7,2 UV-I 819 W/m 15,9 C 3,2 km/h (1 Bft)
03.08.2016 13:00 23,3 C 23,3 C 65 % 1014,3 hPa 0,0 mm 5,9 km/h (2 Bft) N-NO 19 1 min 0,000 mm 7,2 UV-I 819 W/m 16,3 C 11,3 km/h (2 Bft)
03.08.2016 13:01 23,5 C 23,5 C 62 % 1014,3 hPa 0,0 mm 4,9 km/h (1 Bft) N 5 1 min 0,508 mm 7,1 UV-I 833 W/m 15,8 C 6,4 km/h (2 Bft)
03.08.2016 13:02 23,7 C 23,7 C 66 % 1014,3 hPa 0,0 mm 5,3 km/h (1 Bft) N-NW 344 1 min 0,000 mm 7,2 UV-I 838 W/m 17,0 C 8,0 km/h (2 Bft)
03.08.2016 13:03 23,9 C 23,9 C 62 % 1014,3 hPa 0,0 mm 2,6 km/h (1 Bft) N-NO 13 1 min 0,000 mm 7,2 UV-I 842 W/m 16,2 C 4,8 km/h (1 Bft)
03.08.2016 13:04 24,1 C 24,1 C 61 % 1014,3 hPa 0,0 mm 6,0 km/h (2 Bft) W-NW 297 1 min 0,000 mm 7,2 UV-I 824 W/m 16,1 C 11,3 km/h (2 Bft)
03.08.2016 13:05 24,1 C 24,1 C 64 % 1014,3 hPa 0,0 mm 4,8 km/h (1 Bft) NW 309 1 min 0,000 mm 7,2 UV-I 844 W/m 16,9 C 6,4 km/h (2 Bft)
03.08.2016 13:06 23,9 C 24,1 C 59 % 1014,3 hPa 0,0 mm 2,7 km/h (1 Bft) W-NW 288 1 min 0,000 mm 7,2 UV-I 837 W/m 15,4 C 4,8 km/h (1 Bft)
03.08.2016 13:07 23,8 C 23,9 C 62 % 1014,2 hPa 0,0 mm 1,4 km/h (1 Bft) N-NO 17 1 min 0,000 mm 7,4 UV-I 861 W/m 16,1 C 4,8 km/h (1 Bft)
03.08.2016 13:08 23,8 C 23,8 C 62 % 1014,2 hPa 0,0 mm 1,6 km/h (1 Bft) N-NO 17 1 min 0,000 mm 7,4 UV-I 865 W/m 16,1 C 3,2 km/h (1 Bft)
03.08.2016 13:09 23,8 C 23,8 C 63 % 1014,3 hPa 0,0 mm 3,4 km/h (1 Bft) N-NW 329 1 min 0,000 mm 7,2 UV-I 831 W/m 16,3 C 4,8 km/h (1 Bft)
03.08.2016 13:10 23,9 C 23,9 C 63 % 1014,2 hPa 0,0 mm 9,7 km/h (2 Bft) NW 316 1 min 0,000 mm 7,3 UV-I 851 W/m 16,4 C 14,5 km/h (3 Bft)
03.08.2016 13:11 23,9 C 23,9 C 63 % 1014,3 hPa 0,0 mm 4,3 km/h (1 Bft) N 355 1 min 0,000 mm 7,3 UV-I 842 W/m 16,4 C 6,4 km/h (2 Bft)
03.08.2016 13:12 24,0 C 24,0 C 62 % 1014,3 hPa 0,0 mm 4,2 km/h (1 Bft) N 355 1 min 0,000 mm 7,4 UV-I 860 W/m 16,3 C 6,4 km/h (2 Bft)
03.08.2016 13:13 23,9 C 24,1 C 59 % 1014,2 hPa 0,0 mm 2,7 km/h (1 Bft) O-SO 109 1 min 0,000 mm 7,4 UV-I 858 W/m 15,4 C 4,8 km/h (1 Bft)
03.08.2016 13:14 23,8 C 23,9 C 59 % 1014,2 hPa 0,0 mm 3,8 km/h (1 Bft) W 272 1 min 0,000 mm 7,4 UV-I 858 W/m 15,3 C 9,7 km/h (2 Bft)
03.08.2016 13:15 23,8 C 23,8 C 61 % 1014,2 hPa 0,0 mm 3,7 km/h (1 Bft) W-NW 302 1 min 0,000 mm 7,5 UV-I 867 W/m 15,8 C 4,8 km/h (1 Bft)
03.08.2016 13:16 23,7 C 23,8 C 65 % 1014,2 hPa 0,0 mm 4,7 km/h (1 Bft) N 360 1 min 0,000 mm 7,3 UV-I 853 W/m 16,7 C 6,4 km/h (2 Bft)
03.08.2016 13:17 23,9 C 23,9 C 64 % 1014,3 hPa 0,0 mm 4,6 km/h (1 Bft) N 355 1 min 0,000 mm 7,3 UV-I 837 W/m 16,7 C 6,4 km/h (2 Bft)
03.08.2016 13:18 24,1 C 24,1 C 61 % 1014,2 hPa 0,0 mm 3,6 km/h (1 Bft) N 360 1 min 0,000 mm 7,3 UV-I 835 W/m 16,1 C 8,0 km/h (2 Bft)
03.08.2016 13:19 24,1 C 24,1 C 61 % 1014,3 hPa 0,0 mm 4,7 km/h (1 Bft) NO 44 1 min 0,000 mm 7,3 UV-I 840 W/m 16,1 C 8,0 km/h (2 Bft)
03.08.2016 13:20 24,1 C 24,1 C 60 % 1014,3 hPa 0,0 mm 3,0 km/h (1 Bft) NO 45 1 min 0,000 mm 7,0 UV-I 798 W/m 15,8 C 4,8 km/h (1 Bft)
03.08.2016 13:21 23,9 C 24,1 C 59 % 1014,3 hPa 0,0 mm 3,8 km/h (1 Bft) O-NO 63 1 min 0,000 mm 6,9 UV-I 765 W/m 15,4 C 6,4 km/h (2 Bft)
03.08.2016 13:22 23,9 C 24,0 C 60 % 1014,3 hPa 0,0 mm 3,9 km/h (1 Bft) O 80 1 min 0,000 mm 6,9 UV-I 784 W/m 15,7 C 4,8 km/h (1 Bft)
03.08.2016 13:23 23,9 C 23,9 C 65 % 1014,2 hPa 0,0 mm 1,9 km/h (1 Bft) NO 54 1 min 0,000 mm 7,0 UV-I 812 W/m 16,9 C 4,8 km/h (1 Bft)
03.08.2016 13:24 23,9 C 23,9 C 69 % 1014,3 hPa 0,0 mm 2,4 km/h (1 Bft) NO 48 1 min 0,000 mm 7,1 UV-I 846 W/m 17,9 C 3,2 km/h (1 Bft)
03.08.2016 13:25 23,9 C 23,9 C 69 % 1014,3 hPa 0,0 mm 2,1 km/h (1 Bft) N-NO 21 1 min 0,000 mm 7,0 UV-I 795 W/m 17,9 C 3,2 km/h (1 Bft)
03.08.2016 13:26 24,1 C 24,1 C 69 % 1014,3 hPa 0,0 mm 1,9 km/h (1 Bft) N-NO 21 1 min 0,000 mm 7,0 UV-I 802 W/m 18,0 C 3,2 km/h (1 Bft)
03.08.2016 13:27 24,2 C 24,2 C 65 % 1014,3 hPa 0,0 mm 6,5 km/h (2 Bft) NW 304 1 min 0,000 mm 7,2 UV-I 830 W/m 17,2 C 12,9 km/h (3 Bft)
03.08.2016 13:28 24,4 C 24,4 C 63 % 1014,2 hPa 0,0 mm 7,2 km/h (2 Bft) NW 322 1 min 0,000 mm 7,4 UV-I 861 W/m 16,9 C 9,7 km/h (2 Bft)
03.08.2016 13:29 24,6 C 24,6 C 60 % 1014,2 hPa 0,0 mm 4,9 km/h (1 Bft) NW 306 1 min 0,000 mm 7,3 UV-I 874 W/m 16,3 C 11,3 km/h (2 Bft)
03.08.2016 13:30 24,7 C 24,7 C 64 % 1014,2 hPa 0,0 mm 8,4 km/h (2 Bft) W-NW 300 1 min 0,000 mm 7,4 UV-I 868 W/m 17,4 C 14,5 km/h (3 Bft)
03.08.2016 13:31 24,7 C 24,7 C 61 % 1014,2 hPa 0,0 mm 8,5 km/h (2 Bft) N-NW 335 1 min 0,000 mm 7,2 UV-I 849 W/m 16,7 C 12,9 km/h (3 Bft)
03.08.2016 13:32 24,5 C 24,7 C 58 % 1014,2 hPa 0,0 mm 6,9 km/h (2 Bft) W-NW 290 1 min 0,000 mm 7,4 UV-I 837 W/m 15,7 C 11,3 km/h (2 Bft)
03.08.2016 13:33 24,3 C 24,5 C 57 % 1014,2 hPa 0,0 mm 4,8 km/h (1 Bft) W-NW 285 1 min 0,000 mm 7,2 UV-I 837 W/m 15,2 C 9,7 km/h (2 Bft)
03.08.2016 13:34 24,2 C 24,3 C 61 % 1014,2 hPa 0,0 mm 10,5 km/h (2 Bft) NW 319 1 min 0,000 mm 7,4 UV-I 854 W/m 16,2 C 14,5 km/h (3 Bft)
03.08.2016 13:35 24,2 C 24,2 C 60 % 1014,3 hPa 0,0 mm 7,2 km/h (2 Bft) W 268 1 min 0,000 mm 7,4 UV-I 858 W/m 15,9 C 11,3 km/h (2 Bft)
03.08.2016 13:36 24,1 C 24,2 C 60 % 1014,3 hPa 0,0 mm 9,3 km/h (2 Bft) W 271 1 min 0,000 mm 7,3 UV-I 837 W/m 15,8 C 14,5 km/h (3 Bft)
03.08.2016 13:37 24,0 C 24,1 C 60 % 1014,3 hPa 0,0 mm 6,6 km/h (2 Bft) W-NW 286 1 min 0,000 mm 6,8 UV-I 765 W/m 15,7 C 12,9 km/h (3 Bft)
03.08.2016 13:38 23,9 C 24,0 C 62 % 1014,3 hPa 0,0 mm 5,0 km/h (1 Bft) W 272 1 min 0,000 mm 6,8 UV-I 788 W/m 16,2 C 6,4 km/h (2 Bft)
03.08.2016 13:39 24,0 C 24,0 C 63 % 1014,3 hPa 0,0 mm 6,9 km/h (2 Bft) W 277 1 min 0,000 mm 6,9 UV-I 756 W/m 16,5 C 11,3 km/h (2 Bft)
03.08.2016 13:40 23,9 C 24,0 C 58 % 1014,2 hPa 0,0 mm 3,0 km/h (1 Bft) W 272 1 min 0,000 mm 7,3 UV-I 846 W/m 15,1 C 4,8 km/h (1 Bft)
03.08.2016 13:41 23,8 C 23,9 C 63 % 1014,2 hPa 0,0 mm 5,0 km/h (1 Bft) W 275 1 min 0,000 mm 7,2 UV-I 846 W/m 16,3 C 9,7 km/h (2 Bft)
03.08.2016 13:42 23,8 C 23,8 C 58 % 1014,3 hPa 0,0 mm 9,4 km/h (2 Bft) W-NW 291 1 min 0,000 mm 7,2 UV-I 817 W/m 15,0 C 12,9 km/h (3 Bft)
03.08.2016 13:43 23,8 C 23,8 C 59 % 1014,3 hPa 0,0 mm 10,1 km/h (2 Bft) W-NW 296 1 min 0,000 mm 7,3 UV-I 840 W/m 15,3 C 14,5 km/h (3 Bft)
03.08.2016 13:44 23,8 C 23,8 C 62 % 1014,3 hPa 0,0 mm 6,5 km/h (2 Bft) W 275 1 min 0,000 mm 7,4 UV-I 842 W/m 16,1 C 11,3 km/h (2 Bft)
03.08.2016 13:45 23,9 C 23,9 C 63 % 1014,3 hPa 0,0 mm 3,8 km/h (1 Bft) W 268 1 min 0,000 mm 7,3 UV-I 854 W/m 16,4 C 11,3 km/h (2 Bft)
03.08.2016 13:46 24,1 C 24,1 C 63 % 1014,2 hPa 0,0 mm 7,2 km/h (2 Bft) NW 309 1 min 0,000 mm 7,4 UV-I 856 W/m 16,6 C 11,3 km/h (2 Bft)
03.08.2016 13:47 24,2 C 24,2 C 65 % 1014,2 hPa 0,0 mm 9,7 km/h (2 Bft) W-NW 300 1 min 0,000 mm 7,4 UV-I 861 W/m 17,2 C 16,1 km/h (3 Bft)
03.08.2016 13:48 24,3 C 24,3 C 61 % 1014,2 hPa 0,0 mm 12,0 km/h (2 Bft) W 278 1 min 0,000 mm 7,4 UV-I 868 W/m 16,3 C 14,5 km/h (3 Bft)
03.08.2016 13:49 24,5 C 24,5 C 61 % 1014,2 hPa 0,0 mm 9,7 km/h (2 Bft) W-NW 294 1 min 0,000 mm 7,4 UV-I 861 W/m 16,5 C 14,5 km/h (3 Bft)
03.08.2016 13:50 24,7 C 24,7 C 62 % 1014,2 hPa 0,0 mm 7,9 km/h (2 Bft) NW 323 1 min 0,000 mm 7,2 UV-I 840 W/m 16,9 C 12,9 km/h (3 Bft)
03.08.2016 13:51 24,7 C 24,7 C 63 % 1014,2 hPa 0,0 mm 4,9 km/h (1 Bft) W-NW 283 1 min 0,000 mm 7,3 UV-I 840 W/m 17,2 C 11,3 km/h (2 Bft)
03.08.2016 13:52 24,6 C 24,7 C 62 % 1014,2 hPa 0,0 mm 5,0 km/h (1 Bft) W-NW 285 1 min 0,000 mm 7,2 UV-I 821 W/m 16,8 C 6,4 km/h (2 Bft)
03.08.2016 13:53 24,7 C 24,7 C 61 % 1014,2 hPa 0,0 mm 4,5 km/h (1 Bft) NW 304 1 min 0,000 mm 7,3 UV-I 849 W/m 16,7 C 6,4 km/h (2 Bft)
03.08.2016 13:54 24,6 C 24,7 C 58 % 1014,3 hPa 0,0 mm 5,0 km/h (1 Bft) W-NW 282 1 min 0,000 mm 7,3 UV-I 831 W/m 15,8 C 9,7 km/h (2 Bft)
03.08.2016 13:55 24,6 C 24,6 C 60 % 1014,3 hPa 0,0 mm 5,8 km/h (2 Bft) N-NW 328 1 min 0,000 mm 7,2 UV-I 821 W/m 16,3 C 11,3 km/h (2 Bft)
03.08.2016 13:56 24,6 C 24,6 C 59 % 1014,3 hPa 0,0 mm 9,1 km/h (2 Bft) W-NW 290 1 min 0,000 mm 7,3 UV-I 837 W/m 16,0 C 12,9 km/h (3 Bft)
03.08.2016 13:57 24,5 C 24,6 C 59 % 1014,2 hPa 0,0 mm 6,2 km/h (2 Bft) NW 321 1 min 0,000 mm 7,3 UV-I 823 W/m 15,9 C 12,9 km/h (3 Bft)
03.08.2016 13:58 24,6 C 24,6 C 62 % 1014,2 hPa 0,0 mm 4,4 km/h (1 Bft) W-NW 300 1 min 0,000 mm 7,1 UV-I 816 W/m 16,8 C 6,4 km/h (2 Bft)
03.08.2016 13:59 24,6 C 24,6 C 61 % 1014,2 hPa 0,0 mm 6,2 km/h (2 Bft) W-SW 252 1 min 0,000 mm 7,1 UV-I 805 W/m 16,6 C 9,7 km/h (2 Bft)
03.08.2016 14:00 24,6 C 24,7 C 58 % 1014,3 hPa 0,0 mm 6,2 km/h (2 Bft) W-SW 249 1 min 0,000 mm 4,1 UV-I 816 W/m 15,8 C 9,7 km/h (2 Bft)
03.08.2016 14:01 24,6 C 24,6 C 61 % 1014,1 hPa 0,0 mm 3,6 km/h (1 Bft) NW 322 1 min 0,533 mm 7,0 UV-I 814 W/m 16,6 C 6,4 km/h (2 Bft)
03.08.2016 14:02 24,6 C 24,6 C 62 % 1014,2 hPa 0,0 mm 5,5 km/h (1 Bft) W-NW 294 1 min 0,000 mm 6,9 UV-I 784 W/m 16,8 C 8,0 km/h (2 Bft)
03.08.2016 14:03 24,7 C 24,7 C 59 % 1014,2 hPa 0,0 mm 5,1 km/h (1 Bft) W-NW 292 1 min 0,000 mm 6,9 UV-I 782 W/m 16,1 C 6,4 km/h (2 Bft)
03.08.2016 14:04 24,6 C 24,7 C 58 % 1014,2 hPa 0,0 mm 5,2 km/h (1 Bft) W-NW 292 1 min 0,000 mm 6,9 UV-I 759 W/m 15,8 C 6,4 km/h (2 Bft)
03.08.2016 14:05 24,5 C 24,6 C 60 % 1014,2 hPa 0,0 mm 7,5 km/h (2 Bft) W-NW 301 1 min 0,000 mm 7,0 UV-I 810 W/m 16,2 C 12,9 km/h (3 Bft)
03.08.2016 14:06 24,4 C 24,5 C 58 % 1014,2 hPa 0,0 mm 6,9 km/h (2 Bft) NW 313 1 min 0,000 mm 7,1 UV-I 775 W/m 15,6 C 11,3 km/h (2 Bft)
03.08.2016 14:07 24,4 C 24,5 C 58 % 1014,1 hPa 0,0 mm 2,1 km/h (1 Bft) W 263 1 min 0,000 mm 7,0 UV-I 812 W/m 15,6 C 3,2 km/h (1 Bft)
03.08.2016 14:08 24,5 C 24,5 C 59 % 1014,1 hPa 0,0 mm 2,7 km/h (1 Bft) S 171 1 min 0,000 mm 6,9 UV-I 802 W/m 15,9 C 3,2 km/h (1 Bft)
03.08.2016 14:09 24,3 C 24,5 C 55 % 1014,1 hPa 0,0 mm 3,5 km/h (1 Bft) O-SO 107 1 min 0,000 mm 6,6 UV-I 802 W/m 14,7 C 8,0 km/h (2 Bft)
03.08.2016 14:10 24,2 C 24,3 C 56 % 1014,1 hPa 0,0 mm 1,7 km/h (1 Bft) SO 131 1 min 0,000 mm 6,1 UV-I 722 W/m 14,9 C 3,2 km/h (1 Bft)
03.08.2016 14:11 24,2 C 24,2 C 56 % 1014,1 hPa 0,0 mm 3,2 km/h (1 Bft) NW 304 1 min 0,000 mm 6,8 UV-I 840 W/m 14,9 C 4,8 km/h (1 Bft)
03.08.2016 14:12 24,3 C 24,3 C 59 % 1014,1 hPa 0,0 mm 2,7 km/h (1 Bft) NW 317 1 min 0,000 mm 7,2 UV-I 837 W/m 15,8 C 4,8 km/h (1 Bft)
03.08.2016 14:13 24,4 C 24,4 C 60 % 1014,1 hPa 0,0 mm 4,6 km/h (1 Bft) NW 307 1 min 0,000 mm 7,1 UV-I 833 W/m 16,1 C 6,4 km/h (2 Bft)
03.08.2016 14:14 24,6 C 24,6 C 60 % 1014,1 hPa 0,0 mm 6,0 km/h (2 Bft) W 277 1 min 0,000 mm 7,2 UV-I 837 W/m 16,3 C 11,3 km/h (2 Bft)
03.08.2016 14:15 24,6 C 24,6 C 60 % 1014,1 hPa 0,0 mm 8,6 km/h (2 Bft) W 265 1 min 0,000 mm 7,1 UV-I 833 W/m 16,3 C 12,9 km/h (3 Bft)
03.08.2016 14:16 24,5 C 24,6 C 59 % 1014,1 hPa 0,0 mm 10,8 km/h (2 Bft) W 259 1 min 0,000 mm 7,2 UV-I 838 W/m 15,9 C 14,5 km/h (3 Bft)
03.08.2016 14:17 24,5 C 24,5 C 59 % 1014,1 hPa 0,0 mm 4,7 km/h (1 Bft) NW 304 1 min 0,000 mm 7,2 UV-I 835 W/m 15,9 C 6,4 km/h (2 Bft)
03.08.2016 14:18 24,5 C 24,5 C 66 % 1014,1 hPa 0,0 mm 6,3 km/h (2 Bft) NW 305 1 min 0,000 mm 7,1 UV-I 837 W/m 17,7 C 8,0 km/h (2 Bft)
03.08.2016 14:19 24,6 C 24,6 C 60 % 1014,1 hPa 0,0 mm 4,9 km/h (1 Bft) NO 40 1 min 0,000 mm 7,1 UV-I 835 W/m 16,3 C 8,0 km/h (2 Bft)
03.08.2016 14:20 24,8 C 24,8 C 62 % 1014,1 hPa 0,0 mm 4,2 km/h (1 Bft) O 83 1 min 0,000 mm 7,1 UV-I 831 W/m 17,0 C 6,4 km/h (2 Bft)
03.08.2016 14:21 24,8 C 24,8 C 59 % 1014,0 hPa 0,0 mm 3,0 km/h (1 Bft) W 280 1 min 0,000 mm 7,0 UV-I 830 W/m 16,2 C 4,8 km/h (1 Bft)
03.08.2016 14:22 24,8 C 24,8 C 64 % 1014,1 hPa 0,0 mm 7,8 km/h (2 Bft) W 259 1 min 0,000 mm 6,7 UV-I 749 W/m 17,5 C 12,9 km/h (3 Bft)
03.08.2016 14:23 24,7 C 24,8 C 59 % 1014,1 hPa 0,0 mm 5,4 km/h (1 Bft) W-SW 242 1 min 0,000 mm 6,7 UV-I 798 W/m 16,1 C 6,4 km/h (2 Bft)
03.08.2016 14:24 24,7 C 24,7 C 60 % 1014,1 hPa 0,0 mm 3,4 km/h (1 Bft) W-NW 283 1 min 0,000 mm 6,9 UV-I 816 W/m 16,4 C 4,8 km/h (1 Bft)
03.08.2016 14:25 24,7 C 24,7 C 60 % 1014,1 hPa 0,0 mm 4,4 km/h (1 Bft) NW 325 1 min 0,000 mm 6,7 UV-I 729 W/m 16,4 C 8,0 km/h (2 Bft)
03.08.2016 14:26 24,8 C 24,8 C 64 % 1014,1 hPa 0,0 mm 4,9 km/h (1 Bft) N-NW 339 1 min 0,000 mm 6,9 UV-I 817 W/m 17,5 C 6,4 km/h (2 Bft)
03.08.2016 14:27 24,8 C 24,8 C 60 % 1014,1 hPa 0,0 mm 3,3 km/h (1 Bft) N-NW 346 1 min 0,000 mm 6,9 UV-I 809 W/m 16,5 C 4,8 km/h (1 Bft)
03.08.2016 14:28 24,8 C 24,9 C 57 % 1014,1 hPa 0,0 mm 3,0 km/h (1 Bft) W-NW 296 1 min 0,000 mm 6,9 UV-I 814 W/m 15,7 C 4,8 km/h (1 Bft)
03.08.2016 14:29 24,7 C 24,8 C 58 % 1014,0 hPa 0,0 mm 4,1 km/h (1 Bft) W-SW 254 1 min 0,000 mm 7,0 UV-I 812 W/m 15,9 C 6,4 km/h (2 Bft)
03.08.2016 14:30 24,6 C 24,7 C 59 % 1014,0 hPa 0,0 mm 8,2 km/h (2 Bft) W-NW 302 1 min 0,000 mm 7,0 UV-I 814 W/m 16,0 C 16,1 km/h (3 Bft)
03.08.2016 14:31 24,6 C 24,6 C 61 % 1014,0 hPa 0,0 mm 9,8 km/h (2 Bft) NW 304 1 min 0,000 mm 7,0 UV-I 821 W/m 16,6 C 14,5 km/h (3 Bft)
03.08.2016 14:32 24,6 C 24,6 C 61 % 1014,0 hPa 0,0 mm 9,0 km/h (2 Bft) NW 307 1 min 0,000 mm 7,0 UV-I 826 W/m 16,6 C 14,5 km/h (3 Bft)
03.08.2016 14:33 24,7 C 24,7 C 58 % 1014,0 hPa 0,0 mm 8,0 km/h (2 Bft) N-NO 23 1 min 0,000 mm 6,9 UV-I 826 W/m 15,9 C 11,3 km/h (2 Bft)
03.08.2016 14:34 24,7 C 24,7 C 62 % 1014,0 hPa 0,0 mm 7,4 km/h (2 Bft) W-NW 290 1 min 0,000 mm 6,9 UV-I 823 W/m 16,9 C 11,3 km/h (2 Bft)
03.08.2016 14:35 24,7 C 24,8 C 56 % 1014,0 hPa 0,0 mm 5,1 km/h (1 Bft) W-NW 300 1 min 0,000 mm 6,9 UV-I 823 W/m 15,3 C 9,7 km/h (2 Bft)
03.08.2016 14:36 24,6 C 24,7 C 58 % 1014,0 hPa 0,0 mm 4,9 km/h (1 Bft) W-SW 237 1 min 0,000 mm 6,6 UV-I 823 W/m 15,8 C 11,3 km/h (2 Bft)
03.08.2016 14:37 24,3 C 24,6 C 56 % 1014,0 hPa 0,0 mm 3,9 km/h (1 Bft) W-NW 288 1 min 0,000 mm 6,4 UV-I 823 W/m 14,9 C 6,4 km/h (2 Bft)
03.08.2016 14:38 24,3 C 24,3 C 59 % 1014,0 hPa 0,0 mm 3,8 km/h (1 Bft) W 281 1 min 0,000 mm 6,7 UV-I 823 W/m 15,8 C 6,4 km/h (2 Bft)
03.08.2016 14:39 24,3 C 24,3 C 62 % 1014,0 hPa 0,0 mm 6,4 km/h (2 Bft) W-SW 243 1 min 0,000 mm 6,8 UV-I 824 W/m 16,5 C 12,9 km/h (3 Bft)
03.08.2016 14:40 24,3 C 24,3 C 57 % 1014,0 hPa 0,0 mm 10,0 km/h (2 Bft) W-SW 246 1 min 0,000 mm 6,9 UV-I 830 W/m 15,2 C 12,9 km/h (3 Bft)
03.08.2016 14:41 24,2 C 24,3 C 59 % 1014,0 hPa 0,0 mm 4,4 km/h (1 Bft) W 271 1 min 0,000 mm 6,7 UV-I 793 W/m 15,7 C 6,4 km/h (2 Bft)
03.08.2016 14:42 24,2 C 24,2 C 59 % 1013,9 hPa 0,0 mm 4,0 km/h (1 Bft) SW 229 1 min 0,000 mm 6,6 UV-I 786 W/m 15,7 C 4,8 km/h (1 Bft)
03.08.2016 14:43 24,2 C 24,2 C 60 % 1013,9 hPa 0,0 mm 3,6 km/h (1 Bft) W 273 1 min 0,000 mm 6,4 UV-I 747 W/m 15,9 C 9,7 km/h (2 Bft)
03.08.2016 14:44 24,3 C 24,3 C 61 % 1014,0 hPa 0,0 mm 9,5 km/h (2 Bft) W-NW 300 1 min 0,000 mm 6,5 UV-I 772 W/m 16,3 C 12,9 km/h (3 Bft)
03.08.2016 14:45 24,5 C 24,5 C 60 % 1014,0 hPa 0,0 mm 11,1 km/h (2 Bft) N-NW 329 1 min 0,000 mm 6,4 UV-I 765 W/m 16,2 C 14,5 km/h (3 Bft)
03.08.2016 14:46 24,6 C 24,6 C 63 % 1014,0 hPa 0,0 mm 11,1 km/h (2 Bft) NW 304 1 min 0,000 mm 6,3 UV-I 759 W/m 17,1 C 14,5 km/h (3 Bft)
03.08.2016 14:47 24,6 C 24,7 C 58 % 1013,9 hPa 0,0 mm 5,8 km/h (2 Bft) W-NW 298 1 min 0,000 mm 6,4 UV-I 763 W/m 15,8 C 11,3 km/h (2 Bft)
03.08.2016 14:48 24,7 C 24,7 C 59 % 1013,9 hPa 0,0 mm 4,1 km/h (1 Bft) N 355 1 min 0,000 mm 6,4 UV-I 747 W/m 16,1 C 8,0 km/h (2 Bft)
03.08.2016 14:49 24,7 C 24,7 C 59 % 1013,9 hPa 0,0 mm 3,2 km/h (1 Bft) N 5 1 min 0,000 mm 6,4 UV-I 751 W/m 16,1 C 6,4 km/h (2 Bft)
03.08.2016 14:50 24,8 C 24,8 C 59 % 1013,9 hPa 0,0 mm 3,6 km/h (1 Bft) N-NW 333 1 min 0,000 mm 6,5 UV-I 773 W/m 16,2 C 4,8 km/h (1 Bft)
03.08.2016 14:51 24,9 C 24,9 C 60 % 1013,9 hPa 0,0 mm 2,8 km/h (1 Bft) N-NW 327 1 min 0,000 mm 6,5 UV-I 754 W/m 16,6 C 4,8 km/h (1 Bft)
03.08.2016 14:52 24,8 C 24,9 C 60 % 1013,9 hPa 0,0 mm 3,1 km/h (1 Bft) W-NW 302 1 min 0,000 mm 6,6 UV-I 803 W/m 16,5 C 4,8 km/h (1 Bft)
03.08.2016 14:53 24,8 C 24,8 C 59 % 1013,9 hPa 0,0 mm 1,8 km/h (1 Bft) NW 307 1 min 0,000 mm 6,6 UV-I 796 W/m 16,2 C 3,2 km/h (1 Bft)
03.08.2016 14:54 24,7 C 24,8 C 55 % 1013,9 hPa 0,0 mm 1,2 km/h (1 Bft) W-NW 289 1 min 0,000 mm 6,6 UV-I 800 W/m 15,0 C 1,6 km/h (1 Bft)
03.08.2016 14:55 24,7 C 24,7 C 55 % 1013,9 hPa 0,0 mm 2,9 km/h (1 Bft) W-NW 288 1 min 0,000 mm 6,6 UV-I 800 W/m 15,0 C 4,8 km/h (1 Bft)
03.08.2016 14:56 24,7 C 24,7 C 60 % 1013,9 hPa 0,0 mm 4,2 km/h (1 Bft) W-SW 255 1 min 0,000 mm 6,6 UV-I 793 W/m 16,4 C 6,4 km/h (2 Bft)
03.08.2016 14:57 24,7 C 24,7 C 57 % 1013,9 hPa 0,0 mm 5,4 km/h (1 Bft) W 265 1 min 0,000 mm 6,6 UV-I 800 W/m 15,6 C 8,0 km/h (2 Bft)
03.08.2016 14:58 24,6 C 24,7 C 60 % 1013,9 hPa 0,0 mm 8,6 km/h (2 Bft) W 267 1 min 0,000 mm 6,7 UV-I 814 W/m 16,3 C 14,5 km/h (3 Bft)
03.08.2016 14:59 24,7 C 24,7 C 56 % 1013,9 hPa 0,0 mm 6,1 km/h (2 Bft) W-NW 288 1 min 0,000 mm 6,4 UV-I 765 W/m 15,3 C 11,3 km/h (2 Bft)
03.08.2016 15:00 24,7 C 24,7 C 57 % 1013,9 hPa 0,0 mm 3,5 km/h (1 Bft) W 276 1 min 0,000 mm 6,3 UV-I 763 W/m 15,6 C 6,4 km/h (2 Bft)
03.08.2016 15:01 24,7 C 24,7 C 54 % 1013,9 hPa 0,0 mm 2,3 km/h (1 Bft) W-NW 284 1 min 0,533 mm 6,3 UV-I 758 W/m 14,8 C 6,4 km/h (2 Bft)
03.08.2016 15:02 24,7 C 24,7 C 56 % 1013,9 hPa 0,0 mm 8,8 km/h (2 Bft) W 260 1 min 0,000 mm 6,5 UV-I 796 W/m 15,3 C 17,7 km/h (3 Bft)
03.08.2016 15:03 24,6 C 24,7 C 54 % 1013,9 hPa 0,0 mm 6,9 km/h (2 Bft) W-SW 252 1 min 0,000 mm 6,1 UV-I 824 W/m 14,7 C 12,9 km/h (3 Bft)
03.08.2016 15:04 24,6 C 24,6 C 59 % 1013,9 hPa 0,0 mm 6,8 km/h (2 Bft) NW 322 1 min 0,000 mm 6,4 UV-I 738 W/m 16,0 C 9,7 km/h (2 Bft)
03.08.2016 15:05 24,7 C 24,7 C 58 % 1013,9 hPa 0,0 mm 5,5 km/h (1 Bft) O-NO 57 1 min 0,000 mm 6,0 UV-I 761 W/m 15,9 C 9,7 km/h (2 Bft)
03.08.2016 15:06 24,8 C 24,8 C 59 % 1013,9 hPa 0,0 mm 4,8 km/h (1 Bft) W 259 1 min 0,000 mm 6,1 UV-I 747 W/m 16,2 C 9,7 km/h (2 Bft)
03.08.2016 15:07 24,8 C 24,8 C 57 % 1013,8 hPa 0,0 mm 9,3 km/h (2 Bft) W-NW 291 1 min 0,000 mm 5,8 UV-I 708 W/m 15,7 C 12,9 km/h (3 Bft)
03.08.2016 15:08 24,8 C 24,8 C 57 % 1013,9 hPa 0,0 mm 10,3 km/h (2 Bft) W 263 1 min 0,000 mm 6,3 UV-I 766 W/m 15,7 C 16,1 km/h (3 Bft)
03.08.2016 15:09 24,9 C 24,9 C 60 % 1013,8 hPa 0,0 mm 5,7 km/h (1 Bft) NW 321 1 min 0,000 mm 6,3 UV-I 735 W/m 16,6 C 11,3 km/h (2 Bft)
03.08.2016 15:10 25,0 C 25,0 C 59 % 1013,8 hPa 0,0 mm 8,0 km/h (2 Bft) W 280 1 min 0,000 mm 6,1 UV-I 803 W/m 16,4 C 14,5 km/h (3 Bft)
03.08.2016 15:11 25,0 C 25,0 C 59 % 1013,9 hPa 0,0 mm 8,8 km/h (2 Bft) W 275 1 min 0,000 mm 6,5 UV-I 812 W/m 16,4 C 14,5 km/h (3 Bft)
03.08.2016 15:12 25,1 C 25,1 C 58 % 1013,9 hPa 0,0 mm 6,2 km/h (2 Bft) W 272 1 min 0,000 mm 6,5 UV-I 816 W/m 16,2 C 12,9 km/h (3 Bft)
03.08.2016 15:13 25,1 C 25,1 C 55 % 1013,9 hPa 0,0 mm 8,9 km/h (2 Bft) W 267 1 min 0,000 mm 6,4 UV-I 807 W/m 15,4 C 12,9 km/h (3 Bft)
03.08.2016 15:14 24,9 C 25,1 C 55 % 1013,8 hPa 0,0 mm 3,0 km/h (1 Bft) W-NW 300 1 min 0,000 mm 6,4 UV-I 795 W/m 15,2 C 4,8 km/h (1 Bft)
03.08.2016 15:15 24,8 C 24,9 C 54 % 1013,8 hPa 0,0 mm 2,8 km/h (1 Bft) NW 309 1 min 0,000 mm 6,4 UV-I 802 W/m 14,8 C 4,8 km/h (1 Bft)
03.08.2016 15:16 24,8 C 24,8 C 57 % 1013,8 hPa 0,0 mm 5,1 km/h (1 Bft) W-NW 291 1 min 0,000 mm 6,3 UV-I 737 W/m 15,7 C 9,7 km/h (2 Bft)
03.08.2016 15:17 24,8 C 24,8 C 57 % 1013,8 hPa 0,0 mm 6,1 km/h (2 Bft) W-NW 295 1 min 0,000 mm 6,0 UV-I 719 W/m 15,7 C 11,3 km/h (2 Bft)
03.08.2016 15:18 24,9 C 24,9 C 56 % 1013,9 hPa 0,0 mm 4,4 km/h (1 Bft) SW 234 1 min 0,000 mm 6,2 UV-I 758 W/m 15,5 C 6,4 km/h (2 Bft)
03.08.2016 15:19 24,9 C 24,9 C 57 % 1013,7 hPa 0,0 mm 2,6 km/h (1 Bft) SW 235 1 min 0,000 mm 6,0 UV-I 728 W/m 15,8 C 3,2 km/h (1 Bft)
03.08.2016 15:20 24,8 C 24,9 C 55 % 1013,8 hPa 0,0 mm 3,0 km/h (1 Bft) W-NW 287 1 min 0,000 mm 6,1 UV-I 770 W/m 15,1 C 4,8 km/h (1 Bft)
03.08.2016 15:21 24,8 C 24,8 C 57 % 1013,7 hPa 0,0 mm 2,3 km/h (1 Bft) SW 232 1 min 0,000 mm 6,0 UV-I 735 W/m 15,7 C 3,2 km/h (1 Bft)
03.08.2016 15:22 24,9 C 24,9 C 58 % 1013,7 hPa 0,0 mm 3,5 km/h (1 Bft) S 184 1 min 0,000 mm 5,9 UV-I 643 W/m 16,1 C 4,8 km/h (1 Bft)
03.08.2016 15:23 24,9 C 24,9 C 58 % 1013,7 hPa 0,0 mm 3,6 km/h (1 Bft) SW 223 1 min 0,000 mm 5,8 UV-I 708 W/m 16,1 C 6,4 km/h (2 Bft)
03.08.2016 15:24 25,0 C 25,0 C 59 % 1013,7 hPa 0,0 mm 4,0 km/h (1 Bft) S 190 1 min 0,000 mm 5,4 UV-I 643 W/m 16,4 C 6,4 km/h (2 Bft)
03.08.2016 15:25 24,9 C 25,0 C 54 % 1013,7 hPa 0,0 mm 4,2 km/h (1 Bft) S-SO 163 1 min 0,000 mm 5,9 UV-I 705 W/m 14,9 C 6,4 km/h (2 Bft)
03.08.2016 15:26 24,9 C 25,0 C 56 % 1013,7 hPa 0,0 mm 3,3 km/h (1 Bft) W-SW 257 1 min 0,000 mm 5,9 UV-I 754 W/m 15,5 C 8,0 km/h (2 Bft)
03.08.2016 15:27 24,9 C 25,0 C 54 % 1013,7 hPa 0,0 mm 8,4 km/h (2 Bft) NW 315 1 min 0,000 mm 5,9 UV-I 721 W/m 14,9 C 12,9 km/h (3 Bft)
03.08.2016 15:28 24,9 C 24,9 C 57 % 1013,7 hPa 0,0 mm 6,2 km/h (2 Bft) N-NW 333 1 min 0,000 mm 5,2 UV-I 638 W/m 15,8 C 9,7 km/h (2 Bft)
03.08.2016 15:29 24,8 C 24,9 C 56 % 1013,8 hPa 0,0 mm 5,3 km/h (1 Bft) W-NW 296 1 min 0,000 mm 5,1 UV-I 612 W/m 15,4 C 6,4 km/h (2 Bft)
03.08.2016 15:30 24,8 C 24,8 C 56 % 1013,8 hPa 0,0 mm 4,2 km/h (1 Bft) NW 323 1 min 0,000 mm 5,3 UV-I 624 W/m 15,4 C 6,4 km/h (2 Bft)
03.08.2016 15:31 24,8 C 24,8 C 56 % 1013,7 hPa 0,0 mm 4,3 km/h (1 Bft) W 279 1 min 0,000 mm 5,3 UV-I 647 W/m 15,4 C 4,8 km/h (1 Bft)
03.08.2016 15:32 24,8 C 24,8 C 54 % 1013,7 hPa 0,0 mm 2,4 km/h (1 Bft) NW 309 1 min 0,000 mm 5,5 UV-I 689 W/m 14,8 C 4,8 km/h (1 Bft)
03.08.2016 15:33 24,8 C 24,8 C 54 % 1013,8 hPa 0,0 mm 1,2 km/h (1 Bft) N 355 1 min 0,000 mm 5,0 UV-I 663 W/m 14,8 C 3,2 km/h (1 Bft)
03.08.2016 15:34 24,7 C 24,8 C 54 % 1013,7 hPa 0,0 mm 2,1 km/h (1 Bft) N-NW 348 1 min 0,000 mm 4,0 UV-I 663 W/m 14,8 C 3,2 km/h (1 Bft)
03.08.2016 15:35 24,8 C 24,8 C 56 % 1013,7 hPa 0,0 mm 2,8 km/h (1 Bft) NW 311 1 min 0,000 mm 5,6 UV-I 722 W/m 15,4 C 4,8 km/h (1 Bft)
03.08.2016 15:36 24,8 C 24,8 C 55 % 1013,7 hPa 0,0 mm 1,5 km/h (1 Bft) N-NW 345 1 min 0,000 mm 5,7 UV-I 712 W/m 15,1 C 3,2 km/h (1 Bft)
03.08.2016 15:37 24,9 C 24,9 C 60 % 1013,7 hPa 0,0 mm 5,8 km/h (2 Bft) W-NW 303 1 min 0,000 mm 5,8 UV-I 728 W/m 16,6 C 11,3 km/h (2 Bft)
03.08.2016 15:38 25,0 C 25,0 C 58 % 1013,7 hPa 0,0 mm 5,3 km/h (1 Bft) NW 306 1 min 0,000 mm 5,3 UV-I 677 W/m 16,1 C 8,0 km/h (2 Bft)
03.08.2016 15:39 25,1 C 25,1 C 56 % 1013,7 hPa 0,0 mm 4,3 km/h (1 Bft) N-NW 330 1 min 0,000 mm 5,2 UV-I 619 W/m 15,7 C 8,0 km/h (2 Bft)
03.08.2016 15:40 25,2 C 25,2 C 55 % 1013,7 hPa 0,0 mm 4,4 km/h (1 Bft) N-NW 334 1 min 0,000 mm 4,3 UV-I 619 W/m 15,5 C 8,0 km/h (2 Bft)
03.08.2016 15:41 25,2 C 25,2 C 58 % 1013,7 hPa 0,0 mm 4,4 km/h (1 Bft) W 270 1 min 0,000 mm 5,3 UV-I 619 W/m 16,3 C 6,4 km/h (2 Bft)
03.08.2016 15:42 25,2 C 25,2 C 54 % 1013,7 hPa 0,0 mm 3,4 km/h (1 Bft) W-SW 258 1 min 0,000 mm 5,7 UV-I 737 W/m 15,2 C 6,4 km/h (2 Bft)
03.08.2016 15:43 25,1 C 25,2 C 53 % 1013,7 hPa 0,0 mm 3,0 km/h (1 Bft) W 274 1 min 0,000 mm 5,8 UV-I 766 W/m 14,8 C 6,4 km/h (2 Bft)
03.08.2016 15:44 25,1 C 25,1 C 52 % 1013,7 hPa 0,0 mm 8,7 km/h (2 Bft) W-NW 288 1 min 0,000 mm 5,9 UV-I 770 W/m 14,5 C 12,9 km/h (3 Bft)
03.08.2016 15:45 25,1 C 25,1 C 54 % 1013,7 hPa 0,0 mm 7,4 km/h (2 Bft) NW 304 1 min 0,000 mm 5,8 UV-I 714 W/m 15,1 C 12,9 km/h (3 Bft)
03.08.2016 15:46 25,1 C 25,1 C 58 % 1013,7 hPa 0,0 mm 6,1 km/h (2 Bft) W 281 1 min 0,000 mm 5,6 UV-I 729 W/m 16,2 C 9,7 km/h (2 Bft)
03.08.2016 15:47 25,1 C 25,1 C 55 % 1013,7 hPa 0,0 mm 7,3 km/h (2 Bft) NW 308 1 min 0,000 mm 5,6 UV-I 747 W/m 15,4 C 11,3 km/h (2 Bft)
03.08.2016 15:48 25,1 C 25,1 C 56 % 1013,7 hPa 0,0 mm 6,6 km/h (2 Bft) W 267 1 min 0,000 mm 5,5 UV-I 705 W/m 15,7 C 9,7 km/h (2 Bft)
03.08.2016 15:49 25,2 C 25,2 C 52 % 1013,7 hPa 0,0 mm 5,8 km/h (2 Bft) W 273 1 min 0,000 mm 5,5 UV-I 705 W/m 14,6 C 9,7 km/h (2 Bft)
03.08.2016 15:50 25,2 C 25,2 C 54 % 1013,7 hPa 0,0 mm 7,8 km/h (2 Bft) W-SW 239 1 min 0,000 mm 5,2 UV-I 670 W/m 15,2 C 11,3 km/h (2 Bft)
03.08.2016 15:51 25,2 C 25,2 C 55 % 1013,7 hPa 0,0 mm 7,1 km/h (2 Bft) W 269 1 min 0,000 mm 5,0 UV-I 691 W/m 15,5 C 9,7 km/h (2 Bft)
03.08.2016 15:52 25,2 C 25,2 C 56 % 1013,6 hPa 0,0 mm 4,6 km/h (1 Bft) W-NW 300 1 min 0,000 mm 5,5 UV-I 721 W/m 15,8 C 9,7 km/h (2 Bft)
03.08.2016 15:53 25,2 C 25,2 C 53 % 1013,6 hPa 0,0 mm 5,5 km/h (1 Bft) W-NW 298 1 min 0,000 mm 5,1 UV-I 710 W/m 14,9 C 9,7 km/h (2 Bft)
03.08.2016 15:54 25,2 C 25,2 C 52 % 1013,6 hPa 0,0 mm 3,0 km/h (1 Bft) NW 309 1 min 0,000 mm 5,1 UV-I 650 W/m 14,6 C 4,8 km/h (1 Bft)
03.08.2016 15:55 25,2 C 25,2 C 53 % 1013,6 hPa 0,0 mm 1,7 km/h (1 Bft) W-SW 255 1 min 0,000 mm 5,2 UV-I 668 W/m 14,9 C 3,2 km/h (1 Bft)
03.08.2016 15:56 25,2 C 25,2 C 54 % 1013,6 hPa 0,0 mm 3,6 km/h (1 Bft) W 267 1 min 0,000 mm 5,2 UV-I 675 W/m 15,2 C 4,8 km/h (1 Bft)
03.08.2016 15:57 25,2 C 25,2 C 57 % 1013,6 hPa 0,0 mm 3,9 km/h (1 Bft) S-SW 202 1 min 0,000 mm 5,3 UV-I 610 W/m 16,1 C 8,0 km/h (2 Bft)
03.08.2016 15:58 25,3 C 25,3 C 58 % 1013,5 hPa 0,0 mm 3,4 km/h (1 Bft) S-SW 209 1 min 0,000 mm 5,2 UV-I 691 W/m 16,4 C 6,4 km/h (2 Bft)
03.08.2016 15:59 25,3 C 25,3 C 56 % 1013,5 hPa 0,0 mm 1,1 km/h (1 Bft) SW 218 1 min 0,000 mm 5,3 UV-I 703 W/m 15,9 C 4,8 km/h (1 Bft)
03.08.2016 16:00 25,3 C 25,3 C 55 % 1013,5 hPa 0,0 mm 0,9 km/h (0 Bft) S-SW 210 1 min 0,000 mm 5,2 UV-I 715 W/m 15,6 C 1,6 km/h (1 Bft)
03.08.2016 16:01 25,3 C 25,3 C 53 % 1013,5 hPa 0,0 mm 4,8 km/h (1 Bft) W-NW 302 1 min 0,483 mm 2,8 UV-I 715 W/m 15,0 C 6,4 km/h (2 Bft)
03.08.2016 16:02 25,3 C 25,3 C 52 % 1013,5 hPa 0,0 mm 4,1 km/h (1 Bft) NW 311 1 min 0,000 mm 2,9 UV-I 715 W/m 14,7 C 6,4 km/h (2 Bft)
03.08.2016 16:03 25,2 C 25,3 C 53 % 1013,6 hPa 0,0 mm 4,2 km/h (1 Bft) NW 317 1 min 0,000 mm 2,8 UV-I 715 W/m 14,9 C 6,4 km/h (2 Bft)
03.08.2016 16:04 25,2 C 25,2 C 54 % 1013,5 hPa 0,0 mm 2,8 km/h (1 Bft) N-NW 340 1 min 0,000 mm 5,1 UV-I 701 W/m 15,2 C 4,8 km/h (1 Bft)
03.08.2016 16:05 25,2 C 25,2 C 52 % 1013,5 hPa 0,0 mm 5,3 km/h (1 Bft) W-NW 293 1 min 0,000 mm 5,0 UV-I 677 W/m 14,6 C 9,7 km/h (2 Bft)
03.08.2016 16:06 25,2 C 25,2 C 54 % 1013,5 hPa 0,0 mm 2,9 km/h (1 Bft) W 279 1 min 0,000 mm 5,1 UV-I 689 W/m 15,2 C 4,8 km/h (1 Bft)
03.08.2016 16:07 25,3 C 25,3 C 54 % 1013,5 hPa 0,0 mm 3,4 km/h (1 Bft) W-NW 299 1 min 0,000 mm 5,1 UV-I 682 W/m 15,3 C 6,4 km/h (2 Bft)
03.08.2016 16:08 25,3 C 25,3 C 52 % 1013,5 hPa 0,0 mm 5,3 km/h (1 Bft) W-SW 257 1 min 0,000 mm 5,1 UV-I 680 W/m 14,7 C 8,0 km/h (2 Bft)
03.08.2016 16:09 25,3 C 25,3 C 53 % 1013,5 hPa 0,0 mm 10,3 km/h (2 Bft) W 261 1 min 0,000 mm 5,0 UV-I 671 W/m 15,0 C 16,1 km/h (3 Bft)
03.08.2016 16:10 25,3 C 25,3 C 52 % 1013,6 hPa 0,0 mm 16,2 km/h (3 Bft) W-SW 257 1 min 0,000 mm 5,0 UV-I 673 W/m 14,7 C 25,7 km/h (4 Bft)
03.08.2016 16:11 25,2 C 25,3 C 49 % 1013,5 hPa 0,0 mm 14,6 km/h (3 Bft) W 269 1 min 0,000 mm 5,0 UV-I 671 W/m 13,7 C 19,3 km/h (3 Bft)
03.08.2016 16:12 25,1 C 25,2 C 48 % 1013,6 hPa 0,0 mm 11,3 km/h (2 Bft) W 273 1 min 0,000 mm 4,9 UV-I 668 W/m 13,3 C 16,1 km/h (3 Bft)
03.08.2016 16:13 25,1 C 25,1 C 48 % 1013,6 hPa 0,0 mm 10,3 km/h (2 Bft) W 277 1 min 0,000 mm 4,9 UV-I 668 W/m 13,3 C 17,7 km/h (3 Bft)
03.08.2016 16:14 25,1 C 25,1 C 48 % 1013,5 hPa 0,0 mm 6,3 km/h (2 Bft) W 272 1 min 0,000 mm 4,6 UV-I 668 W/m 13,3 C 11,3 km/h (2 Bft)
03.08.2016 16:15 25,1 C 25,1 C 49 % 1013,5 hPa 0,0 mm 8,6 km/h (2 Bft) W 263 1 min 0,000 mm 3,5 UV-I 668 W/m 13,6 C 12,9 km/h (3 Bft)
03.08.2016 16:16 25,1 C 25,1 C 51 % 1013,5 hPa 0,0 mm 7,9 km/h (2 Bft) W 275 0 min 0,000 mm 2,4 UV-I 114 W/m 14,2 C 17,7 km/h (3 Bft)
03.08.2016 16:17 25,1 C 25,1 C 52 % 1013,5 hPa 0,0 mm 13,1 km/h (3 Bft) W-NW 291 0 min 0,000 mm 2,4 UV-I 104 W/m 14,5 C 20,9 km/h (4 Bft)
03.08.2016 16:18 25,1 C 25,1 C 52 % 1013,5 hPa 0,0 mm 8,2 km/h (2 Bft) W 265 0 min 0,000 mm 2,3 UV-I 118 W/m 14,5 C 11,3 km/h (2 Bft)
03.08.2016 16:19 25,1 C 25,1 C 51 % 1013,5 hPa 0,0 mm 7,2 km/h (2 Bft) W-NW 296 0 min 0,000 mm 2,3 UV-I 128 W/m 14,2 C 14,5 km/h (3 Bft)
03.08.2016 16:20 25,0 C 25,1 C 52 % 1013,5 hPa 0,0 mm 5,7 km/h (1 Bft) W-SW 248 0 min 0,000 mm 2,4 UV-I 139 W/m 14,4 C 9,7 km/h (2 Bft)
03.08.2016 16:21 24,9 C 25,0 C 53 % 1013,5 hPa 0,0 mm 8,9 km/h (2 Bft) W 278 0 min 0,000 mm 2,4 UV-I 148 W/m 14,6 C 14,5 km/h (3 Bft)
03.08.2016 16:22 24,9 C 24,9 C 51 % 1013,5 hPa 0,0 mm 8,0 km/h (2 Bft) W 275 0 min 0,000 mm 2,4 UV-I 160 W/m 14,1 C 11,3 km/h (2 Bft)
03.08.2016 16:23 24,8 C 24,9 C 48 % 1013,5 hPa 0,0 mm 7,5 km/h (2 Bft) W-SW 246 0 min 0,000 mm 2,4 UV-I 169 W/m 13,0 C 11,3 km/h (2 Bft)
03.08.2016 16:24 24,7 C 24,8 C 46 % 1013,5 hPa 0,0 mm 4,5 km/h (1 Bft) W 271 0 min 0,000 mm 2,4 UV-I 181 W/m 12,3 C 6,4 km/h (2 Bft)
03.08.2016 16:25 24,7 C 24,7 C 45 % 1013,4 hPa 0,0 mm 7,0 km/h (2 Bft) W-NW 286 0 min 0,000 mm 2,5 UV-I 192 W/m 12,0 C 11,3 km/h (2 Bft)
03.08.2016 16:26 24,6 C 24,7 C 50 % 1013,4 hPa 0,0 mm 5,4 km/h (1 Bft) W 271 0 min 0,000 mm 2,5 UV-I 207 W/m 13,5 C 6,4 km/h (2 Bft)
03.08.2016 16:27 24,5 C 24,6 C 51 % 1013,4 hPa 0,0 mm 5,8 km/h (2 Bft) SW 236 0 min 0,000 mm 2,5 UV-I 213 W/m 13,7 C 12,9 km/h (3 Bft)
03.08.2016 16:28 24,4 C 24,5 C 50 % 1013,4 hPa 0,0 mm 4,0 km/h (1 Bft) W-NW 287 0 min 0,000 mm 2,5 UV-I 221 W/m 13,3 C 8,0 km/h (2 Bft)
03.08.2016 16:29 24,4 C 24,5 C 51 % 1013,4 hPa 0,0 mm 5,3 km/h (1 Bft) W 274 0 min 0,000 mm 2,6 UV-I 230 W/m 13,6 C 9,7 km/h (2 Bft)
03.08.2016 16:30 24,4 C 24,4 C 51 % 1013,4 hPa 0,0 mm 8,3 km/h (2 Bft) W-SW 257 0 min 0,000 mm 2,6 UV-I 241 W/m 13,6 C 12,9 km/h (3 Bft)
03.08.2016 16:31 24,5 C 24,5 C 52 % 1013,4 hPa 0,0 mm 4,8 km/h (1 Bft) W-NW 298 0 min 0,000 mm 2,6 UV-I 250 W/m 14,0 C 9,7 km/h (2 Bft)
03.08.2016 16:32 24,6 C 24,6 C 51 % 1013,4 hPa 0,0 mm 4,2 km/h (1 Bft) W-NW 290 0 min 0,000 mm 2,7 UV-I 260 W/m 13,8 C 6,4 km/h (2 Bft)
03.08.2016 16:33 24,6 C 24,6 C 49 % 1013,4 hPa 0,0 mm 5,5 km/h (1 Bft) NW 309 0 min 0,000 mm 2,7 UV-I 258 W/m 13,2 C 9,7 km/h (2 Bft)
03.08.2016 16:34 24,7 C 24,7 C 49 % 1013,3 hPa 0,0 mm 9,3 km/h (2 Bft) W 281 0 min 0,000 mm 2,7 UV-I 255 W/m 13,3 C 16,1 km/h (3 Bft)
03.08.2016 16:35 24,7 C 24,7 C 48 % 1013,3 hPa 0,0 mm 12,9 km/h (3 Bft) NW 317 0 min 0,000 mm 2,6 UV-I 255 W/m 12,9 C 19,3 km/h (3 Bft)
03.08.2016 16:36 24,7 C 24,7 C 46 % 1013,4 hPa 0,0 mm 9,7 km/h (2 Bft) NW 315 0 min 0,000 mm 2,6 UV-I 257 W/m 12,3 C 17,7 km/h (3 Bft)
03.08.2016 16:37 24,6 C 24,7 C 47 % 1013,4 hPa 0,0 mm 13,6 km/h (3 Bft) N 350 0 min 0,000 mm 2,6 UV-I 257 W/m 12,5 C 20,9 km/h (4 Bft)
03.08.2016 16:38 24,6 C 24,6 C 46 % 1013,4 hPa 0,0 mm 10,2 km/h (2 Bft) NW 305 0 min 0,000 mm 2,6 UV-I 264 W/m 12,2 C 19,3 km/h (3 Bft)
03.08.2016 16:39 24,5 C 24,6 C 46 % 1013,4 hPa 0,0 mm 5,2 km/h (1 Bft) W-NW 289 0 min 0,000 mm 2,7 UV-I 271 W/m 12,1 C 9,7 km/h (2 Bft)
03.08.2016 16:40 24,5 C 24,5 C 46 % 1013,4 hPa 0,0 mm 11,4 km/h (2 Bft) W 277 0 min 0,000 mm 2,7 UV-I 262 W/m 12,1 C 17,7 km/h (3 Bft)
03.08.2016 16:41 24,4 C 24,5 C 49 % 1013,4 hPa 0,0 mm 6,3 km/h (2 Bft) SW 219 0 min 0,000 mm 2,6 UV-I 271 W/m 13,0 C 11,3 km/h (2 Bft)
03.08.2016 16:42 24,4 C 24,5 C 48 % 1013,4 hPa 0,0 mm 9,7 km/h (2 Bft) SW 236 0 min 0,000 mm 2,6 UV-I 262 W/m 12,7 C 12,9 km/h (3 Bft)
03.08.2016 16:43 24,4 C 24,5 C 46 % 1013,4 hPa 0,0 mm 11,0 km/h (2 Bft) W-NW 292 0 min 0,000 mm 2,6 UV-I 271 W/m 12,0 C 19,3 km/h (3 Bft)
03.08.2016 16:44 24,5 C 24,5 C 49 % 1013,4 hPa 0,0 mm 4,8 km/h (1 Bft) W-NW 300 0 min 0,000 mm 2,6 UV-I 281 W/m 13,1 C 11,3 km/h (2 Bft)
03.08.2016 16:45 24,6 C 24,6 C 49 % 1013,4 hPa 0,0 mm 6,8 km/h (2 Bft) W 269 0 min 0,000 mm 2,5 UV-I 264 W/m 13,2 C 12,9 km/h (3 Bft)
03.08.2016 16:46 24,6 C 24,6 C 47 % 1013,4 hPa 0,0 mm 7,6 km/h (2 Bft) W-NW 296 0 min 0,000 mm 2,5 UV-I 262 W/m 12,5 C 14,5 km/h (3 Bft)
03.08.2016 16:47 24,6 C 24,6 C 48 % 1013,4 hPa 0,0 mm 6,7 km/h (2 Bft) W-SW 257 0 min 0,000 mm 2,5 UV-I 265 W/m 12,8 C 14,5 km/h (3 Bft)
03.08.2016 16:48 24,5 C 24,6 C 48 % 1013,4 hPa 0,0 mm 7,2 km/h (2 Bft) SW 231 0 min 0,000 mm 2,5 UV-I 265 W/m 12,8 C 11,3 km/h (2 Bft)
03.08.2016 16:49 24,6 C 24,6 C 49 % 1013,4 hPa 0,0 mm 9,5 km/h (2 Bft) W-NW 287 0 min 0,000 mm 2,5 UV-I 258 W/m 13,2 C 12,9 km/h (3 Bft)
03.08.2016 16:50 24,5 C 24,6 C 48 % 1013,4 hPa 0,0 mm 12,2 km/h (2 Bft) W-SW 254 0 min 0,000 mm 2,5 UV-I 257 W/m 12,8 C 17,7 km/h (3 Bft)
03.08.2016 16:51 24,4 C 24,5 C 46 % 1013,4 hPa 0,0 mm 5,2 km/h (1 Bft) W-NW 288 0 min 0,000 mm 2,4 UV-I 258 W/m 12,0 C 9,7 km/h (2 Bft)
03.08.2016 16:52 24,3 C 24,4 C 46 % 1013,4 hPa 0,0 mm 10,5 km/h (2 Bft) W-SW 256 0 min 0,000 mm 2,4 UV-I 258 W/m 11,9 C 17,7 km/h (3 Bft)
03.08.2016 16:53 24,2 C 24,3 C 48 % 1013,4 hPa 0,0 mm 7,9 km/h (2 Bft) NW 311 0 min 0,000 mm 2,4 UV-I 264 W/m 12,5 C 12,9 km/h (3 Bft)
03.08.2016 16:54 24,2 C 24,2 C 49 % 1013,4 hPa 0,0 mm 7,3 km/h (2 Bft) SW 215 0 min 0,000 mm 2,4 UV-I 267 W/m 12,8 C 11,3 km/h (2 Bft)
03.08.2016 16:55 24,2 C 24,2 C 48 % 1013,4 hPa 0,0 mm 10,2 km/h (2 Bft) W 270 0 min 0,000 mm 2,4 UV-I 276 W/m 12,5 C 17,7 km/h (3 Bft)
03.08.2016 16:56 24,1 C 24,2 C 48 % 1013,4 hPa 0,0 mm 8,3 km/h (2 Bft) W-NW 286 0 min 0,000 mm 2,4 UV-I 279 W/m 12,4 C 14,5 km/h (3 Bft)
03.08.2016 16:57 24,1 C 24,1 C 47 % 1013,4 hPa 0,0 mm 7,2 km/h (2 Bft) W-NW 288 0 min 0,000 mm 2,4 UV-I 281 W/m 12,1 C 14,5 km/h (3 Bft)
03.08.2016 16:58 24,1 C 24,1 C 49 % 1013,4 hPa 0,0 mm 5,9 km/h (2 Bft) W-NW 290 0 min 0,000 mm 2,4 UV-I 283 W/m 12,7 C 12,9 km/h (3 Bft)
03.08.2016 16:59 24,0 C 24,1 C 49 % 1013,4 hPa 0,0 mm 10,5 km/h (2 Bft) W-SW 254 0 min 0,000 mm 2,4 UV-I 279 W/m 12,6 C 12,9 km/h (3 Bft)
03.08.2016 17:00 24,0 C 24,0 C 49 % 1013,4 hPa 0,0 mm 7,3 km/h (2 Bft) W 260 0 min 0,254 mm 2,4 UV-I 274 W/m 12,6 C 12,9 km/h (3 Bft)
03.08.2016 17:01 24,0 C 24,0 C 52 % 1013,4 hPa 0,0 mm 6,6 km/h (2 Bft) W-NW 286 0 min 0,000 mm 2,4 UV-I 269 W/m 13,5 C 9,7 km/h (2 Bft)
03.08.2016 17:02 24,0 C 24,0 C 49 % 1013,4 hPa 0,0 mm 4,0 km/h (1 Bft) W-SW 239 0 min 0,000 mm 2,3 UV-I 258 W/m 12,6 C 9,7 km/h (2 Bft)
03.08.2016 17:03 24,0 C 24,0 C 50 % 1013,4 hPa 0,0 mm 4,8 km/h (1 Bft) W-NW 289 0 min 0,000 mm 2,2 UV-I 251 W/m 12,9 C 8,0 km/h (2 Bft)
03.08.2016 17:04 24,1 C 24,1 C 49 % 1013,4 hPa 0,0 mm 4,2 km/h (1 Bft) W-NW 282 0 min 0,000 mm 2,2 UV-I 244 W/m 12,7 C 6,4 km/h (2 Bft)
03.08.2016 17:05 24,1 C 24,1 C 48 % 1013,4 hPa 0,0 mm 9,4 km/h (2 Bft) W-NW 302 0 min 0,000 mm 2,2 UV-I 237 W/m 12,4 C 14,5 km/h (3 Bft)
03.08.2016 17:06 24,1 C 24,1 C 49 % 1013,4 hPa 0,0 mm 6,1 km/h (2 Bft) SW 228 0 min 0,000 mm 2,1 UV-I 234 W/m 12,7 C 9,7 km/h (2 Bft)
03.08.2016 17:07 24,2 C 24,2 C 50 % 1013,4 hPa 0,0 mm 6,1 km/h (2 Bft) W-SW 251 0 min 0,000 mm 2,1 UV-I 243 W/m 13,1 C 11,3 km/h (2 Bft)
03.08.2016 17:08 24,2 C 24,2 C 51 % 1013,5 hPa 0,0 mm 7,8 km/h (2 Bft) NW 304 0 min 0,000 mm 2,1 UV-I 251 W/m 13,4 C 11,3 km/h (2 Bft)
03.08.2016 17:09 24,2 C 24,2 C 51 % 1013,4 hPa 0,0 mm 6,8 km/h (2 Bft) W-SW 244 0 min 0,000 mm 2,1 UV-I 251 W/m 13,4 C 11,3 km/h (2 Bft)
03.08.2016 17:10 24,2 C 24,2 C 50 % 1013,4 hPa 0,0 mm 7,6 km/h (2 Bft) N-NW 334 0 min 0,000 mm 2,1 UV-I 257 W/m 13,1 C 14,5 km/h (3 Bft)
03.08.2016 17:11 24,3 C 24,3 C 50 % 1013,4 hPa 0,0 mm 11,8 km/h (2 Bft) W-SW 238 0 min 0,000 mm 2,1 UV-I 253 W/m 13,2 C 20,9 km/h (4 Bft)
03.08.2016 17:12 24,3 C 24,3 C 49 % 1013,5 hPa 0,0 mm 8,8 km/h (2 Bft) W 259 0 min 0,000 mm 2,1 UV-I 248 W/m 12,9 C 16,1 km/h (3 Bft)
03.08.2016 17:13 24,3 C 24,3 C 50 % 1013,5 hPa 0,0 mm 7,8 km/h (2 Bft) W 269 0 min 0,000 mm 2,0 UV-I 244 W/m 13,2 C 12,9 km/h (3 Bft)
03.08.2016 17:14 24,3 C 24,3 C 51 % 1013,4 hPa 0,0 mm 5,8 km/h (2 Bft) W-SW 248 0 min 0,000 mm 2,0 UV-I 246 W/m 13,5 C 9,7 km/h (2 Bft)
03.08.2016 17:15 24,3 C 24,3 C 52 % 1013,5 hPa 0,0 mm 4,7 km/h (1 Bft) W-SW 237 0 min 0,000 mm 2,0 UV-I 250 W/m 13,8 C 8,0 km/h (2 Bft)
03.08.2016 17:16 24,4 C 24,4 C 55 % 1013,4 hPa 0,0 mm 9,3 km/h (2 Bft) W 273 0 min 0,000 mm 2,1 UV-I 253 W/m 14,8 C 14,5 km/h (3 Bft)
03.08.2016 17:17 24,4 C 24,4 C 52 % 1013,4 hPa 0,0 mm 6,1 km/h (2 Bft) NW 308 0 min 0,000 mm 2,1 UV-I 253 W/m 13,9 C 11,3 km/h (2 Bft)
03.08.2016 17:18 24,4 C 24,4 C 51 % 1013,5 hPa 0,0 mm 4,2 km/h (1 Bft) W 275 0 min 0,000 mm 2,0 UV-I 251 W/m 13,6 C 8,0 km/h (2 Bft)
03.08.2016 17:19 24,5 C 24,5 C 50 % 1013,4 hPa 0,0 mm 3,6 km/h (1 Bft) W 273 0 min 0,000 mm 2,0 UV-I 237 W/m 13,4 C 4,8 km/h (1 Bft)
03.08.2016 17:20 24,5 C 24,5 C 51 % 1013,4 hPa 0,0 mm 7,4 km/h (2 Bft) W-NW 282 0 min 0,000 mm 1,9 UV-I 230 W/m 13,7 C 9,7 km/h (2 Bft)
03.08.2016 17:21 24,5 C 24,5 C 52 % 1013,4 hPa 0,0 mm 4,1 km/h (1 Bft) W-NW 302 0 min 0,000 mm 1,9 UV-I 221 W/m 14,0 C 8,0 km/h (2 Bft)
03.08.2016 17:22 24,5 C 24,5 C 53 % 1013,4 hPa 0,0 mm 3,6 km/h (1 Bft) W 281 0 min 0,000 mm 1,9 UV-I 221 W/m 14,3 C 4,8 km/h (1 Bft)
03.08.2016 17:23 24,6 C 24,6 C 54 % 1013,5 hPa 0,0 mm 6,3 km/h (2 Bft) W-NW 285 0 min 0,000 mm 1,9 UV-I 214 W/m 14,7 C 11,3 km/h (2 Bft)
03.08.2016 17:24 24,6 C 24,6 C 54 % 1013,4 hPa 0,0 mm 4,6 km/h (1 Bft) W-NW 290 0 min 0,000 mm 1,8 UV-I 218 W/m 14,7 C 8,0 km/h (2 Bft)
03.08.2016 17:25 24,6 C 24,6 C 50 % 1013,5 hPa 0,0 mm 7,3 km/h (2 Bft) W 279 0 min 0,000 mm 1,8 UV-I 221 W/m 13,5 C 14,5 km/h (3 Bft)
03.08.2016 17:26 24,5 C 24,6 C 49 % 1013,5 hPa 0,0 mm 10,9 km/h (2 Bft) W-SW 247 0 min 0,000 mm 1,9 UV-I 227 W/m 13,1 C 16,1 km/h (3 Bft)
03.08.2016 17:27 24,5 C 24,5 C 49 % 1013,5 hPa 0,0 mm 6,6 km/h (2 Bft) W-NW 298 0 min 0,000 mm 1,9 UV-I 223 W/m 13,1 C 11,3 km/h (2 Bft)
03.08.2016 17:28 24,4 C 24,5 C 50 % 1013,5 hPa 0,0 mm 8,9 km/h (2 Bft) W 281 0 min 0,000 mm 1,8 UV-I 220 W/m 13,3 C 16,1 km/h (3 Bft)
03.08.2016 17:29 24,3 C 24,4 C 49 % 1013,5 hPa 0,0 mm 7,5 km/h (2 Bft) W 273 0 min 0,000 mm 1,8 UV-I 213 W/m 12,9 C 12,9 km/h (3 Bft)
03.08.2016 17:30 24,3 C 24,3 C 49 % 1013,5 hPa 0,0 mm 3,9 km/h (1 Bft) W 275 0 min 0,000 mm 1,8 UV-I 213 W/m 12,9 C 6,4 km/h (2 Bft)
03.08.2016 17:31 24,2 C 24,3 C 50 % 1013,5 hPa 0,0 mm 8,3 km/h (2 Bft) SW 225 0 min 0,000 mm 1,8 UV-I 209 W/m 13,1 C 14,5 km/h (3 Bft)
03.08.2016 17:32 24,1 C 24,2 C 52 % 1013,5 hPa 0,0 mm 4,2 km/h (1 Bft) W-NW 297 0 min 0,000 mm 1,8 UV-I 209 W/m 13,6 C 6,4 km/h (2 Bft)
03.08.2016 17:33 24,1 C 24,1 C 55 % 1013,5 hPa 0,0 mm 7,3 km/h (2 Bft) W-SW 248 0 min 0,000 mm 1,8 UV-I 206 W/m 14,5 C 16,1 km/h (3 Bft)
03.08.2016 17:34 23,9 C 24,1 C 52 % 1013,5 hPa 0,0 mm 7,1 km/h (2 Bft) S-SW 197 0 min 0,000 mm 1,8 UV-I 206 W/m 13,4 C 12,9 km/h (3 Bft)
03.08.2016 17:35 23,8 C 23,9 C 53 % 1013,5 hPa 0,0 mm 6,8 km/h (2 Bft) W-SW 250 0 min 0,000 mm 1,8 UV-I 204 W/m 13,6 C 14,5 km/h (3 Bft)
03.08.2016 17:36 23,8 C 23,8 C 50 % 1013,5 hPa 0,0 mm 6,4 km/h (2 Bft) W 277 0 min 0,000 mm 1,8 UV-I 211 W/m 12,7 C 11,3 km/h (2 Bft)
03.08.2016 17:37 23,8 C 23,8 C 53 % 1013,5 hPa 0,0 mm 10,9 km/h (2 Bft) W-SW 257 0 min 0,000 mm 1,8 UV-I 214 W/m 13,6 C 14,5 km/h (3 Bft)
03.08.2016 17:38 23,8 C 23,8 C 52 % 1013,5 hPa 0,0 mm 13,2 km/h (3 Bft) W-SW 248 0 min 0,000 mm 1,8 UV-I 207 W/m 13,3 C 16,1 km/h (3 Bft)
03.08.2016 17:39 23,8 C 23,8 C 50 % 1013,5 hPa 0,0 mm 11,8 km/h (2 Bft) W-SW 238 0 min 0,000 mm 1,8 UV-I 207 W/m 12,7 C 16,1 km/h (3 Bft)
03.08.2016 17:40 23,8 C 23,8 C 52 % 1013,4 hPa 0,0 mm 7,3 km/h (2 Bft) SW 232 0 min 0,000 mm 1,8 UV-I 209 W/m 13,3 C 11,3 km/h (2 Bft)
03.08.2016 17:41 23,8 C 23,8 C 51 % 1013,5 hPa 0,0 mm 7,4 km/h (2 Bft) W-SW 248 0 min 0,000 mm 1,8 UV-I 214 W/m 13,0 C 11,3 km/h (2 Bft)
03.08.2016 17:42 23,9 C 23,9 C 52 % 1013,5 hPa 0,0 mm 9,5 km/h (2 Bft) W-NW 300 0 min 0,000 mm 1,8 UV-I 206 W/m 13,4 C 12,9 km/h (3 Bft)
03.08.2016 17:43 23,9 C 23,9 C 50 % 1013,4 hPa 0,0 mm 10,3 km/h (2 Bft) NW 307 0 min 0,000 mm 1,7 UV-I 200 W/m 12,8 C 14,5 km/h (3 Bft)
03.08.2016 17:44 24,0 C 24,0 C 50 % 1013,4 hPa 0,0 mm 7,4 km/h (2 Bft) W 269 0 min 0,000 mm 1,7 UV-I 199 W/m 12,9 C 11,3 km/h (2 Bft)
03.08.2016 17:45 24,0 C 24,0 C 51 % 1013,4 hPa 0,0 mm 4,9 km/h (1 Bft) W 277 0 min 0,000 mm 1,7 UV-I 199 W/m 13,2 C 11,3 km/h (2 Bft)
03.08.2016 17:46 24,1 C 24,1 C 52 % 1013,4 hPa 0,0 mm 3,1 km/h (1 Bft) W-NW 298 0 min 0,000 mm 1,7 UV-I 179 W/m 13,6 C 4,8 km/h (1 Bft)
03.08.2016 17:47 24,2 C 24,2 C 52 % 1013,5 hPa 0,0 mm 5,7 km/h (1 Bft) W-NW 294 0 min 0,000 mm 1,6 UV-I 169 W/m 13,7 C 11,3 km/h (2 Bft)
03.08.2016 17:48 24,2 C 24,2 C 54 % 1013,4 hPa 0,0 mm 4,3 km/h (1 Bft) W 277 0 min 0,000 mm 1,6 UV-I 153 W/m 14,3 C 4,8 km/h (1 Bft)
03.08.2016 17:49 24,2 C 24,2 C 52 % 1013,4 hPa 0,0 mm 5,1 km/h (1 Bft) W 267 0 min 0,000 mm 1,5 UV-I 148 W/m 13,7 C 6,4 km/h (2 Bft)
03.08.2016 17:50 24,2 C 24,2 C 51 % 1013,4 hPa 0,0 mm 6,1 km/h (2 Bft) W 274 0 min 0,000 mm 1,5 UV-I 144 W/m 13,4 C 11,3 km/h (2 Bft)
03.08.2016 17:51 24,2 C 24,2 C 52 % 1013,4 hPa 0,0 mm 5,9 km/h (2 Bft) W 281 0 min 0,000 mm 1,5 UV-I 134 W/m 13,7 C 11,3 km/h (2 Bft)
03.08.2016 17:52 24,2 C 24,2 C 52 % 1013,4 hPa 0,0 mm 3,4 km/h (1 Bft) W 277 0 min 0,000 mm 1,4 UV-I 132 W/m 13,7 C 4,8 km/h (1 Bft)
03.08.2016 17:53 24,2 C 24,2 C 54 % 1013,4 hPa 0,0 mm 9,4 km/h (2 Bft) W-NW 295 0 min 0,000 mm 1,4 UV-I 132 W/m 14,3 C 14,5 km/h (3 Bft)
03.08.2016 17:54 24,1 C 24,2 C 54 % 1013,3 hPa 0,0 mm 5,2 km/h (1 Bft) W 278 0 min 0,000 mm 1,4 UV-I 134 W/m 14,2 C 9,7 km/h (2 Bft)
03.08.2016 17:55 24,0 C 24,1 C 52 % 1013,4 hPa 0,0 mm 6,2 km/h (2 Bft) W-SW 250 0 min 0,000 mm 1,4 UV-I 135 W/m 13,5 C 9,7 km/h (2 Bft)
03.08.2016 17:56 23,9 C 24,0 C 54 % 1013,3 hPa 0,0 mm 5,7 km/h (1 Bft) W-NW 288 0 min 0,000 mm 1,4 UV-I 135 W/m 14,0 C 9,7 km/h (2 Bft)
03.08.2016 17:57 23,8 C 23,9 C 52 % 1013,3 hPa 0,0 mm 7,7 km/h (2 Bft) W-SW 252 0 min 0,000 mm 1,4 UV-I 135 W/m 13,3 C 12,9 km/h (3 Bft)
03.08.2016 17:58 23,8 C 23,8 C 50 % 1013,4 hPa 0,0 mm 11,0 km/h (2 Bft) W 265 0 min 0,000 mm 1,4 UV-I 139 W/m 12,7 C 16,1 km/h (3 Bft)
03.08.2016 17:59 23,7 C 23,8 C 51 % 1013,4 hPa 0,0 mm 7,6 km/h (2 Bft) W-SW 242 0 min 0,000 mm 1,4 UV-I 141 W/m 13,0 C 11,3 km/h (2 Bft)
03.08.2016 18:00 23,7 C 23,7 C 51 % 1013,4 hPa 0,0 mm 6,0 km/h (2 Bft) W-NW 283 0 min 0,000 mm 1,4 UV-I 144 W/m 13,0 C 8,0 km/h (2 Bft)
03.08.2016 18:01 23,7 C 23,7 C 54 % 1013,3 hPa 0,0 mm 7,6 km/h (2 Bft) W-NW 291 0 min 0,178 mm 1,4 UV-I 153 W/m 13,8 C 11,3 km/h (2 Bft)
03.08.2016 18:02 23,7 C 23,7 C 53 % 1013,3 hPa 0,0 mm 9,8 km/h (2 Bft) W-NW 288 0 min 0,000 mm 1,4 UV-I 144 W/m 13,5 C 17,7 km/h (3 Bft)
03.08.2016 18:03 23,8 C 23,8 C 52 % 1013,3 hPa 0,0 mm 8,1 km/h (2 Bft) W-NW 286 0 min 0,000 mm 1,4 UV-I 144 W/m 13,3 C 12,9 km/h (3 Bft)
03.08.2016 18:04 23,8 C 23,8 C 53 % 1013,3 hPa 0,0 mm 7,6 km/h (2 Bft) W 277 0 min 0,000 mm 1,3 UV-I 144 W/m 13,6 C 11,3 km/h (2 Bft)
03.08.2016 18:05 23,7 C 23,8 C 54 % 1013,3 hPa 0,0 mm 8,3 km/h (2 Bft) W 276 0 min 0,000 mm 1,3 UV-I 146 W/m 13,8 C 11,3 km/h (2 Bft)
03.08.2016 18:06 23,7 C 23,7 C 52 % 1013,3 hPa 0,0 mm 5,2 km/h (1 Bft) NW 304 0 min 0,000 mm 1,3 UV-I 149 W/m 13,2 C 9,7 km/h (2 Bft)
03.08.2016 18:07 23,6 C 23,7 C 53 % 1013,3 hPa 0,0 mm 8,9 km/h (2 Bft) NW 307 0 min 0,000 mm 1,3 UV-I 149 W/m 13,4 C 14,5 km/h (3 Bft)
03.08.2016 18:08 23,6 C 23,6 C 54 % 1013,3 hPa 0,0 mm 4,8 km/h (1 Bft) W-NW 293 0 min 0,000 mm 1,3 UV-I 151 W/m 13,7 C 6,4 km/h (2 Bft)
03.08.2016 18:09 23,6 C 23,6 C 53 % 1013,3 hPa 0,0 mm 6,0 km/h (2 Bft) W-SW 245 0 min 0,000 mm 1,3 UV-I 153 W/m 13,4 C 8,0 km/h (2 Bft)
03.08.2016 18:10 23,5 C 23,6 C 54 % 1013,3 hPa 0,0 mm 5,4 km/h (1 Bft) W-SW 240 0 min 0,000 mm 1,3 UV-I 153 W/m 13,6 C 9,7 km/h (2 Bft)
03.08.2016 18:11 23,4 C 23,5 C 53 % 1013,3 hPa 0,0 mm 3,7 km/h (1 Bft) NW 304 0 min 0,000 mm 1,3 UV-I 156 W/m 13,3 C 4,8 km/h (1 Bft)
03.08.2016 18:12 23,4 C 23,4 C 54 % 1013,2 hPa 0,0 mm 4,7 km/h (1 Bft) W 269 0 min 0,000 mm 1,3 UV-I 148 W/m 13,6 C 9,7 km/h (2 Bft)
03.08.2016 18:14 23,5 C 23,5 C 53 % 1013,3 hPa 0,0 mm 4,7 km/h (1 Bft) W 272 0 min 0,000 mm 1,2 UV-I 142 W/m 13,4 C 9,7 km/h (2 Bft)
03.08.2016 18:15 23,5 C 23,5 C 55 % 1013,3 hPa 0,0 mm 3,6 km/h (1 Bft) W-NW 290 0 min 0,000 mm 1,2 UV-I 139 W/m 13,9 C 6,4 km/h (2 Bft)
03.08.2016 18:16 23,5 C 23,5 C 54 % 1013,3 hPa 0,0 mm 4,2 km/h (1 Bft) W-SW 250 0 min 0,000 mm 1,2 UV-I 134 W/m 13,6 C 8,0 km/h (2 Bft)
03.08.2016 18:17 23,4 C 23,5 C 54 % 1013,3 hPa 0,0 mm 4,0 km/h (1 Bft) W 267 0 min 0,000 mm 1,2 UV-I 132 W/m 13,6 C 9,7 km/h (2 Bft)
03.08.2016 18:18 23,4 C 23,4 C 54 % 1013,2 hPa 0,0 mm 6,0 km/h (2 Bft) W-SW 248 0 min 0,000 mm 1,1 UV-I 134 W/m 13,6 C 9,7 km/h (2 Bft)
03.08.2016 18:19 23,4 C 23,4 C 54 % 1013,3 hPa 0,0 mm 4,5 km/h (1 Bft) N 360 0 min 0,000 mm 1,1 UV-I 135 W/m 13,6 C 6,4 km/h (2 Bft)
03.08.2016 18:20 23,3 C 23,4 C 56 % 1013,3 hPa 0,0 mm 2,9 km/h (1 Bft) W 279 0 min 0,000 mm 1,1 UV-I 135 W/m 14,0 C 4,8 km/h (1 Bft)
03.08.2016 18:21 23,3 C 23,3 C 57 % 1013,3 hPa 0,0 mm 3,1 km/h (1 Bft) W-NW 294 0 min 0,000 mm 1,1 UV-I 137 W/m 14,3 C 4,8 km/h (1 Bft)
03.08.2016 18:22 23,2 C 23,3 C 58 % 1013,3 hPa 0,0 mm 5,4 km/h (1 Bft) W 275 0 min 0,000 mm 1,1 UV-I 135 W/m 14,5 C 9,7 km/h (2 Bft)
03.08.2016 18:23 23,2 C 23,2 C 59 % 1013,3 hPa 0,0 mm 3,2 km/h (1 Bft) W-NW 294 0 min 0,000 mm 1,1 UV-I 135 W/m 14,7 C 4,8 km/h (1 Bft)
03.08.2016 18:24 23,2 C 23,2 C 56 % 1013,3 hPa 0,0 mm 4,7 km/h (1 Bft) W 277 0 min 0,000 mm 1,1 UV-I 134 W/m 13,9 C 6,4 km/h (2 Bft)
03.08.2016 18:25 23,1 C 23,2 C 58 % 1013,3 hPa 0,0 mm 8,8 km/h (2 Bft) W-SW 253 0 min 0,000 mm 1,1 UV-I 134 W/m 14,4 C 16,1 km/h (3 Bft)
03.08.2016 18:26 23,2 C 23,2 C 58 % 1013,3 hPa 0,0 mm 5,4 km/h (1 Bft) SW 231 0 min 0,000 mm 1,0 UV-I 130 W/m 14,5 C 8,0 km/h (2 Bft)
03.08.2016 18:27 23,1 C 23,2 C 55 % 1013,2 hPa 0,0 mm 7,0 km/h (2 Bft) W-NW 286 0 min 0,000 mm 1,0 UV-I 130 W/m 13,6 C 12,9 km/h (3 Bft)
03.08.2016 18:28 23,2 C 23,2 C 56 % 1013,2 hPa 0,0 mm 4,4 km/h (1 Bft) W 271 0 min 0,000 mm 1,0 UV-I 121 W/m 13,9 C 6,4 km/h (2 Bft)
03.08.2016 18:29 23,1 C 23,2 C 56 % 1013,2 hPa 0,0 mm 3,0 km/h (1 Bft) W-NW 282 0 min 0,000 mm 1,0 UV-I 118 W/m 13,8 C 4,8 km/h (1 Bft)
03.08.2016 18:30 23,1 C 23,2 C 57 % 1013,2 hPa 0,0 mm 3,2 km/h (1 Bft) W-SW 243 0 min 0,000 mm 0,9 UV-I 118 W/m 14,1 C 4,8 km/h (1 Bft)
03.08.2016 18:31 23,1 C 23,1 C 57 % 1013,3 hPa 0,0 mm 4,5 km/h (1 Bft) W-NW 282 0 min 0,000 mm 0,9 UV-I 118 W/m 14,1 C 6,4 km/h (2 Bft)
03.08.2016 18:32 23,1 C 23,1 C 57 % 1013,3 hPa 0,0 mm 8,5 km/h (2 Bft) W 281 0 min 0,000 mm 0,9 UV-I 127 W/m 14,1 C 16,1 km/h (3 Bft)
03.08.2016 18:33 23,1 C 23,1 C 55 % 1013,3 hPa 0,0 mm 9,4 km/h (2 Bft) W-NW 282 0 min 0,000 mm 0,9 UV-I 120 W/m 13,6 C 12,9 km/h (3 Bft)
03.08.2016 18:34 23,1 C 23,1 C 55 % 1013,3 hPa 0,0 mm 8,7 km/h (2 Bft) W-NW 293 0 min 0,000 mm 0,9 UV-I 120 W/m 13,6 C 16,1 km/h (3 Bft)
03.08.2016 18:35 23,1 C 23,1 C 56 % 1013,3 hPa 0,0 mm 8,6 km/h (2 Bft) W 263 0 min 0,000 mm 0,9 UV-I 125 W/m 13,8 C 17,7 km/h (3 Bft)
03.08.2016 18:36 23,1 C 23,1 C 55 % 1013,3 hPa 0,0 mm 8,4 km/h (2 Bft) W-NW 284 0 min 0,000 mm 0,9 UV-I 123 W/m 13,6 C 14,5 km/h (3 Bft)
03.08.2016 18:37 23,1 C 23,1 C 53 % 1013,3 hPa 0,0 mm 5,6 km/h (1 Bft) S-SW 210 0 min 0,000 mm 0,9 UV-I 123 W/m 13,0 C 9,7 km/h (2 Bft)
03.08.2016 18:38 23,0 C 23,1 C 54 % 1013,2 hPa 0,0 mm 9,7 km/h (2 Bft) W 277 0 min 0,000 mm 0,8 UV-I 120 W/m 13,2 C 14,5 km/h (3 Bft)
03.08.2016 18:39 22,9 C 23,0 C 54 % 1013,3 hPa 0,0 mm 5,7 km/h (1 Bft) W-NW 292 0 min 0,000 mm 0,8 UV-I 120 W/m 13,1 C 9,7 km/h (2 Bft)
03.08.2016 18:40 22,9 C 22,9 C 55 % 1013,3 hPa 0,0 mm 8,2 km/h (2 Bft) NW 307 0 min 0,000 mm 0,8 UV-I 120 W/m 13,4 C 12,9 km/h (3 Bft)
03.08.2016 18:41 22,9 C 22,9 C 55 % 1013,3 hPa 0,0 mm 10,9 km/h (2 Bft) W-NW 282 0 min 0,000 mm 0,8 UV-I 121 W/m 13,4 C 17,7 km/h (3 Bft)
03.08.2016 18:42 22,8 C 22,9 C 55 % 1013,3 hPa 0,0 mm 9,9 km/h (2 Bft) W-SW 250 0 min 0,000 mm 0,8 UV-I 120 W/m 13,3 C 17,7 km/h (3 Bft)
03.08.2016 18:43 22,8 C 22,8 C 54 % 1013,4 hPa 0,0 mm 10,5 km/h (2 Bft) W-SW 251 0 min 0,000 mm 0,8 UV-I 120 W/m 13,0 C 16,1 km/h (3 Bft)
03.08.2016 18:44 22,7 C 22,8 C 55 % 1013,4 hPa 0,0 mm 10,1 km/h (2 Bft) W-NW 283 0 min 0,000 mm 0,8 UV-I 120 W/m 13,2 C 17,7 km/h (3 Bft)
03.08.2016 18:45 22,7 C 22,7 C 56 % 1013,4 hPa 0,0 mm 3,7 km/h (1 Bft) W 270 0 min 0,000 mm 0,8 UV-I 118 W/m 13,5 C 6,4 km/h (2 Bft)
03.08.2016 18:46 22,6 C 22,7 C 56 % 1013,3 hPa 0,0 mm 5,9 km/h (2 Bft) W-NW 282 0 min 0,000 mm 0,8 UV-I 116 W/m 13,4 C 9,7 km/h (2 Bft)
03.08.2016 18:47 22,6 C 22,7 C 56 % 1013,3 hPa 0,0 mm 6,5 km/h (2 Bft) W-SW 242 0 min 0,000 mm 0,8 UV-I 116 W/m 13,4 C 9,7 km/h (2 Bft)
03.08.2016 18:48 22,6 C 22,6 C 57 % 1013,3 hPa 0,0 mm 4,5 km/h (1 Bft) W-NW 292 0 min 0,000 mm 0,7 UV-I 114 W/m 13,6 C 8,0 km/h (2 Bft)
03.08.2016 18:49 22,6 C 22,6 C 56 % 1013,3 hPa 0,0 mm 3,2 km/h (1 Bft) W 259 0 min 0,000 mm 0,7 UV-I 114 W/m 13,4 C 4,8 km/h (1 Bft)
03.08.2016 18:50 22,6 C 22,6 C 60 % 1013,3 hPa 0,0 mm 6,8 km/h (2 Bft) W-SW 257 0 min 0,000 mm 0,7 UV-I 113 W/m 14,4 C 11,3 km/h (2 Bft)
03.08.2016 18:51 22,4 C 22,6 C 58 % 1013,3 hPa 0,0 mm 2,9 km/h (1 Bft) W-SW 258 0 min 0,000 mm 0,7 UV-I 113 W/m 13,7 C 4,8 km/h (1 Bft)
03.08.2016 18:52 22,4 C 22,4 C 62 % 1013,3 hPa 0,0 mm 2,7 km/h (1 Bft) W-NW 282 0 min 0,000 mm 0,7 UV-I 114 W/m 14,8 C 4,8 km/h (1 Bft)
03.08.2016 18:53 22,3 C 22,4 C 60 % 1013,3 hPa 0,0 mm 1,3 km/h (1 Bft) W 281 0 min 0,000 mm 0,7 UV-I 114 W/m 14,2 C 3,2 km/h (1 Bft)
03.08.2016 18:54 22,3 C 22,3 C 62 % 1013,2 hPa 0,0 mm 0,8 km/h (0 Bft) W 281 0 min 0,000 mm 0,7 UV-I 113 W/m 14,7 C 1,6 km/h (1 Bft)
03.08.2016 18:55 22,2 C 22,3 C 62 % 1013,3 hPa 0,0 mm 2,3 km/h (1 Bft) W 260 0 min 0,000 mm 0,7 UV-I 113 W/m 14,6 C 3,2 km/h (1 Bft)
03.08.2016 18:56 22,2 C 22,2 C 65 % 1013,2 hPa 0,0 mm 0,4 km/h (0 Bft) W 260 0 min 0,000 mm 0,7 UV-I 109 W/m 15,3 C 1,6 km/h (1 Bft)
03.08.2016 18:57 22,2 C 22,2 C 62 % 1013,2 hPa 0,0 mm 1,4 km/h (1 Bft) W 260 0 min 0,000 mm 0,7 UV-I 107 W/m 14,6 C 3,2 km/h (1 Bft)
03.08.2016 18:58 22,1 C 22,2 C 60 % 1013,2 hPa 0,0 mm 0,6 km/h (0 Bft) W 260 0 min 0,000 mm 0,6 UV-I 100 W/m 14,0 C 1,6 km/h (1 Bft)
03.08.2016 18:59 22,1 C 22,1 C 65 % 1013,2 hPa 0,0 mm 0,0 km/h (0 Bft) W 260 0 min 0,000 mm 0,6 UV-I 97 W/m 15,2 C 0,0 km/h (0 Bft)
03.08.2016 19:00 22,1 C 22,1 C 63 % 1013,3 hPa 0,0 mm 0,3 km/h (0 Bft) W 260 0 min 0,000 mm 0,6 UV-I 95 W/m 14,7 C 1,6 km/h (1 Bft)
03.08.2016 19:01 22,2 C 22,2 C 63 % 1013,3 hPa 0,0 mm 0,3 km/h (0 Bft) W 260 0 min 0,127 mm 0,6 UV-I 93 W/m 14,8 C 1,6 km/h (1 Bft)
03.08.2016 19:02 22,1 C 22,2 C 64 % 1013,2 hPa 0,0 mm 0,0 km/h (0 Bft) W 260 0 min 0,000 mm 0,6 UV-I 91 W/m 15,0 C 0,0 km/h (0 Bft)
03.08.2016 19:03 22,1 C 22,1 C 61 % 1013,3 hPa 0,0 mm 0,1 km/h (0 Bft) W 260 0 min 0,000 mm 0,5 UV-I 91 W/m 14,2 C 1,6 km/h (1 Bft)
03.08.2016 19:04 22,1 C 22,1 C 62 % 1013,2 hPa 0,0 mm 3,1 km/h (1 Bft) W-SW 246 0 min 0,000 mm 0,5 UV-I 90 W/m 14,5 C 6,4 km/h (2 Bft)
03.08.2016 19:05 22,2 C 22,2 C 66 % 1013,2 hPa 0,0 mm 5,1 km/h (1 Bft) W 259 0 min 0,000 mm 0,5 UV-I 88 W/m 15,5 C 9,7 km/h (2 Bft)
03.08.2016 19:06 22,2 C 22,2 C 62 % 1013,2 hPa 0,0 mm 0,9 km/h (0 Bft) W 259 0 min 0,000 mm 0,5 UV-I 84 W/m 14,6 C 1,6 km/h (1 Bft)
03.08.2016 19:07 22,2 C 22,2 C 61 % 1013,3 hPa 0,0 mm 2,3 km/h (1 Bft) W-SW 254 0 min 0,000 mm 0,5 UV-I 81 W/m 14,3 C 3,2 km/h (1 Bft)
03.08.2016 19:08 22,2 C 22,2 C 61 % 1013,2 hPa 0,0 mm 2,0 km/h (1 Bft) SW 217 0 min 0,000 mm 0,5 UV-I 79 W/m 14,3 C 4,8 km/h (1 Bft)
03.08.2016 19:09 22,2 C 22,2 C 58 % 1013,3 hPa 0,0 mm 4,6 km/h (1 Bft) W-SW 242 0 min 0,000 mm 0,0 UV-I 77 W/m 13,5 C 6,4 km/h (2 Bft)
03.08.2016 19:10 22,3 C 22,3 C 61 % 1013,3 hPa 0,0 mm 6,6 km/h (2 Bft) W 271 0 min 0,000 mm 0,0 UV-I 72 W/m 14,4 C 9,7 km/h (2 Bft)
03.08.2016 19:11 22,2 C 22,3 C 61 % 1013,3 hPa 0,0 mm 7,8 km/h (2 Bft) W-SW 248 0 min 0,000 mm 0,0 UV-I 70 W/m 14,3 C 12,9 km/h (3 Bft)
03.08.2016 19:12 22,2 C 22,3 C 59 % 1013,3 hPa 0,0 mm 5,5 km/h (1 Bft) W 260 0 min 0,000 mm 0,0 UV-I 67 W/m 13,8 C 11,3 km/h (2 Bft)
03.08.2016 19:13 22,1 C 22,2 C 62 % 1013,3 hPa 0,0 mm 3,0 km/h (1 Bft) SW 229 0 min 0,000 mm 0,0 UV-I 63 W/m 14,5 C 4,8 km/h (1 Bft)
03.08.2016 19:14 22,1 C 22,1 C 61 % 1013,3 hPa 0,0 mm 2,5 km/h (1 Bft) W-SW 252 0 min 0,000 mm 0,0 UV-I 58 W/m 14,2 C 4,8 km/h (1 Bft)
03.08.2016 19:15 22,0 C 22,1 C 59 % 1013,3 hPa 0,0 mm 4,3 km/h (1 Bft) W-SW 241 0 min 0,000 mm 0,0 UV-I 54 W/m 13,6 C 6,4 km/h (2 Bft)
03.08.2016 19:16 22,0 C 22,0 C 61 % 1013,3 hPa 0,0 mm 3,1 km/h (1 Bft) SW 232 0 min 0,000 mm 0,0 UV-I 49 W/m 14,1 C 6,4 km/h (2 Bft)
03.08.2016 19:17 21,9 C 22,0 C 61 % 1013,3 hPa 0,0 mm 4,8 km/h (1 Bft) W-SW 249 0 min 0,000 mm 0,0 UV-I 49 W/m 14,0 C 6,4 km/h (2 Bft)
03.08.2016 19:18 21,9 C 21,9 C 62 % 1013,3 hPa 0,0 mm 3,2 km/h (1 Bft) W-SW 250 0 min 0,000 mm 0,0 UV-I 60 W/m 14,3 C 4,8 km/h (1 Bft)
03.08.2016 19:19 21,9 C 21,9 C 61 % 1013,3 hPa 0,0 mm 4,6 km/h (1 Bft) W 264 0 min 0,000 mm 0,0 UV-I 54 W/m 14,0 C 9,7 km/h (2 Bft)
03.08.2016 19:20 21,8 C 21,9 C 61 % 1013,4 hPa 0,0 mm 3,4 km/h (1 Bft) W-SW 257 0 min 0,000 mm 0,0 UV-I 54 W/m 13,9 C 6,4 km/h (2 Bft)
03.08.2016 19:21 21,8 C 21,9 C 64 % 1013,4 hPa 0,0 mm 5,0 km/h (1 Bft) W 263 0 min 0,000 mm 0,0 UV-I 58 W/m 14,7 C 11,3 km/h (2 Bft)
03.08.2016 19:22 21,8 C 21,8 C 63 % 1013,4 hPa 0,0 mm 4,8 km/h (1 Bft) W 260 0 min 0,000 mm 0,0 UV-I 72 W/m 14,4 C 6,4 km/h (2 Bft)
03.08.2016 19:23 21,8 C 21,8 C 64 % 1013,4 hPa 0,0 mm 7,4 km/h (2 Bft) W 263 0 min 0,000 mm 0,0 UV-I 69 W/m 14,7 C 9,7 km/h (2 Bft)
03.08.2016 19:24 21,8 C 21,8 C 63 % 1013,3 hPa 0,0 mm 4,3 km/h (1 Bft) W-SW 258 0 min 0,000 mm 0,0 UV-I 72 W/m 14,4 C 9,7 km/h (2 Bft)
03.08.2016 19:25 21,9 C 21,9 C 62 % 1013,3 hPa 0,0 mm 4,3 km/h (1 Bft) W-NW 285 0 min 0,000 mm 0,0 UV-I 77 W/m 14,3 C 6,4 km/h (2 Bft)
03.08.2016 19:26 21,9 C 21,9 C 62 % 1013,4 hPa 0,0 mm 5,9 km/h (2 Bft) W 276 0 min 0,000 mm 0,0 UV-I 84 W/m 14,3 C 11,3 km/h (2 Bft)
03.08.2016 19:27 21,9 C 22,0 C 60 % 1013,4 hPa 0,0 mm 7,2 km/h (2 Bft) W 281 0 min 0,000 mm 0,0 UV-I 90 W/m 13,8 C 14,5 km/h (3 Bft)
03.08.2016 19:28 22,1 C 22,1 C 61 % 1013,4 hPa 0,0 mm 5,8 km/h (2 Bft) W-NW 286 0 min 0,000 mm 0,0 UV-I 88 W/m 14,2 C 9,7 km/h (2 Bft)
03.08.2016 19:29 22,1 C 22,1 C 61 % 1013,4 hPa 0,0 mm 3,2 km/h (1 Bft) W 270 0 min 0,000 mm 0,0 UV-I 88 W/m 14,2 C 6,4 km/h (2 Bft)
03.08.2016 19:30 22,1 C 22,1 C 61 % 1013,4 hPa 0,0 mm 4,2 km/h (1 Bft) W-SW 257 0 min 0,000 mm 0,0 UV-I 88 W/m 14,2 C 6,4 km/h (2 Bft)
03.08.2016 19:31 22,1 C 22,1 C 63 % 1013,4 hPa 0,0 mm 4,6 km/h (1 Bft) W 262 0 min 0,000 mm 0,0 UV-I 100 W/m 14,7 C 6,4 km/h (2 Bft)
03.08.2016 19:32 22,1 C 22,1 C 63 % 1013,4 hPa 0,0 mm 4,2 km/h (1 Bft) W-SW 243 1 min 0,000 mm 0,0 UV-I 107 W/m 14,7 C 4,8 km/h (1 Bft)
03.08.2016 19:33 22,1 C 22,1 C 63 % 1013,4 hPa 0,0 mm 4,8 km/h (1 Bft) W 262 0 min 0,000 mm 0,0 UV-I 76 W/m 14,7 C 8,0 km/h (2 Bft)
03.08.2016 19:34 22,1 C 22,1 C 63 % 1013,4 hPa 0,0 mm 3,3 km/h (1 Bft) W-NW 284 0 min 0,000 mm 0,0 UV-I 72 W/m 14,7 C 4,8 km/h (1 Bft)
03.08.2016 19:35 22,1 C 22,1 C 61 % 1013,4 hPa 0,0 mm 7,0 km/h (2 Bft) W-NW 300 0 min 0,000 mm 0,0 UV-I 69 W/m 14,2 C 11,3 km/h (2 Bft)
03.08.2016 19:36 22,1 C 22,1 C 61 % 1013,4 hPa 0,0 mm 5,1 km/h (1 Bft) W-NW 296 0 min 0,000 mm 0,0 UV-I 79 W/m 14,2 C 6,4 km/h (2 Bft)
03.08.2016 19:37 22,1 C 22,1 C 62 % 1013,4 hPa 0,0 mm 4,1 km/h (1 Bft) NW 319 0 min 0,000 mm 0,0 UV-I 90 W/m 14,5 C 6,4 km/h (2 Bft)
03.08.2016 19:38 22,1 C 22,1 C 62 % 1013,4 hPa 0,0 mm 3,9 km/h (1 Bft) W-SW 257 0 min 0,000 mm 0,0 UV-I 63 W/m 14,5 C 4,8 km/h (1 Bft)
03.08.2016 19:39 22,1 C 22,1 C 61 % 1013,4 hPa 0,0 mm 2,9 km/h (1 Bft) W 261 0 min 0,000 mm 0,0 UV-I 53 W/m 14,2 C 4,8 km/h (1 Bft)
03.08.2016 19:40 22,1 C 22,1 C 60 % 1013,4 hPa 0,0 mm 5,6 km/h (1 Bft) W-NW 292 0 min 0,000 mm 0,0 UV-I 51 W/m 14,0 C 11,3 km/h (2 Bft)
03.08.2016 19:41 22,1 C 22,1 C 62 % 1013,4 hPa 0,0 mm 4,0 km/h (1 Bft) W-NW 288 0 min 0,000 mm 0,0 UV-I 49 W/m 14,5 C 8,0 km/h (2 Bft)
03.08.2016 19:42 22,0 C 22,1 C 63 % 1013,4 hPa 0,0 mm 3,9 km/h (1 Bft) W 281 0 min 0,000 mm 0,0 UV-I 47 W/m 14,6 C 6,4 km/h (2 Bft)
03.08.2016 19:43 21,9 C 22,0 C 65 % 1013,4 hPa 0,0 mm 3,9 km/h (1 Bft) W-NW 295 0 min 0,000 mm 0,0 UV-I 47 W/m 15,0 C 6,4 km/h (2 Bft)
03.08.2016 19:44 21,8 C 21,9 C 62 % 1013,4 hPa 0,0 mm 4,1 km/h (1 Bft) W-SW 250 0 min 0,000 mm 0,0 UV-I 47 W/m 14,2 C 6,4 km/h (2 Bft)
03.08.2016 19:45 21,8 C 21,8 C 61 % 1013,4 hPa 0,0 mm 7,9 km/h (2 Bft) W-SW 255 0 min 0,000 mm 0,0 UV-I 49 W/m 13,9 C 12,9 km/h (3 Bft)
03.08.2016 19:46 21,8 C 21,8 C 62 % 1013,4 hPa 0,0 mm 4,1 km/h (1 Bft) W 277 0 min 0,000 mm 0,0 UV-I 53 W/m 14,2 C 9,7 km/h (2 Bft)
03.08.2016 19:47 21,8 C 21,8 C 63 % 1013,4 hPa 0,0 mm 3,4 km/h (1 Bft) W-SW 255 0 min 0,000 mm 0,0 UV-I 53 W/m 14,4 C 6,4 km/h (2 Bft)
03.08.2016 19:48 21,7 C 21,8 C 67 % 1013,4 hPa 0,0 mm 2,8 km/h (1 Bft) W 259 0 min 0,000 mm 0,0 UV-I 63 W/m 15,3 C 4,8 km/h (1 Bft)
03.08.2016 19:49 21,6 C 21,7 C 66 % 1013,4 hPa 0,0 mm 1,7 km/h (1 Bft) W 259 0 min 0,000 mm 0,0 UV-I 69 W/m 15,0 C 3,2 km/h (1 Bft)
03.08.2016 19:50 21,5 C 21,6 C 68 % 1013,4 hPa 0,0 mm 1,1 km/h (1 Bft) W-SW 257 0 min 0,000 mm 0,0 UV-I 60 W/m 15,3 C 4,8 km/h (1 Bft)
03.08.2016 19:51 21,4 C 21,5 C 65 % 1013,4 hPa 0,0 mm 4,0 km/h (1 Bft) W 281 0 min 0,000 mm 0,0 UV-I 62 W/m 14,5 C 4,8 km/h (1 Bft)
03.08.2016 19:52 21,4 C 21,4 C 65 % 1013,4 hPa 0,0 mm 2,0 km/h (1 Bft) W 281 0 min 0,000 mm 0,0 UV-I 62 W/m 14,5 C 3,2 km/h (1 Bft)
03.08.2016 19:53 21,4 C 21,4 C 65 % 1013,4 hPa 0,0 mm 1,3 km/h (1 Bft) W 281 0 min 0,000 mm 0,0 UV-I 62 W/m 14,5 C 3,2 km/h (1 Bft)
03.08.2016 19:54 21,4 C 21,4 C 65 % 1013,4 hPa 0,0 mm 1,0 km/h (0 Bft) W 280 0 min 0,000 mm 0,0 UV-I 62 W/m 14,5 C 1,6 km/h (1 Bft)
03.08.2016 19:55 21,4 C 21,4 C 64 % 1013,5 hPa 0,0 mm 1,7 km/h (1 Bft) W-SW 257 0 min 0,000 mm 0,0 UV-I 60 W/m 14,3 C 3,2 km/h (1 Bft)
03.08.2016 19:56 21,4 C 21,4 C 66 % 1013,4 hPa 0,0 mm 1,7 km/h (1 Bft) W-SW 257 0 min 0,000 mm 0,0 UV-I 60 W/m 14,8 C 3,2 km/h (1 Bft)
03.08.2016 19:57 21,3 C 21,4 C 65 % 1013,4 hPa 0,0 mm 0,9 km/h (0 Bft) W-SW 257 1 min 0,000 mm 0,0 UV-I 69 W/m 14,4 C 1,6 km/h (1 Bft)
03.08.2016 19:58 21,4 C 21,4 C 66 % 1013,4 hPa 0,0 mm 1,5 km/h (1 Bft) W-SW 257 1 min 0,000 mm 0,0 UV-I 70 W/m 14,8 C 3,2 km/h (1 Bft)
03.08.2016 19:59 21,3 C 21,4 C 67 % 1013,5 hPa 0,0 mm 0,8 km/h (0 Bft) W-NW 285 1 min 0,000 mm 0,0 UV-I 77 W/m 14,9 C 3,2 km/h (1 Bft)
03.08.2016 20:00 21,4 C 21,4 C 66 % 1013,5 hPa 0,0 mm 1,0 km/h (0 Bft) W-NW 285 1 min 0,000 mm 0,0 UV-I 72 W/m 14,8 C 3,2 km/h (1 Bft)
03.08.2016 20:01 21,4 C 21,4 C 66 % 1013,6 hPa 0,0 mm 0,7 km/h (0 Bft) W-NW 285 1 min 0,076 mm 0,0 UV-I 67 W/m 14,8 C 1,6 km/h (1 Bft)
03.08.2016 20:02 21,4 C 21,4 C 66 % 1013,5 hPa 0,0 mm 0,8 km/h (0 Bft) W-SW 240 1 min 0,000 mm 0,0 UV-I 63 W/m 14,8 C 3,2 km/h (1 Bft)
03.08.2016 20:03 21,4 C 21,4 C 66 % 1013,5 hPa 0,0 mm 0,7 km/h (0 Bft) W-SW 240 1 min 0,000 mm 0,0 UV-I 63 W/m 14,8 C 1,6 km/h (1 Bft)
03.08.2016 20:04 21,4 C 21,4 C 67 % 1013,5 hPa 0,0 mm 0,5 km/h (0 Bft) W-SW 240 1 min 0,000 mm 0,0 UV-I 60 W/m 15,0 C 1,6 km/h (1 Bft)
03.08.2016 20:05 21,4 C 21,4 C 65 % 1013,5 hPa 0,0 mm 1,3 km/h (1 Bft) W-SW 240 1 min 0,000 mm 0,0 UV-I 56 W/m 14,5 C 3,2 km/h (1 Bft)
03.08.2016 20:06 21,4 C 21,4 C 65 % 1013,5 hPa 0,0 mm 0,7 km/h (0 Bft) W-SW 240 1 min 0,000 mm 0,0 UV-I 53 W/m 14,5 C 1,6 km/h (1 Bft)
03.08.2016 20:07 21,4 C 21,4 C 65 % 1013,5 hPa 0,0 mm 1,1 km/h (1 Bft) W-SW 239 1 min 0,000 mm 0,0 UV-I 54 W/m 14,5 C 1,6 km/h (1 Bft)
03.08.2016 20:08 21,5 C 21,5 C 64 % 1013,5 hPa 0,0 mm 1,7 km/h (1 Bft) W-SW 239 1 min 0,000 mm 0,0 UV-I 53 W/m 14,4 C 3,2 km/h (1 Bft)
03.08.2016 20:09 21,6 C 21,6 C 64 % 1013,6 hPa 0,0 mm 1,0 km/h (0 Bft) W-SW 239 0 min 0,000 mm 0,0 UV-I 44 W/m 14,5 C 1,6 km/h (1 Bft)
03.08.2016 20:10 21,6 C 21,6 C 63 % 1013,6 hPa 0,0 mm 0,5 km/h (0 Bft) W-SW 239 0 min 0,000 mm 0,0 UV-I 40 W/m 14,2 C 1,6 km/h (1 Bft)
03.08.2016 20:11 21,6 C 21,6 C 63 % 1013,6 hPa 0,0 mm 1,9 km/h (1 Bft) W-SW 239 0 min 0,000 mm 0,0 UV-I 40 W/m 14,2 C 3,2 km/h (1 Bft)
03.08.2016 20:12 21,6 C 21,6 C 64 % 1013,6 hPa 0,0 mm 1,2 km/h (1 Bft) W-SW 239 0 min 0,000 mm 0,0 UV-I 37 W/m 14,5 C 3,2 km/h (1 Bft)
03.08.2016 20:13 21,6 C 21,6 C 64 % 1013,6 hPa 0,0 mm 2,3 km/h (1 Bft) SW 215 0 min 0,000 mm 0,0 UV-I 39 W/m 14,5 C 3,2 km/h (1 Bft)
03.08.2016 20:14 21,6 C 21,6 C 64 % 1013,6 hPa 0,0 mm 1,3 km/h (1 Bft) SW 215 0 min 0,000 mm 0,0 UV-I 35 W/m 14,5 C 3,2 km/h (1 Bft)
03.08.2016 20:15 21,5 C 21,6 C 65 % 1013,6 hPa 0,0 mm 1,3 km/h (1 Bft) S-SW 210 0 min 0,000 mm 0,0 UV-I 33 W/m 14,6 C 3,2 km/h (1 Bft)
03.08.2016 20:16 21,4 C 21,5 C 64 % 1013,6 hPa 0,0 mm 2,5 km/h (1 Bft) S-SW 209 0 min 0,000 mm 0,0 UV-I 33 W/m 14,3 C 4,8 km/h (1 Bft)
03.08.2016 20:17 21,4 C 21,4 C 63 % 1013,6 hPa 0,0 mm 0,8 km/h (0 Bft) S-SW 209 0 min 0,000 mm 0,0 UV-I 33 W/m 14,1 C 1,6 km/h (1 Bft)
03.08.2016 20:18 21,3 C 21,4 C 64 % 1013,6 hPa 0,0 mm 1,3 km/h (1 Bft) S-SW 209 0 min 0,000 mm 0,0 UV-I 32 W/m 14,2 C 3,2 km/h (1 Bft)
03.08.2016 20:19 21,3 C 21,3 C 65 % 1013,6 hPa 0,0 mm 2,0 km/h (1 Bft) S-SW 195 0 min 0,000 mm 0,0 UV-I 32 W/m 14,4 C 3,2 km/h (1 Bft)
03.08.2016 20:20 21,3 C 21,3 C 66 % 1013,6 hPa 0,0 mm 2,0 km/h (1 Bft) S-SW 195 0 min 0,000 mm 0,0 UV-I 26 W/m 14,7 C 3,2 km/h (1 Bft)
03.08.2016 20:21 21,2 C 21,3 C 65 % 1013,7 hPa 0,0 mm 1,3 km/h (1 Bft) S-SW 195 0 min 0,000 mm 0,0 UV-I 25 W/m 14,4 C 1,6 km/h (1 Bft)
03.08.2016 20:22 21,2 C 21,2 C 65 % 1013,7 hPa 0,0 mm 0,6 km/h (0 Bft) S-SW 196 0 min 0,000 mm 0,0 UV-I 23 W/m 14,4 C 1,6 km/h (1 Bft)
03.08.2016 20:23 21,1 C 21,2 C 66 % 1013,7 hPa 0,0 mm 2,0 km/h (1 Bft) S-SW 195 0 min 0,000 mm 0,0 UV-I 23 W/m 14,5 C 3,2 km/h (1 Bft)
03.08.2016 20:24 21,1 C 21,1 C 65 % 1013,7 hPa 0,0 mm 2,3 km/h (1 Bft) S-SW 195 0 min 0,000 mm 0,0 UV-I 23 W/m 14,3 C 3,2 km/h (1 Bft)
03.08.2016 20:25 21,1 C 21,1 C 66 % 1013,7 hPa 0,0 mm 1,8 km/h (1 Bft) S-SW 195 0 min 0,000 mm 0,0 UV-I 21 W/m 14,5 C 3,2 km/h (1 Bft)
03.08.2016 20:26 21,0 C 21,1 C 66 % 1013,7 hPa 0,0 mm 2,3 km/h (1 Bft) S-SW 195 0 min 0,000 mm 0,0 UV-I 19 W/m 14,4 C 3,2 km/h (1 Bft)
03.08.2016 20:27 20,9 C 21,0 C 65 % 1013,7 hPa 0,0 mm 1,2 km/h (1 Bft) S-SW 195 0 min 0,000 mm 0,0 UV-I 19 W/m 14,1 C 3,2 km/h (1 Bft)
03.08.2016 20:28 20,8 C 20,9 C 66 % 1013,7 hPa 0,0 mm 1,9 km/h (1 Bft) S-SW 195 0 min 0,000 mm 0,0 UV-I 19 W/m 14,2 C 3,2 km/h (1 Bft)
03.08.2016 20:29 20,8 C 20,8 C 67 % 1013,7 hPa 0,0 mm 1,9 km/h (1 Bft) S-SW 195 1 min 0,000 mm 0,0 UV-I 19 W/m 14,4 C 3,2 km/h (1 Bft)
03.08.2016 20:30 20,7 C 20,8 C 68 % 1013,7 hPa 0,0 mm 1,6 km/h (1 Bft) S-SW 195 1 min 0,000 mm 0,0 UV-I 19 W/m 14,6 C 1,6 km/h (1 Bft)
03.08.2016 20:31 20,7 C 20,7 C 67 % 1013,8 hPa 0,0 mm 2,5 km/h (1 Bft) S-SW 195 1 min 0,000 mm 0,0 UV-I 18 W/m 14,3 C 4,8 km/h (1 Bft)
03.08.2016 20:32 20,7 C 20,7 C 68 % 1013,7 hPa 0,0 mm 1,5 km/h (1 Bft) S-SW 192 1 min 0,000 mm 0,0 UV-I 18 W/m 14,6 C 3,2 km/h (1 Bft)
03.08.2016 20:33 20,6 C 20,7 C 67 % 1013,7 hPa 0,0 mm 1,5 km/h (1 Bft) S-SW 192 1 min 0,000 mm 0,0 UV-I 16 W/m 14,3 C 3,2 km/h (1 Bft)
03.08.2016 20:34 20,6 C 20,6 C 68 % 1013,8 hPa 0,0 mm 1,5 km/h (1 Bft) S-SW 192 1 min 0,000 mm 0,0 UV-I 14 W/m 14,5 C 3,2 km/h (1 Bft)
03.08.2016 20:35 20,5 C 20,6 C 66 % 1013,8 hPa 0,0 mm 1,9 km/h (1 Bft) S-SW 192 1 min 0,000 mm 0,0 UV-I 14 W/m 13,9 C 3,2 km/h (1 Bft)
03.08.2016 20:36 20,5 C 20,5 C 68 % 1013,7 hPa 0,0 mm 1,4 km/h (1 Bft) S-SW 193 1 min 0,000 mm 0,0 UV-I 12 W/m 14,4 C 3,2 km/h (1 Bft)
03.08.2016 20:37 20,5 C 20,6 C 67 % 1013,8 hPa 0,0 mm 1,3 km/h (1 Bft) S-SW 192 0 min 0,000 mm 0,0 UV-I 12 W/m 14,2 C 3,2 km/h (1 Bft)
03.08.2016 20:38 20,5 C 20,5 C 68 % 1013,8 hPa 0,0 mm 1,4 km/h (1 Bft) S 183 0 min 0,000 mm 0,0 UV-I 9 W/m 14,4 C 4,8 km/h (1 Bft)
03.08.2016 20:39 20,6 C 20,6 C 66 % 1013,8 hPa 0,0 mm 2,7 km/h (1 Bft) S 184 0 min 0,000 mm 0,0 UV-I 9 W/m 14,0 C 4,8 km/h (1 Bft)
03.08.2016 20:40 20,7 C 20,7 C 66 % 1013,8 hPa 0,0 mm 4,5 km/h (1 Bft) S 182 0 min 0,000 mm 0,0 UV-I 7 W/m 14,1 C 6,4 km/h (2 Bft)
03.08.2016 20:41 20,7 C 20,7 C 66 % 1013,8 hPa 0,0 mm 2,5 km/h (1 Bft) S 178 0 min 0,000 mm 0,0 UV-I 7 W/m 14,1 C 4,8 km/h (1 Bft)
03.08.2016 20:42 20,7 C 20,8 C 65 % 1013,9 hPa 0,0 mm 2,3 km/h (1 Bft) S 178 0 min 0,000 mm 0,0 UV-I 7 W/m 13,9 C 4,8 km/h (1 Bft)
03.08.2016 20:43 20,7 C 20,7 C 67 % 1013,9 hPa 0,0 mm 0,7 km/h (0 Bft) S 178 0 min 0,000 mm 0,0 UV-I 5 W/m 14,3 C 1,6 km/h (1 Bft)
03.08.2016 20:44 20,6 C 20,7 C 65 % 1013,8 hPa 0,0 mm 2,7 km/h (1 Bft) S-SW 198 0 min 0,000 mm 0,0 UV-I 5 W/m 13,8 C 4,8 km/h (1 Bft)
03.08.2016 20:45 20,5 C 20,6 C 67 % 1013,9 hPa 0,0 mm 3,1 km/h (1 Bft) S-SW 202 0 min 0,000 mm 0,0 UV-I 0 W/m 14,2 C 4,8 km/h (1 Bft)
03.08.2016 20:46 20,4 C 20,5 C 66 % 1013,9 hPa 0,0 mm 1,5 km/h (1 Bft) S-SW 202 0 min 0,000 mm 0,0 UV-I 0 W/m 13,8 C 3,2 km/h (1 Bft)
03.08.2016 20:47 20,3 C 20,4 C 66 % 1013,9 hPa 0,0 mm 0,9 km/h (0 Bft) S-SW 202 0 min 0,000 mm 0,0 UV-I 0 W/m 13,7 C 1,6 km/h (1 Bft)
03.08.2016 20:48 20,3 C 20,4 C 66 % 1013,9 hPa 0,0 mm 0,3 km/h (0 Bft) S-SW 202 0 min 0,000 mm 0,0 UV-I 0 W/m 13,7 C 1,6 km/h (1 Bft)
03.08.2016 20:49 20,2 C 20,3 C 68 % 1013,9 hPa 0,0 mm 1,0 km/h (0 Bft) NW 307 0 min 0,000 mm 0,0 UV-I 0 W/m 14,1 C 3,2 km/h (1 Bft)
03.08.2016 20:50 19,9 C 20,2 C 71 % 1014,0 hPa 0,0 mm 2,2 km/h (1 Bft) NW 307 0 min 0,000 mm 0,0 UV-I 0 W/m 14,5 C 3,2 km/h (1 Bft)
03.08.2016 20:51 19,7 C 19,9 C 72 % 1014,0 hPa 0,0 mm 0,9 km/h (0 Bft) NW 307 0 min 0,000 mm 0,0 UV-I 0 W/m 14,5 C 1,6 km/h (1 Bft)
03.08.2016 20:52 19,4 C 19,7 C 73 % 1014,0 hPa 0,0 mm 0,2 km/h (0 Bft) NW 307 0 min 0,000 mm 0,0 UV-I 0 W/m 14,4 C 1,6 km/h (1 Bft)
03.08.2016 20:53 19,2 C 19,4 C 75 % 1014,0 hPa 0,0 mm 0,0 km/h (0 Bft) NW 307 0 min 0,000 mm 0,0 UV-I 0 W/m 14,7 C 0,0 km/h (0 Bft)
03.08.2016 20:54 18,9 C 19,2 C 76 % 1014,0 hPa 0,0 mm 0,3 km/h (0 Bft) NW 307 0 min 0,000 mm 0,0 UV-I 0 W/m 14,6 C 1,6 km/h (1 Bft)
03.08.2016 20:55 18,8 C 18,9 C 76 % 1014,0 hPa 0,0 mm 1,3 km/h (1 Bft) NW 307 0 min 0,000 mm 0,0 UV-I 0 W/m 14,5 C 1,6 km/h (1 Bft)
03.08.2016 20:56 18,7 C 18,8 C 76 % 1014,0 hPa 0,0 mm 0,9 km/h (0 Bft) NW 307 0 min 0,000 mm 0,0 UV-I 0 W/m 14,4 C 1,6 km/h (1 Bft)
03.08.2016 20:57 18,6 C 18,7 C 76 % 1014,0 hPa 0,0 mm 0,3 km/h (0 Bft) NW 307 0 min 0,000 mm 0,0 UV-I 0 W/m 14,3 C 1,6 km/h (1 Bft)
03.08.2016 20:58 18,6 C 18,6 C 77 % 1013,9 hPa 0,0 mm 1,5 km/h (1 Bft) SW 234 0 min 0,000 mm 0,0 UV-I 0 W/m 14,5 C 3,2 km/h (1 Bft)
03.08.2016 20:59 18,6 C 18,6 C 74 % 1014,0 hPa 0,0 mm 0,0 km/h (0 Bft) SW 234 0 min 0,000 mm 0,0 UV-I 0 W/m 13,9 C 0,0 km/h (0 Bft)
03.08.2016 21:00 18,7 C 18,7 C 73 % 1014,0 hPa 0,0 mm 1,5 km/h (1 Bft) S 190 0 min 0,000 mm 0,0 UV-I 0 W/m 13,8 C 3,2 km/h (1 Bft)
03.08.2016 21:01 18,9 C 18,9 C 72 % 1014,0 hPa 0,0 mm 0,3 km/h (0 Bft) S 190 0 min 0,025 mm 0,0 UV-I 0 W/m 13,7 C 1,6 km/h (1 Bft)
03.08.2016 21:02 19,1 C 19,1 C 72 % 1014,0 hPa 0,0 mm 0,5 km/h (0 Bft) S 190 0 min 0,000 mm 0,0 UV-I 0 W/m 13,9 C 1,6 km/h (1 Bft)
03.08.2016 21:03 19,2 C 19,2 C 71 % 1014,0 hPa 0,0 mm 0,7 km/h (0 Bft) SW 215 0 min 0,000 mm 0,0 UV-I 0 W/m 13,8 C 3,2 km/h (1 Bft)
03.08.2016 21:04 19,2 C 19,3 C 73 % 1014,1 hPa 0,0 mm 2,2 km/h (1 Bft) SW 216 0 min 0,000 mm 0,0 UV-I 0 W/m 14,2 C 3,2 km/h (1 Bft)
03.08.2016 21:05 18,9 C 19,2 C 75 % 1014,1 hPa 0,0 mm 2,3 km/h (1 Bft) W-SW 242 0 min 0,000 mm 0,0 UV-I 0 W/m 14,4 C 3,2 km/h (1 Bft)
03.08.2016 21:06 18,7 C 18,9 C 77 % 1014,1 hPa 0,0 mm 1,1 km/h (1 Bft) W-SW 242 0 min 0,000 mm 0,0 UV-I 0 W/m 14,6 C 3,2 km/h (1 Bft)
03.08.2016 21:07 18,4 C 18,7 C 77 % 1014,1 hPa 0,0 mm 0,3 km/h (0 Bft) W-SW 242 0 min 0,000 mm 0,0 UV-I 0 W/m 14,3 C 1,6 km/h (1 Bft)
03.08.2016 21:08 18,2 C 18,4 C 78 % 1014,1 hPa 0,0 mm 1,2 km/h (1 Bft) W-SW 241 0 min 0,000 mm 0,0 UV-I 0 W/m 14,3 C 1,6 km/h (1 Bft)
03.08.2016 21:09 18,1 C 18,2 C 78 % 1014,1 hPa 0,0 mm 1,2 km/h (1 Bft) W-SW 241 0 min 0,000 mm 0,0 UV-I 0 W/m 14,2 C 1,6 km/h (1 Bft)
03.08.2016 21:10 17,9 C 18,1 C 79 % 1014,1 hPa 0,0 mm 1,1 km/h (1 Bft) W-SW 241 0 min 0,000 mm 0,0 UV-I 0 W/m 14,2 C 1,6 km/h (1 Bft)
03.08.2016 21:11 17,8 C 17,9 C 79 % 1014,1 hPa 0,0 mm 0,5 km/h (0 Bft) W-SW 241 0 min 0,000 mm 0,0 UV-I 0 W/m 14,1 C 1,6 km/h (1 Bft)
03.08.2016 21:12 17,8 C 17,8 C 79 % 1014,1 hPa 0,0 mm 0,0 km/h (0 Bft) W-SW 241 0 min 0,000 mm 0,0 UV-I 0 W/m 14,1 C 0,0 km/h (0 Bft)
03.08.2016 21:13 17,8 C 17,8 C 79 % 1014,1 hPa 0,0 mm 0,0 km/h (0 Bft) W-SW 241 0 min 0,000 mm 0,0 UV-I 0 W/m 14,1 C 0,0 km/h (0 Bft)
03.08.2016 21:14 17,7 C 17,8 C 80 % 1014,1 hPa 0,0 mm 0,0 km/h (0 Bft) W-SW 241 0 min 0,000 mm 0,0 UV-I 0 W/m 14,2 C 0,0 km/h (0 Bft)
03.08.2016 21:15 17,7 C 17,7 C 80 % 1014,1 hPa 0,0 mm 0,0 km/h (0 Bft) W-SW 241 0 min 0,000 mm 0,0 UV-I 0 W/m 14,2 C 0,0 km/h (0 Bft)
03.08.2016 21:16 17,7 C 17,7 C 81 % 1014,1 hPa 0,0 mm 0,0 km/h (0 Bft) W-SW 241 0 min 0,000 mm 0,0 UV-I 0 W/m 14,4 C 0,0 km/h (0 Bft)
03.08.2016 21:17 17,6 C 17,7 C 81 % 1014,1 hPa 0,0 mm 0,0 km/h (0 Bft) W-SW 241 0 min 0,000 mm 0,0 UV-I 0 W/m 14,3 C 0,0 km/h (0 Bft)
03.08.2016 21:18 17,6 C 17,6 C 80 % 1014,1 hPa 0,0 mm 0,0 km/h (0 Bft) W-SW 241 0 min 0,000 mm 0,0 UV-I 0 W/m 14,1 C 0,0 km/h (0 Bft)
03.08.2016 21:19 17,6 C 17,6 C 80 % 1014,1 hPa 0,0 mm 0,0 km/h (0 Bft) W-SW 241 0 min 0,000 mm 0,0 UV-I 0 W/m 14,1 C 0,0 km/h (0 Bft)
03.08.2016 21:20 17,7 C 17,7 C 79 % 1014,1 hPa 0,0 mm 0,0 km/h (0 Bft) W-SW 241 0 min 0,000 mm 0,0 UV-I 0 W/m 14,0 C 0,0 km/h (0 Bft)
03.08.2016 21:21 17,7 C 17,7 C 79 % 1014,1 hPa 0,0 mm 0,0 km/h (0 Bft) W-SW 241 0 min 0,000 mm 0,0 UV-I 0 W/m 14,0 C 0,0 km/h (0 Bft)
03.08.2016 21:22 17,7 C 17,7 C 78 % 1014,2 hPa 0,0 mm 0,0 km/h (0 Bft) SW 215 0 min 0,000 mm 0,0 UV-I 0 W/m 13,8 C 0,0 km/h (0 Bft)
03.08.2016 21:23 17,8 C 17,8 C 78 % 1014,1 hPa 0,0 mm 0,0 km/h (0 Bft) S 189 0 min 0,000 mm 0,0 UV-I 0 W/m 13,9 C 0,0 km/h (0 Bft)
03.08.2016 21:24 17,9 C 17,9 C 78 % 1014,1 hPa 0,0 mm 2,5 km/h (1 Bft) S-SO 161 0 min 0,000 mm 0,0 UV-I 0 W/m 14,0 C 3,2 km/h (1 Bft)
03.08.2016 21:25 18,0 C 18,0 C 77 % 1014,1 hPa 0,0 mm 1,7 km/h (1 Bft) S-SO 161 0 min 0,000 mm 0,0 UV-I 0 W/m 13,9 C 3,2 km/h (1 Bft)
03.08.2016 21:26 18,1 C 18,1 C 77 % 1014,1 hPa 0,0 mm 2,1 km/h (1 Bft) S-SO 161 0 min 0,000 mm 0,0 UV-I 0 W/m 14,0 C 3,2 km/h (1 Bft)
03.08.2016 21:27 18,1 C 18,1 C 77 % 1014,1 hPa 0,0 mm 2,3 km/h (1 Bft) S-SO 161 0 min 0,000 mm 0,0 UV-I 0 W/m 14,0 C 3,2 km/h (1 Bft)
03.08.2016 21:28 18,1 C 18,2 C 77 % 1014,1 hPa 0,0 mm 3,1 km/h (1 Bft) S 171 0 min 0,000 mm 0,0 UV-I 0 W/m 14,0 C 6,4 km/h (2 Bft)
03.08.2016 21:29 18,1 C 18,2 C 77 % 1014,1 hPa 0,0 mm 2,7 km/h (1 Bft) S 171 0 min 0,000 mm 0,0 UV-I 0 W/m 14,0 C 3,2 km/h (1 Bft)
03.08.2016 21:30 18,1 C 18,2 C 77 % 1014,1 hPa 0,0 mm 2,6 km/h (1 Bft) S 171 0 min 0,000 mm 0,0 UV-I 0 W/m 14,0 C 3,2 km/h (1 Bft)
03.08.2016 21:31 18,1 C 18,2 C 77 % 1014,1 hPa 0,0 mm 2,0 km/h (1 Bft) S 171 0 min 0,000 mm 0,0 UV-I 0 W/m 14,0 C 6,4 km/h (2 Bft)
03.08.2016 21:32 18,1 C 18,1 C 77 % 1014,1 hPa 0,0 mm 2,3 km/h (1 Bft) S 171 0 min 0,000 mm 0,0 UV-I 0 W/m 14,0 C 3,2 km/h (1 Bft)
03.08.2016 21:33 18,1 C 18,1 C 77 % 1014,1 hPa 0,0 mm 2,0 km/h (1 Bft) S 171 0 min 0,000 mm 0,0 UV-I 0 W/m 14,0 C 3,2 km/h (1 Bft)
03.08.2016 21:34 17,9 C 18,1 C 77 % 1014,1 hPa 0,0 mm 3,4 km/h (1 Bft) S 171 0 min 0,000 mm 0,0 UV-I 0 W/m 13,8 C 6,4 km/h (2 Bft)
03.08.2016 21:35 17,8 C 17,9 C 78 % 1014,1 hPa 0,0 mm 2,3 km/h (1 Bft) S 171 0 min 0,000 mm 0,0 UV-I 0 W/m 13,9 C 3,2 km/h (1 Bft)
03.08.2016 21:36 17,6 C 17,8 C 78 % 1014,1 hPa 0,0 mm 2,5 km/h (1 Bft) S 171 0 min 0,000 mm 0,0 UV-I 0 W/m 13,7 C 6,4 km/h (2 Bft)
03.08.2016 21:37 17,5 C 17,6 C 78 % 1014,1 hPa 0,0 mm 1,5 km/h (1 Bft) S 171 0 min 0,000 mm 0,0 UV-I 0 W/m 13,6 C 3,2 km/h (1 Bft)
03.08.2016 21:38 17,4 C 17,5 C 78 % 1014,1 hPa 0,0 mm 0,1 km/h (0 Bft) S 171 0 min 0,000 mm 0,0 UV-I 0 W/m 13,5 C 1,6 km/h (1 Bft)
03.08.2016 21:39 17,4 C 17,4 C 78 % 1014,1 hPa 0,0 mm 0,1 km/h (0 Bft) S 171 0 min 0,000 mm 0,0 UV-I 0 W/m 13,5 C 1,6 km/h (1 Bft)
03.08.2016 21:40 17,2 C 17,4 C 79 % 1014,1 hPa 0,0 mm 0,9 km/h (0 Bft) S 171 0 min 0,000 mm 0,0 UV-I 0 W/m 13,5 C 1,6 km/h (1 Bft)
03.08.2016 21:41 17,2 C 17,2 C 79 % 1014,1 hPa 0,0 mm 0,9 km/h (0 Bft) S 171 0 min 0,000 mm 0,0 UV-I 0 W/m 13,5 C 1,6 km/h (1 Bft)
03.08.2016 21:42 17,2 C 17,2 C 80 % 1014,1 hPa 0,0 mm 0,7 km/h (0 Bft) S 171 0 min 0,000 mm 0,0 UV-I 0 W/m 13,7 C 3,2 km/h (1 Bft)
03.08.2016 21:43 17,1 C 17,2 C 80 % 1014,1 hPa 0,0 mm 1,8 km/h (1 Bft) S 171 0 min 0,000 mm 0,0 UV-I 0 W/m 13,6 C 3,2 km/h (1 Bft)
03.08.2016 21:44 17,1 C 17,1 C 80 % 1014,1 hPa 0,0 mm 2,1 km/h (1 Bft) S 171 0 min 0,000 mm 0,0 UV-I 0 W/m 13,6 C 3,2 km/h (1 Bft)
03.08.2016 21:45 17,1 C 17,1 C 80 % 1014,1 hPa 0,0 mm 2,7 km/h (1 Bft) S 171 0 min 0,000 mm 0,0 UV-I 0 W/m 13,6 C 6,4 km/h (2 Bft)
03.08.2016 21:46 17,0 C 17,1 C 80 % 1014,1 hPa 0,0 mm 3,0 km/h (1 Bft) S 171 0 min 0,000 mm 0,0 UV-I 0 W/m 13,5 C 6,4 km/h (2 Bft)
03.08.2016 21:47 17,0 C 17,0 C 80 % 1014,1 hPa 0,0 mm 2,6 km/h (1 Bft) S 171 0 min 0,000 mm 0,0 UV-I 0 W/m 13,5 C 3,2 km/h (1 Bft)
03.08.2016 21:48 16,9 C 17,0 C 80 % 1014,1 hPa 0,0 mm 2,2 km/h (1 Bft) S 171 0 min 0,000 mm 0,0 UV-I 0 W/m 13,4 C 3,2 km/h (1 Bft)
03.08.2016 21:49 16,9 C 16,9 C 80 % 1014,1 hPa 0,0 mm 2,2 km/h (1 Bft) S 171 0 min 0,000 mm 0,0 UV-I 0 W/m 13,4 C 6,4 km/h (2 Bft)
03.08.2016 21:50 16,9 C 16,9 C 80 % 1014,1 hPa 0,0 mm 2,0 km/h (1 Bft) S 171 0 min 0,000 mm 0,0 UV-I 0 W/m 13,4 C 3,2 km/h (1 Bft)
03.08.2016 21:51 16,9 C 16,9 C 80 % 1014,1 hPa 0,0 mm 1,8 km/h (1 Bft) S 171 0 min 0,000 mm 0,0 UV-I 0 W/m 13,4 C 3,2 km/h (1 Bft)
03.08.2016 21:52 16,9 C 16,9 C 79 % 1014,1 hPa 0,0 mm 1,3 km/h (1 Bft) S 171 0 min 0,000 mm 0,0 UV-I 0 W/m 13,2 C 3,2 km/h (1 Bft)
03.08.2016 21:53 17,0 C 17,1 C 79 % 1014,1 hPa 0,0 mm 1,6 km/h (1 Bft) S 171 0 min 0,000 mm 0,0 UV-I 0 W/m 13,3 C 1,6 km/h (1 Bft)
03.08.2016 21:54 17,1 C 17,1 C 79 % 1014,0 hPa 0,0 mm 0,9 km/h (0 Bft) S 171 0 min 0,000 mm 0,0 UV-I 0 W/m 13,4 C 3,2 km/h (1 Bft)
03.08.2016 21:55 17,1 C 17,1 C 79 % 1014,1 hPa 0,0 mm 1,5 km/h (1 Bft) S 171 0 min 0,000 mm 0,0 UV-I 0 W/m 13,4 C 3,2 km/h (1 Bft)
03.08.2016 21:56 17,1 C 17,1 C 79 % 1014,1 hPa 0,0 mm 1,9 km/h (1 Bft) S 171 0 min 0,000 mm 0,0 UV-I 0 W/m 13,4 C 3,2 km/h (1 Bft)
03.08.2016 21:57 16,9 C 17,1 C 80 % 1014,1 hPa 0,0 mm 1,9 km/h (1 Bft) S 171 0 min 0,000 mm 0,0 UV-I 0 W/m 13,4 C 3,2 km/h (1 Bft)
03.08.2016 21:58 16,9 C 16,9 C 80 % 1014,1 hPa 0,0 mm 1,5 km/h (1 Bft) S 171 0 min 0,000 mm 0,0 UV-I 0 W/m 13,4 C 1,6 km/h (1 Bft)
03.08.2016 21:59 16,7 C 16,9 C 80 % 1014,1 hPa 0,0 mm 0,2 km/h (0 Bft) S 171 0 min 0,000 mm 0,0 UV-I 0 W/m 13,2 C 1,6 km/h (1 Bft)
03.08.2016 22:00 16,6 C 16,7 C 80 % 1014,1 hPa 0,0 mm 0,0 km/h (0 Bft) S 171 0 min 0,000 mm 0,0 UV-I 0 W/m 13,1 C 0,0 km/h (0 Bft)
03.08.2016 22:01 16,5 C 16,6 C 80 % 1014,2 hPa 0,0 mm 0,0 km/h (0 Bft) S 171 0 min 0,000 mm 0,0 UV-I 0 W/m 13,0 C 0,0 km/h (0 Bft)
03.08.2016 22:02 16,4 C 16,5 C 81 % 1014,1 hPa 0,0 mm 0,0 km/h (0 Bft) S 171 0 min 0,000 mm 0,0 UV-I 0 W/m 13,1 C 0,0 km/h (0 Bft)
03.08.2016 22:03 16,4 C 16,4 C 81 % 1014,1 hPa 0,0 mm 0,0 km/h (0 Bft) S 171 0 min 0,000 mm 0,0 UV-I 0 W/m 13,1 C 0,0 km/h (0 Bft)
03.08.2016 22:04 16,6 C 16,6 C 80 % 1014,1 hPa 0,0 mm 0,0 km/h (0 Bft) S 171 0 min 0,000 mm 0,0 UV-I 0 W/m 13,1 C 0,0 km/h (0 Bft)
03.08.2016 22:05 16,7 C 16,7 C 80 % 1014,1 hPa 0,0 mm 0,0 km/h (0 Bft) S 171 0 min 0,000 mm 0,0 UV-I 0 W/m 13,2 C 0,0 km/h (0 Bft)
03.08.2016 22:06 16,8 C 16,8 C 80 % 1014,1 hPa 0,0 mm 0,0 km/h (0 Bft) S 171 0 min 0,000 mm 0,0 UV-I 0 W/m 13,3 C 0,0 km/h (0 Bft)
03.08.2016 22:07 16,9 C 16,9 C 79 % 1014,1 hPa 0,0 mm 0,0 km/h (0 Bft) S 171 0 min 0,000 mm 0,0 UV-I 0 W/m 13,2 C 0,0 km/h (0 Bft)
03.08.2016 22:08 17,0 C 17,0 C 79 % 1014,1 hPa 0,0 mm 0,0 km/h (0 Bft) S 171 0 min 0,000 mm 0,0 UV-I 0 W/m 13,3 C 0,0 km/h (0 Bft)
03.08.2016 22:09 17,1 C 17,1 C 78 % 1014,1 hPa 0,0 mm 0,0 km/h (0 Bft) S 171 0 min 0,000 mm 0,0 UV-I 0 W/m 13,2 C 0,0 km/h (0 Bft)
03.08.2016 22:10 17,1 C 17,1 C 78 % 1014,1 hPa 0,0 mm 0,0 km/h (0 Bft) S 171 0 min 0,000 mm 0,0 UV-I 0 W/m 13,2 C 0,0 km/h (0 Bft)
03.08.2016 22:11 17,2 C 17,2 C 78 % 1014,1 hPa 0,0 mm 0,0 km/h (0 Bft) S 171 0 min 0,000 mm 0,0 UV-I 0 W/m 13,3 C 0,0 km/h (0 Bft)
03.08.2016 22:12 17,3 C 17,3 C 77 % 1014,1 hPa 0,0 mm 0,0 km/h (0 Bft) S 171 0 min 0,000 mm 0,0 UV-I 0 W/m 13,2 C 0,0 km/h (0 Bft)
03.08.2016 22:13 17,3 C 17,3 C 77 % 1014,1 hPa 0,0 mm 0,0 km/h (0 Bft) S 171 0 min 0,000 mm 0,0 UV-I 0 W/m 13,2 C 0,0 km/h (0 Bft)
03.08.2016 22:14 17,3 C 17,3 C 77 % 1014,1 hPa 0,0 mm 0,0 km/h (0 Bft) S 171 0 min 0,000 mm 0,0 UV-I 0 W/m 13,2 C 0,0 km/h (0 Bft)
03.08.2016 22:15 17,3 C 17,3 C 77 % 1014,1 hPa 0,0 mm 0,0 km/h (0 Bft) S 171 0 min 0,000 mm 0,0 UV-I 0 W/m 13,2 C 0,0 km/h (0 Bft)
03.08.2016 22:16 17,2 C 17,3 C 77 % 1014,1 hPa 0,0 mm 0,0 km/h (0 Bft) S 171 0 min 0,000 mm 0,0 UV-I 0 W/m 13,1 C 0,0 km/h (0 Bft)
03.08.2016 22:17 17,2 C 17,2 C 77 % 1014,1 hPa 0,0 mm 0,0 km/h (0 Bft) S 171 0 min 0,000 mm 0,0 UV-I 0 W/m 13,1 C 0,0 km/h (0 Bft)
03.08.2016 22:18 17,1 C 17,2 C 78 % 1014,1 hPa 0,0 mm 3,0 km/h (1 Bft) S 177 0 min 0,000 mm 0,0 UV-I 0 W/m 13,2 C 4,8 km/h (1 Bft)
03.08.2016 22:19 17,0 C 17,1 C 78 % 1014,1 hPa 0,0 mm 4,5 km/h (1 Bft) S 186 0 min 0,000 mm 0,0 UV-I 0 W/m 13,1 C 6,4 km/h (2 Bft)
03.08.2016 22:20 16,8 C 17,0 C 79 % 1014,1 hPa 0,0 mm 4,0 km/h (1 Bft) S 178 0 min 0,000 mm 0,0 UV-I 0 W/m 13,1 C 6,4 km/h (2 Bft)
03.08.2016 22:21 16,7 C 16,8 C 80 % 1014,1 hPa 0,0 mm 2,2 km/h (1 Bft) S 178 0 min 0,000 mm 0,0 UV-I 0 W/m 13,2 C 3,2 km/h (1 Bft)
03.08.2016 22:22 16,7 C 16,7 C 80 % 1014,1 hPa 0,0 mm 2,7 km/h (1 Bft) S 178 0 min 0,000 mm 0,0 UV-I 0 W/m 13,2 C 3,2 km/h (1 Bft)
03.08.2016 22:23 16,6 C 16,7 C 80 % 1014,1 hPa 0,0 mm 3,0 km/h (1 Bft) S 178 0 min 0,000 mm 0,0 UV-I 0 W/m 13,1 C 4,8 km/h (1 Bft)
03.08.2016 22:24 16,4 C 16,6 C 80 % 1014,0 hPa 0,0 mm 2,1 km/h (1 Bft) S 178 0 min 0,000 mm 0,0 UV-I 0 W/m 12,9 C 3,2 km/h (1 Bft)
03.08.2016 22:25 16,4 C 16,4 C 81 % 1014,1 hPa 0,0 mm 1,5 km/h (1 Bft) S 178 0 min 0,000 mm 0,0 UV-I 0 W/m 13,1 C 3,2 km/h (1 Bft)
03.08.2016 22:26 16,3 C 16,4 C 81 % 1014,1 hPa 0,0 mm 1,5 km/h (1 Bft) S 178 0 min 0,000 mm 0,0 UV-I 0 W/m 13,0 C 3,2 km/h (1 Bft)
03.08.2016 22:27 16,3 C 16,3 C 81 % 1014,1 hPa 0,0 mm 0,7 km/h (0 Bft) S 178 0 min 0,000 mm 0,0 UV-I 0 W/m 13,0 C 3,2 km/h (1 Bft)
03.08.2016 22:28 16,3 C 16,3 C 81 % 1014,0 hPa 0,0 mm 1,7 km/h (1 Bft) S 178 0 min 0,000 mm 0,0 UV-I 0 W/m 13,0 C 3,2 km/h (1 Bft)
03.08.2016 22:29 16,3 C 16,3 C 81 % 1014,1 hPa 0,0 mm 1,1 km/h (1 Bft) S 178 0 min 0,000 mm 0,0 UV-I 0 W/m 13,0 C 1,6 km/h (1 Bft)
03.08.2016 22:30 16,3 C 16,3 C 81 % 1014,1 hPa 0,0 mm 2,0 km/h (1 Bft) S 178 0 min 0,000 mm 0,0 UV-I 0 W/m 13,0 C 3,2 km/h (1 Bft)
03.08.2016 22:31 16,3 C 16,3 C 81 % 1014,1 hPa 0,0 mm 1,3 km/h (1 Bft) S 178 0 min 0,000 mm 0,0 UV-I 0 W/m 13,0 C 1,6 km/h (1 Bft)
03.08.2016 22:32 16,3 C 16,3 C 81 % 1014,1 hPa 0,0 mm 0,5 km/h (0 Bft) S 178 0 min 0,000 mm 0,0 UV-I 0 W/m 13,0 C 1,6 km/h (1 Bft)
03.08.2016 22:33 16,3 C 16,3 C 81 % 1014,1 hPa 0,0 mm 1,0 km/h (0 Bft) S 178 0 min 0,000 mm 0,0 UV-I 0 W/m 13,0 C 3,2 km/h (1 Bft)
03.08.2016 22:34 16,4 C 16,4 C 81 % 1014,1 hPa 0,0 mm 1,4 km/h (1 Bft) S 178 0 min 0,000 mm 0,0 UV-I 0 W/m 13,1 C 3,2 km/h (1 Bft)
03.08.2016 22:35 16,3 C 16,4 C 81 % 1014,1 hPa 0,0 mm 2,2 km/h (1 Bft) S 178 0 min 0,000 mm 0,0 UV-I 0 W/m 13,0 C 3,2 km/h (1 Bft)
03.08.2016 22:36 16,3 C 16,3 C 81 % 1014,1 hPa 0,0 mm 1,7 km/h (1 Bft) S 178 0 min 0,000 mm 0,0 UV-I 0 W/m 13,0 C 3,2 km/h (1 Bft)
03.08.2016 22:37 16,3 C 16,3 C 81 % 1014,1 hPa 0,0 mm 0,9 km/h (0 Bft) S 178 0 min 0,000 mm 0,0 UV-I 0 W/m 13,0 C 1,6 km/h (1 Bft)
03.08.2016 22:38 16,2 C 16,3 C 82 % 1014,1 hPa 0,0 mm 0,1 km/h (0 Bft) S 178 0 min 0,000 mm 0,0 UV-I 0 W/m 13,1 C 1,6 km/h (1 Bft)
03.08.2016 22:39 16,2 C 16,2 C 82 % 1014,1 hPa 0,0 mm 0,3 km/h (0 Bft) S 178 0 min 0,000 mm 0,0 UV-I 0 W/m 13,1 C 1,6 km/h (1 Bft)
03.08.2016 22:40 16,2 C 16,2 C 82 % 1014,1 hPa 0,0 mm 0,2 km/h (0 Bft) S 178 0 min 0,000 mm 0,0 UV-I 0 W/m 13,1 C 1,6 km/h (1 Bft)
03.08.2016 22:41 16,3 C 16,3 C 82 % 1014,1 hPa 0,0 mm 0,1 km/h (0 Bft) S 178 0 min 0,000 mm 0,0 UV-I 0 W/m 13,2 C 1,6 km/h (1 Bft)
03.08.2016 22:42 16,3 C 16,3 C 82 % 1014,1 hPa 0,0 mm 0,3 km/h (0 Bft) S 178 0 min 0,000 mm 0,0 UV-I 0 W/m 13,2 C 1,6 km/h (1 Bft)
03.08.2016 22:43 16,3 C 16,3 C 82 % 1014,1 hPa 0,0 mm 0,3 km/h (0 Bft) S 178 0 min 0,000 mm 0,0 UV-I 0 W/m 13,2 C 1,6 km/h (1 Bft)
03.08.2016 22:44 16,3 C 16,4 C 81 % 1014,1 hPa 0,0 mm 0,3 km/h (0 Bft) S 178 0 min 0,000 mm 0,0 UV-I 0 W/m 13,0 C 1,6 km/h (1 Bft)
03.08.2016 22:45 16,3 C 16,3 C 82 % 1014,1 hPa 0,0 mm 0,0 km/h (0 Bft) S 178 0 min 0,000 mm 0,0 UV-I 0 W/m 13,2 C 0,0 km/h (0 Bft)
03.08.2016 22:46 16,3 C 16,3 C 81 % 1014,1 hPa 0,0 mm 0,9 km/h (0 Bft) S 178 0 min 0,000 mm 0,0 UV-I 0 W/m 13,0 C 1,6 km/h (1 Bft)
03.08.2016 22:47 16,3 C 16,3 C 82 % 1014,1 hPa 0,0 mm 0,5 km/h (0 Bft) S 178 0 min 0,000 mm 0,0 UV-I 0 W/m 13,2 C 1,6 km/h (1 Bft)
03.08.2016 22:48 16,3 C 16,4 C 82 % 1014,1 hPa 0,0 mm 0,5 km/h (0 Bft) S 178 0 min 0,000 mm 0,0 UV-I 0 W/m 13,2 C 1,6 km/h (1 Bft)
03.08.2016 22:49 16,3 C 16,3 C 82 % 1014,1 hPa 0,0 mm 0,3 km/h (0 Bft) S 178 0 min 0,000 mm 0,0 UV-I 0 W/m 13,2 C 1,6 km/h (1 Bft)
03.08.2016 22:50 16,3 C 16,3 C 82 % 1014,0 hPa 0,0 mm 0,0 km/h (0 Bft) S 178 0 min 0,000 mm 0,0 UV-I 0 W/m 13,2 C 0,0 km/h (0 Bft)
03.08.2016 22:51 16,3 C 16,3 C 82 % 1014,1 hPa 0,0 mm 0,0 km/h (0 Bft) S 178 0 min 0,000 mm 0,0 UV-I 0 W/m 13,2 C 0,0 km/h (0 Bft)
03.08.2016 22:52 16,3 C 16,3 C 82 % 1014,1 hPa 0,0 mm 0,0 km/h (0 Bft) S 178 0 min 0,000 mm 0,0 UV-I 0 W/m 13,2 C 0,0 km/h (0 Bft)
03.08.2016 22:53 16,3 C 16,3 C 82 % 1014,1 hPa 0,0 mm 0,0 km/h (0 Bft) S 178 0 min 0,000 mm 0,0 UV-I 0 W/m 13,2 C 0,0 km/h (0 Bft)
03.08.2016 22:54 16,1 C 16,3 C 82 % 1014,1 hPa 0,0 mm 0,0 km/h (0 Bft) S 178 0 min 0,000 mm 0,0 UV-I 0 W/m 13,0 C 0,0 km/h (0 Bft)
03.08.2016 22:55 16,1 C 16,1 C 83 % 1014,1 hPa 0,0 mm 0,0 km/h (0 Bft) S 178 0 min 0,000 mm 0,0 UV-I 0 W/m 13,2 C 0,0 km/h (0 Bft)
03.08.2016 22:56 16,0 C 16,1 C 82 % 1014,1 hPa 0,0 mm 0,5 km/h (0 Bft) S 178 0 min 0,000 mm 0,0 UV-I 0 W/m 12,9 C 1,6 km/h (1 Bft)
03.08.2016 22:57 15,9 C 16,0 C 83 % 1014,1 hPa 0,0 mm 0,0 km/h (0 Bft) S 178 0 min 0,000 mm 0,0 UV-I 0 W/m 13,0 C 0,0 km/h (0 Bft)
03.08.2016 22:58 15,9 C 15,9 C 84 % 1014,0 hPa 0,0 mm 0,3 km/h (0 Bft) S 178 0 min 0,000 mm 0,0 UV-I 0 W/m 13,2 C 1,6 km/h (1 Bft)
03.08.2016 22:59 15,9 C 15,9 C 84 % 1014,1 hPa 0,0 mm 0,1 km/h (0 Bft) S 178 0 min 0,000 mm 0,0 UV-I 0 W/m 13,2 C 1,6 km/h (1 Bft)
03.08.2016 23:00 15,9 C 15,9 C 83 % 1014,1 hPa 0,0 mm 0,1 km/h (0 Bft) S 178 0 min 0,026 mm 0,0 UV-I 0 W/m 13,0 C 1,6 km/h (1 Bft)
03.08.2016 23:01 15,9 C 15,9 C 83 % 1014,0 hPa 0,0 mm 0,0 km/h (0 Bft) S 178 0 min 0,000 mm 0,0 UV-I 0 W/m 13,0 C 0,0 km/h (0 Bft)
03.08.2016 23:02 16,0 C 16,0 C 83 % 1014,0 hPa 0,0 mm 0,1 km/h (0 Bft) S 178 0 min 0,000 mm 0,0 UV-I 0 W/m 13,1 C 1,6 km/h (1 Bft)
03.08.2016 23:03 16,0 C 16,0 C 83 % 1014,0 hPa 0,0 mm 0,1 km/h (0 Bft) S 178 0 min 0,000 mm 0,0 UV-I 0 W/m 13,1 C 1,6 km/h (1 Bft)
03.08.2016 23:04 16,0 C 16,0 C 83 % 1014,1 hPa 0,0 mm 0,2 km/h (0 Bft) S 178 0 min 0,000 mm 0,0 UV-I 0 W/m 13,1 C 1,6 km/h (1 Bft)
03.08.2016 23:05 15,9 C 16,0 C 83 % 1014,1 hPa 0,0 mm 0,0 km/h (0 Bft) S 178 0 min 0,000 mm 0,0 UV-I 0 W/m 13,0 C 0,0 km/h (0 Bft)
03.08.2016 23:06 15,9 C 15,9 C 83 % 1014,1 hPa 0,0 mm 0,0 km/h (0 Bft) S 178 0 min 0,000 mm 0,0 UV-I 0 W/m 13,0 C 0,0 km/h (0 Bft)
03.08.2016 23:07 15,9 C 15,9 C 83 % 1014,1 hPa 0,0 mm 0,0 km/h (0 Bft) S 178 0 min 0,000 mm 0,0 UV-I 0 W/m 13,0 C 0,0 km/h (0 Bft)
03.08.2016 23:08 15,8 C 15,9 C 84 % 1014,1 hPa 0,0 mm 0,0 km/h (0 Bft) S 178 0 min 0,000 mm 0,0 UV-I 0 W/m 13,1 C 0,0 km/h (0 Bft)
03.08.2016 23:09 15,7 C 15,8 C 84 % 1014,1 hPa 0,0 mm 0,0 km/h (0 Bft) S 178 0 min 0,000 mm 0,0 UV-I 0 W/m 13,0 C 0,0 km/h (0 Bft)
03.08.2016 23:10 15,7 C 15,7 C 85 % 1014,1 hPa 0,0 mm 0,0 km/h (0 Bft) S 178 0 min 0,000 mm 0,0 UV-I 0 W/m 13,2 C 0,0 km/h (0 Bft)
03.08.2016 23:11 15,6 C 15,7 C 85 % 1014,1 hPa 0,0 mm 0,0 km/h (0 Bft) S 178 0 min 0,000 mm 0,0 UV-I 0 W/m 13,1 C 0,0 km/h (0 Bft)
03.08.2016 23:12 15,6 C 15,6 C 85 % 1014,1 hPa 0,0 mm 0,0 km/h (0 Bft) S 178 0 min 0,000 mm 0,0 UV-I 0 W/m 13,1 C 0,0 km/h (0 Bft)
03.08.2016 23:13 15,5 C 15,6 C 85 % 1014,1 hPa 0,0 mm 0,0 km/h (0 Bft) S 178 0 min 0,000 mm 0,0 UV-I 0 W/m 13,0 C 0,0 km/h (0 Bft)
03.08.2016 23:14 15,4 C 15,5 C 85 % 1014,1 hPa 0,0 mm 0,0 km/h (0 Bft) S 178 0 min 0,000 mm 0,0 UV-I 0 W/m 12,9 C 0,0 km/h (0 Bft)
03.08.2016 23:15 15,4 C 15,4 C 85 % 1014,1 hPa 0,0 mm 0,0 km/h (0 Bft) S 178 0 min 0,000 mm 0,0 UV-I 0 W/m 12,9 C 0,0 km/h (0 Bft)
03.08.2016 23:16 15,4 C 15,4 C 86 % 1014,1 hPa 0,0 mm 0,5 km/h (0 Bft) S 178 0 min 0,000 mm 0,0 UV-I 0 W/m 13,1 C 1,6 km/h (1 Bft)
03.08.2016 23:17 15,4 C 15,4 C 86 % 1014,1 hPa 0,0 mm 0,3 km/h (0 Bft) S 178 0 min 0,000 mm 0,0 UV-I 0 W/m 13,1 C 1,6 km/h (1 Bft)
03.08.2016 23:18 15,4 C 15,4 C 85 % 1014,0 hPa 0,0 mm 0,1 km/h (0 Bft) S 178 0 min 0,000 mm 0,0 UV-I 0 W/m 12,9 C 1,6 km/h (1 Bft)
03.08.2016 23:19 15,4 C 15,4 C 85 % 1014,0 hPa 0,0 mm 0,1 km/h (0 Bft) S 178 0 min 0,000 mm 0,0 UV-I 0 W/m 12,9 C 1,6 km/h (1 Bft)
03.08.2016 23:20 15,4 C 15,4 C 85 % 1014,0 hPa 0,0 mm 0,2 km/h (0 Bft) S 178 0 min 0,000 mm 0,0 UV-I 0 W/m 12,9 C 1,6 km/h (1 Bft)
03.08.2016 23:21 15,4 C 15,4 C 84 % 1014,0 hPa 0,0 mm 0,2 km/h (0 Bft) S 178 0 min 0,000 mm 0,0 UV-I 0 W/m 12,7 C 1,6 km/h (1 Bft)
03.08.2016 23:22 15,4 C 15,4 C 84 % 1014,0 hPa 0,0 mm 0,3 km/h (0 Bft) S 178 0 min 0,000 mm 0,0 UV-I 0 W/m 12,7 C 1,6 km/h (1 Bft)
03.08.2016 23:23 15,4 C 15,5 C 84 % 1014,0 hPa 0,0 mm 0,5 km/h (0 Bft) S 178 0 min 0,000 mm 0,0 UV-I 0 W/m 12,7 C 1,6 km/h (1 Bft)
03.08.2016 23:24 15,5 C 15,5 C 84 % 1014,0 hPa 0,0 mm 0,8 km/h (0 Bft) S 178 0 min 0,000 mm 0,0 UV-I 0 W/m 12,8 C 1,6 km/h (1 Bft)
03.08.2016 23:25 15,5 C 15,5 C 83 % 1014,0 hPa 0,0 mm 0,9 km/h (0 Bft) S 178 0 min 0,000 mm 0,0 UV-I 0 W/m 12,6 C 1,6 km/h (1 Bft)
03.08.2016 23:26 15,5 C 15,5 C 83 % 1014,0 hPa 0,0 mm 1,0 km/h (0 Bft) S 178 0 min 0,000 mm 0,0 UV-I 0 W/m 12,6 C 3,2 km/h (1 Bft)
03.08.2016 23:27 15,4 C 15,5 C 84 % 1013,9 hPa 0,0 mm 0,7 km/h (0 Bft) S 178 0 min 0,000 mm 0,0 UV-I 0 W/m 12,7 C 1,6 km/h (1 Bft)
03.08.2016 23:28 15,4 C 15,5 C 84 % 1013,9 hPa 0,0 mm 1,9 km/h (1 Bft) S 178 0 min 0,000 mm 0,0 UV-I 0 W/m 12,7 C 3,2 km/h (1 Bft)
03.08.2016 23:29 15,4 C 15,4 C 84 % 1014,0 hPa 0,0 mm 1,2 km/h (1 Bft) S 178 0 min 0,000 mm 0,0 UV-I 0 W/m 12,7 C 1,6 km/h (1 Bft)
03.08.2016 23:30 15,4 C 15,4 C 84 % 1014,0 hPa 0,0 mm 0,6 km/h (0 Bft) S 178 0 min 0,000 mm 0,0 UV-I 0 W/m 12,7 C 1,6 km/h (1 Bft)
03.08.2016 23:31 15,4 C 15,4 C 84 % 1014,0 hPa 0,0 mm 0,1 km/h (0 Bft) S 178 0 min 0,000 mm 0,0 UV-I 0 W/m 12,7 C 1,6 km/h (1 Bft)
03.08.2016 23:32 15,4 C 15,5 C 84 % 1014,0 hPa 0,0 mm 0,0 km/h (0 Bft) S 178 0 min 0,000 mm 0,0 UV-I 0 W/m 12,7 C 0,0 km/h (0 Bft)
03.08.2016 23:33 15,3 C 15,4 C 84 % 1014,0 hPa 0,0 mm 0,3 km/h (0 Bft) S 178 0 min 0,000 mm 0,0 UV-I 0 W/m 12,6 C 1,6 km/h (1 Bft)
03.08.2016 23:34 15,2 C 15,3 C 84 % 1014,0 hPa 0,0 mm 0,0 km/h (0 Bft) S 178 0 min 0,000 mm 0,0 UV-I 0 W/m 12,5 C 0,0 km/h (0 Bft)
03.08.2016 23:35 15,1 C 15,2 C 85 % 1014,0 hPa 0,0 mm 0,0 km/h (0 Bft) S 178 0 min 0,000 mm 0,0 UV-I 0 W/m 12,6 C 0,0 km/h (0 Bft)
03.08.2016 23:36 15,0 C 15,1 C 85 % 1014,0 hPa 0,0 mm 0,0 km/h (0 Bft) S 178 0 min 0,000 mm 0,0 UV-I 0 W/m 12,5 C 0,0 km/h (0 Bft)
03.08.2016 23:37 14,9 C 15,0 C 86 % 1014,0 hPa 0,0 mm 0,0 km/h (0 Bft) S 178 0 min 0,000 mm 0,0 UV-I 0 W/m 12,6 C 0,0 km/h (0 Bft)
03.08.2016 23:38 14,9 C 14,9 C 86 % 1014,0 hPa 0,0 mm 0,0 km/h (0 Bft) S 178 0 min 0,000 mm 0,0 UV-I 0 W/m 12,6 C 0,0 km/h (0 Bft)
03.08.2016 23:39 14,8 C 14,9 C 87 % 1014,0 hPa 0,0 mm 0,0 km/h (0 Bft) S 178 0 min 0,000 mm 0,0 UV-I 0 W/m 12,7 C 0,0 km/h (0 Bft)
03.08.2016 23:40 14,8 C 14,8 C 86 % 1014,0 hPa 0,0 mm 0,3 km/h (0 Bft) S 178 0 min 0,000 mm 0,0 UV-I 0 W/m 12,5 C 1,6 km/h (1 Bft)
03.08.2016 23:41 14,9 C 14,9 C 86 % 1014,0 hPa 0,0 mm 0,0 km/h (0 Bft) S 178 0 min 0,000 mm 0,0 UV-I 0 W/m 12,6 C 0,0 km/h (0 Bft)
03.08.2016 23:42 15,0 C 15,0 C 86 % 1014,0 hPa 0,0 mm 0,1 km/h (0 Bft) S 178 0 min 0,000 mm 0,0 UV-I 0 W/m 12,7 C 1,6 km/h (1 Bft)
03.08.2016 23:43 15,1 C 15,1 C 85 % 1014,0 hPa 0,0 mm 0,0 km/h (0 Bft) S 178 0 min 0,000 mm 0,0 UV-I 0 W/m 12,6 C 0,0 km/h (0 Bft)
03.08.2016 23:44 15,2 C 15,2 C 85 % 1014,0 hPa 0,0 mm 0,5 km/h (0 Bft) S 178 0 min 0,000 mm 0,0 UV-I 0 W/m 12,7 C 1,6 km/h (1 Bft)
03.08.2016 23:45 15,3 C 15,3 C 85 % 1014,0 hPa 0,0 mm 1,6 km/h (1 Bft) S 178 0 min 0,000 mm 0,0 UV-I 0 W/m 12,8 C 1,6 km/h (1 Bft)
03.08.2016 23:46 15,3 C 15,3 C 85 % 1013,9 hPa 0,0 mm 0,1 km/h (0 Bft) S 178 0 min 0,000 mm 0,0 UV-I 0 W/m 12,8 C 1,6 km/h (1 Bft)
03.08.2016 23:47 15,3 C 15,3 C 84 % 1013,9 hPa 0,0 mm 0,0 km/h (0 Bft) S 178 0 min 0,000 mm 0,0 UV-I 0 W/m 12,6 C 0,0 km/h (0 Bft)
03.08.2016 23:48 15,3 C 15,3 C 84 % 1013,9 hPa 0,0 mm 0,5 km/h (0 Bft) S 178 0 min 0,000 mm 0,0 UV-I 0 W/m 12,6 C 1,6 km/h (1 Bft)
03.08.2016 23:49 15,2 C 15,3 C 84 % 1013,9 hPa 0,0 mm 1,0 km/h (0 Bft) S 178 0 min 0,000 mm 0,0 UV-I 0 W/m 12,5 C 1,6 km/h (1 Bft)
03.08.2016 23:50 15,2 C 15,2 C 84 % 1013,9 hPa 0,0 mm 0,1 km/h (0 Bft) S 178 0 min 0,000 mm 0,0 UV-I 0 W/m 12,5 C 1,6 km/h (1 Bft)
03.08.2016 23:51 15,2 C 15,2 C 85 % 1014,0 hPa 0,0 mm 0,0 km/h (0 Bft) S 178 0 min 0,000 mm 0,0 UV-I 0 W/m 12,7 C 0,0 km/h (0 Bft)
03.08.2016 23:52 15,2 C 15,2 C 85 % 1013,9 hPa 0,0 mm 0,0 km/h (0 Bft) S 178 0 min 0,000 mm 0,0 UV-I 0 W/m 12,7 C 0,0 km/h (0 Bft)
03.08.2016 23:53 15,2 C 15,2 C 85 % 1014,0 hPa 0,0 mm 0,7 km/h (0 Bft) S 178 0 min 0,000 mm 0,0 UV-I 0 W/m 12,7 C 1,6 km/h (1 Bft)
03.08.2016 23:54 15,2 C 15,2 C 84 % 1014,0 hPa 0,0 mm 0,3 km/h (0 Bft) S 178 0 min 0,000 mm 0,0 UV-I 0 W/m 12,5 C 1,6 km/h (1 Bft)
03.08.2016 23:55 15,2 C 15,2 C 84 % 1014,0 hPa 0,0 mm 1,5 km/h (1 Bft) S 178 0 min 0,000 mm 0,0 UV-I 0 W/m 12,5 C 3,2 km/h (1 Bft)
03.08.2016 23:56 15,1 C 15,2 C 84 % 1014,0 hPa 0,0 mm 0,2 km/h (0 Bft) S 178 0 min 0,000 mm 0,0 UV-I 0 W/m 12,4 C 1,6 km/h (1 Bft)
03.08.2016 23:57 15,2 C 15,2 C 85 % 1014,0 hPa 0,0 mm 0,6 km/h (0 Bft) S 178 0 min 0,000 mm 0,0 UV-I 0 W/m 12,7 C 1,6 km/h (1 Bft)
03.08.2016 23:58 15,1 C 15,2 C 84 % 1014,0 hPa 0,0 mm 0,1 km/h (0 Bft) S 178 0 min 0,000 mm 0,0 UV-I 0 W/m 12,4 C 1,6 km/h (1 Bft)
03.08.2016 23:59 15,1 C 15,1 C 84 % 1014,0 hPa 0,0 mm 0,0 km/h (0 Bft) S 178 0 min 0,000 mm 0,0 UV-I 0 W/m 12,4 C 0,0 km/h (0 Bft)
_ Min-Zeit 05:57 06:04 16:25 19:08 - 23:59 - - - - - - 16:52 23:59
Minimum _ 12,9 C 13,0 C 45 % 1013,2 hPa - 0,0 km/h (0 Bft) - - - - - - 11,9 C 0,0 km/h (0 Bft)
_ Max-Zeit 16:10 16:11 06:52 01:09 23:59 16:10 - - 20:36 15:01 13:15 13:29 13:26 16:10
Maximum _ 25,3 C 25,3 C 96 % 1018,9 hPa 0,0 mm 16,2 km/h
W-SW (3 Bft)
- - 1 min 0,533 mm 7,5 UV-I 874 W/m 18,0 C 25,7 km/h
W (4 Bft)
Durchschnitt _ 18,8 C 18,8 C 77 % 1015,5 hPa #0,0 mm 2,6 km/h (1 Bft) W-NW - #9:18 h #4,115 mm 4,1 UV-I 260 W/m 14,2 C 4,5 km/h (1 Bft)